<?xml version="1.0" encoding="UTF-8" standalone="no" ?>
<gpx xmlns="http://www.topografix.com/GPX/1/1" xmlns:xsi="http://www.w3.org/2001/XMLSchema-instance" xsi:schemaLocation="http://www.topografix.com/GPX/1/1 http://www.topografix.com/GPX/1/1/gpx.xsd" version="1.1" creator="VisuGPX - https://www.visugpx.com">
  <metadata>
    <name>Sortie_cyclo_14_06_2013 (Lannion- 83 kms)</name>
    <desc><![CDATA[Au sud de Lannion. Circuit agréable et tranquille (peu de voitures).]]></desc>
  </metadata>
  <trk>
    <name><![CDATA[14-JUIN-13 12:10:53]]></name>
    <trkseg>
      <trkpt lat="48.74692" lon="-3.45505">
        <ele>72.72</ele>
        <time>2013-06-14T06:41:04Z</time>
      </trkpt>
      <trkpt lat="48.74694" lon="-3.45505">
        <ele>72.72</ele>
        <time>2013-06-14T06:41:21Z</time>
      </trkpt>
      <trkpt lat="48.74695" lon="-3.45504">
        <ele>72.72</ele>
        <time>2013-06-14T06:41:29Z</time>
      </trkpt>
      <trkpt lat="48.74682" lon="-3.45524">
        <ele>72.24</ele>
        <time>2013-06-14T06:41:36Z</time>
      </trkpt>
      <trkpt lat="48.74677" lon="-3.45521">
        <ele>72.24</ele>
        <time>2013-06-14T06:41:37Z</time>
      </trkpt>
      <trkpt lat="48.74672" lon="-3.45517">
        <ele>72.24</ele>
        <time>2013-06-14T06:41:38Z</time>
      </trkpt>
      <trkpt lat="48.74668" lon="-3.45513">
        <ele>72.24</ele>
        <time>2013-06-14T06:41:39Z</time>
      </trkpt>
      <trkpt lat="48.74663" lon="-3.45508">
        <ele>71.76</ele>
        <time>2013-06-14T06:41:40Z</time>
      </trkpt>
      <trkpt lat="48.74631" lon="-3.45477">
        <ele>69.35</ele>
        <time>2013-06-14T06:41:46Z</time>
      </trkpt>
      <trkpt lat="48.74624" lon="-3.45473">
        <ele>68.87</ele>
        <time>2013-06-14T06:41:47Z</time>
      </trkpt>
      <trkpt lat="48.74617" lon="-3.45473">
        <ele>68.39</ele>
        <time>2013-06-14T06:41:48Z</time>
      </trkpt>
      <trkpt lat="48.7461" lon="-3.45477">
        <ele>67.91</ele>
        <time>2013-06-14T06:41:49Z</time>
      </trkpt>
      <trkpt lat="48.74603" lon="-3.45482">
        <ele>66.95</ele>
        <time>2013-06-14T06:41:50Z</time>
      </trkpt>
      <trkpt lat="48.74599" lon="-3.45489">
        <ele>66.47</ele>
        <time>2013-06-14T06:41:51Z</time>
      </trkpt>
      <trkpt lat="48.74597" lon="-3.45495">
        <ele>65.51</ele>
        <time>2013-06-14T06:41:52Z</time>
      </trkpt>
      <trkpt lat="48.74596" lon="-3.455">
        <ele>64.55</ele>
        <time>2013-06-14T06:41:53Z</time>
      </trkpt>
      <trkpt lat="48.74595" lon="-3.45503">
        <ele>64.07</ele>
        <time>2013-06-14T06:41:54Z</time>
      </trkpt>
      <trkpt lat="48.74595" lon="-3.45505">
        <ele>64.07</ele>
        <time>2013-06-14T06:41:55Z</time>
      </trkpt>
      <trkpt lat="48.74594" lon="-3.45508">
        <ele>64.07</ele>
        <time>2013-06-14T06:41:56Z</time>
      </trkpt>
      <trkpt lat="48.74593" lon="-3.4551">
        <ele>64.07</ele>
        <time>2013-06-14T06:41:57Z</time>
      </trkpt>
      <trkpt lat="48.7459" lon="-3.4551">
        <ele>64.07</ele>
        <time>2013-06-14T06:41:58Z</time>
      </trkpt>
      <trkpt lat="48.74587" lon="-3.45509">
        <ele>63.58</ele>
        <time>2013-06-14T06:41:59Z</time>
      </trkpt>
      <trkpt lat="48.74583" lon="-3.45507">
        <ele>63.58</ele>
        <time>2013-06-14T06:42:00Z</time>
      </trkpt>
      <trkpt lat="48.74579" lon="-3.45503">
        <ele>63.58</ele>
        <time>2013-06-14T06:42:01Z</time>
      </trkpt>
      <trkpt lat="48.74576" lon="-3.45499">
        <ele>63.1</ele>
        <time>2013-06-14T06:42:02Z</time>
      </trkpt>
      <trkpt lat="48.74572" lon="-3.45494">
        <ele>62.62</ele>
        <time>2013-06-14T06:42:03Z</time>
      </trkpt>
      <trkpt lat="48.74567" lon="-3.45488">
        <ele>62.14</ele>
        <time>2013-06-14T06:42:04Z</time>
      </trkpt>
      <trkpt lat="48.74547" lon="-3.45452">
        <ele>60.7</ele>
        <time>2013-06-14T06:42:08Z</time>
      </trkpt>
      <trkpt lat="48.74493" lon="-3.45365">
        <ele>60.22</ele>
        <time>2013-06-14T06:42:18Z</time>
      </trkpt>
      <trkpt lat="48.74476" lon="-3.45345">
        <ele>62.62</ele>
        <time>2013-06-14T06:42:23Z</time>
      </trkpt>
      <trkpt lat="48.74459" lon="-3.45324">
        <ele>65.99</ele>
        <time>2013-06-14T06:42:29Z</time>
      </trkpt>
      <trkpt lat="48.74414" lon="-3.45267">
        <ele>68.87</ele>
        <time>2013-06-14T06:42:44Z</time>
      </trkpt>
      <trkpt lat="48.74381" lon="-3.45235">
        <ele>70.31</ele>
        <time>2013-06-14T06:42:54Z</time>
      </trkpt>
      <trkpt lat="48.74331" lon="-3.45211">
        <ele>68.87</ele>
        <time>2013-06-14T06:43:04Z</time>
      </trkpt>
      <trkpt lat="48.74326" lon="-3.45207">
        <ele>68.39</ele>
        <time>2013-06-14T06:43:05Z</time>
      </trkpt>
      <trkpt lat="48.74289" lon="-3.45159">
        <ele>65.99</ele>
        <time>2013-06-14T06:43:12Z</time>
      </trkpt>
      <trkpt lat="48.74273" lon="-3.45115">
        <ele>64.55</ele>
        <time>2013-06-14T06:43:16Z</time>
      </trkpt>
      <trkpt lat="48.74263" lon="-3.45044">
        <ele>61.66</ele>
        <time>2013-06-14T06:43:21Z</time>
      </trkpt>
      <trkpt lat="48.74265" lon="-3.44935">
        <ele>58.3</ele>
        <time>2013-06-14T06:43:28Z</time>
      </trkpt>
      <trkpt lat="48.74267" lon="-3.44839">
        <ele>55.41</ele>
        <time>2013-06-14T06:43:34Z</time>
      </trkpt>
      <trkpt lat="48.74267" lon="-3.44824">
        <ele>54.93</ele>
        <time>2013-06-14T06:43:35Z</time>
      </trkpt>
      <trkpt lat="48.74267" lon="-3.44728">
        <ele>51.09</ele>
        <time>2013-06-14T06:43:41Z</time>
      </trkpt>
      <trkpt lat="48.74258" lon="-3.44653">
        <ele>48.68</ele>
        <time>2013-06-14T06:43:46Z</time>
      </trkpt>
      <trkpt lat="48.74254" lon="-3.44641">
        <ele>48.2</ele>
        <time>2013-06-14T06:43:47Z</time>
      </trkpt>
      <trkpt lat="48.74248" lon="-3.4463">
        <ele>47.72</ele>
        <time>2013-06-14T06:43:48Z</time>
      </trkpt>
      <trkpt lat="48.74231" lon="-3.44601">
        <ele>46.76</ele>
        <time>2013-06-14T06:43:51Z</time>
      </trkpt>
      <trkpt lat="48.74224" lon="-3.44594">
        <ele>46.76</ele>
        <time>2013-06-14T06:43:52Z</time>
      </trkpt>
      <trkpt lat="48.74216" lon="-3.44588">
        <ele>46.28</ele>
        <time>2013-06-14T06:43:53Z</time>
      </trkpt>
      <trkpt lat="48.74208" lon="-3.44583">
        <ele>46.28</ele>
        <time>2013-06-14T06:43:54Z</time>
      </trkpt>
      <trkpt lat="48.742" lon="-3.4458">
        <ele>45.8</ele>
        <time>2013-06-14T06:43:55Z</time>
      </trkpt>
      <trkpt lat="48.74191" lon="-3.44576">
        <ele>45.32</ele>
        <time>2013-06-14T06:43:56Z</time>
      </trkpt>
      <trkpt lat="48.74095" lon="-3.44536">
        <ele>42.44</ele>
        <time>2013-06-14T06:44:08Z</time>
      </trkpt>
      <trkpt lat="48.73995" lon="-3.44493">
        <ele>39.07</ele>
        <time>2013-06-14T06:44:21Z</time>
      </trkpt>
      <trkpt lat="48.73988" lon="-3.44493">
        <ele>38.59</ele>
        <time>2013-06-14T06:44:22Z</time>
      </trkpt>
      <trkpt lat="48.73982" lon="-3.44495">
        <ele>38.59</ele>
        <time>2013-06-14T06:44:23Z</time>
      </trkpt>
      <trkpt lat="48.73976" lon="-3.44499">
        <ele>38.11</ele>
        <time>2013-06-14T06:44:24Z</time>
      </trkpt>
      <trkpt lat="48.7397" lon="-3.44503">
        <ele>38.11</ele>
        <time>2013-06-14T06:44:25Z</time>
      </trkpt>
      <trkpt lat="48.73964" lon="-3.44505">
        <ele>38.11</ele>
        <time>2013-06-14T06:44:26Z</time>
      </trkpt>
      <trkpt lat="48.73958" lon="-3.44504">
        <ele>38.11</ele>
        <time>2013-06-14T06:44:27Z</time>
      </trkpt>
      <trkpt lat="48.73953" lon="-3.44501">
        <ele>37.63</ele>
        <time>2013-06-14T06:44:28Z</time>
      </trkpt>
      <trkpt lat="48.73947" lon="-3.44496">
        <ele>37.63</ele>
        <time>2013-06-14T06:44:29Z</time>
      </trkpt>
      <trkpt lat="48.73943" lon="-3.44489">
        <ele>38.11</ele>
        <time>2013-06-14T06:44:30Z</time>
      </trkpt>
      <trkpt lat="48.73938" lon="-3.44483">
        <ele>37.63</ele>
        <time>2013-06-14T06:44:31Z</time>
      </trkpt>
      <trkpt lat="48.73933" lon="-3.44477">
        <ele>37.63</ele>
        <time>2013-06-14T06:44:32Z</time>
      </trkpt>
      <trkpt lat="48.73927" lon="-3.44473">
        <ele>37.63</ele>
        <time>2013-06-14T06:44:33Z</time>
      </trkpt>
      <trkpt lat="48.7392" lon="-3.4447">
        <ele>37.63</ele>
        <time>2013-06-14T06:44:34Z</time>
      </trkpt>
      <trkpt lat="48.73913" lon="-3.44468">
        <ele>36.67</ele>
        <time>2013-06-14T06:44:35Z</time>
      </trkpt>
      <trkpt lat="48.73906" lon="-3.44466">
        <ele>37.15</ele>
        <time>2013-06-14T06:44:36Z</time>
      </trkpt>
      <trkpt lat="48.73855" lon="-3.44448">
        <ele>33.78</ele>
        <time>2013-06-14T06:44:43Z</time>
      </trkpt>
      <trkpt lat="48.73838" lon="-3.44446">
        <ele>33.3</ele>
        <time>2013-06-14T06:44:45Z</time>
      </trkpt>
      <trkpt lat="48.73829" lon="-3.44447">
        <ele>32.82</ele>
        <time>2013-06-14T06:44:46Z</time>
      </trkpt>
      <trkpt lat="48.7382" lon="-3.44449">
        <ele>31.86</ele>
        <time>2013-06-14T06:44:47Z</time>
      </trkpt>
      <trkpt lat="48.73811" lon="-3.44452">
        <ele>31.38</ele>
        <time>2013-06-14T06:44:48Z</time>
      </trkpt>
      <trkpt lat="48.73803" lon="-3.44456">
        <ele>30.9</ele>
        <time>2013-06-14T06:44:49Z</time>
      </trkpt>
      <trkpt lat="48.73794" lon="-3.4446">
        <ele>30.42</ele>
        <time>2013-06-14T06:44:50Z</time>
      </trkpt>
      <trkpt lat="48.73786" lon="-3.44466">
        <ele>29.46</ele>
        <time>2013-06-14T06:44:51Z</time>
      </trkpt>
      <trkpt lat="48.73755" lon="-3.4449">
        <ele>28.02</ele>
        <time>2013-06-14T06:44:55Z</time>
      </trkpt>
      <trkpt lat="48.73747" lon="-3.44493">
        <ele>27.05</ele>
        <time>2013-06-14T06:44:56Z</time>
      </trkpt>
      <trkpt lat="48.73739" lon="-3.44494">
        <ele>27.05</ele>
        <time>2013-06-14T06:44:57Z</time>
      </trkpt>
      <trkpt lat="48.73731" lon="-3.44493">
        <ele>26.57</ele>
        <time>2013-06-14T06:44:58Z</time>
      </trkpt>
      <trkpt lat="48.73722" lon="-3.4449">
        <ele>26.09</ele>
        <time>2013-06-14T06:44:59Z</time>
      </trkpt>
      <trkpt lat="48.73714" lon="-3.44485">
        <ele>25.61</ele>
        <time>2013-06-14T06:45:00Z</time>
      </trkpt>
      <trkpt lat="48.73707" lon="-3.44479">
        <ele>25.61</ele>
        <time>2013-06-14T06:45:01Z</time>
      </trkpt>
      <trkpt lat="48.73699" lon="-3.44473">
        <ele>25.61</ele>
        <time>2013-06-14T06:45:02Z</time>
      </trkpt>
      <trkpt lat="48.73625" lon="-3.44416">
        <ele>26.57</ele>
        <time>2013-06-14T06:45:15Z</time>
      </trkpt>
      <trkpt lat="48.73596" lon="-3.44406">
        <ele>29.46</ele>
        <time>2013-06-14T06:45:23Z</time>
      </trkpt>
      <trkpt lat="48.73542" lon="-3.44405">
        <ele>32.34</ele>
        <time>2013-06-14T06:45:35Z</time>
      </trkpt>
      <trkpt lat="48.7353" lon="-3.44408">
        <ele>32.82</ele>
        <time>2013-06-14T06:45:38Z</time>
      </trkpt>
      <trkpt lat="48.73525" lon="-3.44408">
        <ele>33.3</ele>
        <time>2013-06-14T06:45:39Z</time>
      </trkpt>
      <trkpt lat="48.73521" lon="-3.44409">
        <ele>33.3</ele>
        <time>2013-06-14T06:45:40Z</time>
      </trkpt>
      <trkpt lat="48.73508" lon="-3.44412">
        <ele>34.26</ele>
        <time>2013-06-14T06:45:43Z</time>
      </trkpt>
      <trkpt lat="48.73482" lon="-3.44426">
        <ele>35.23</ele>
        <time>2013-06-14T06:45:50Z</time>
      </trkpt>
      <trkpt lat="48.73478" lon="-3.44428">
        <ele>35.71</ele>
        <time>2013-06-14T06:45:51Z</time>
      </trkpt>
      <trkpt lat="48.73474" lon="-3.44431">
        <ele>35.71</ele>
        <time>2013-06-14T06:45:52Z</time>
      </trkpt>
      <trkpt lat="48.7345" lon="-3.4447">
        <ele>37.15</ele>
        <time>2013-06-14T06:46:02Z</time>
      </trkpt>
      <trkpt lat="48.73444" lon="-3.44479">
        <ele>37.15</ele>
        <time>2013-06-14T06:46:04Z</time>
      </trkpt>
      <trkpt lat="48.7344" lon="-3.44482">
        <ele>37.63</ele>
        <time>2013-06-14T06:46:05Z</time>
      </trkpt>
      <trkpt lat="48.73435" lon="-3.44484">
        <ele>37.63</ele>
        <time>2013-06-14T06:46:06Z</time>
      </trkpt>
      <trkpt lat="48.73431" lon="-3.44484">
        <ele>37.63</ele>
        <time>2013-06-14T06:46:07Z</time>
      </trkpt>
      <trkpt lat="48.73426" lon="-3.44482">
        <ele>37.63</ele>
        <time>2013-06-14T06:46:08Z</time>
      </trkpt>
      <trkpt lat="48.73422" lon="-3.44479">
        <ele>38.11</ele>
        <time>2013-06-14T06:46:09Z</time>
      </trkpt>
      <trkpt lat="48.73418" lon="-3.44475">
        <ele>38.11</ele>
        <time>2013-06-14T06:46:10Z</time>
      </trkpt>
      <trkpt lat="48.73414" lon="-3.4447">
        <ele>38.11</ele>
        <time>2013-06-14T06:46:11Z</time>
      </trkpt>
      <trkpt lat="48.73412" lon="-3.44464">
        <ele>38.59</ele>
        <time>2013-06-14T06:46:12Z</time>
      </trkpt>
      <trkpt lat="48.73409" lon="-3.44457">
        <ele>38.11</ele>
        <time>2013-06-14T06:46:13Z</time>
      </trkpt>
      <trkpt lat="48.73408" lon="-3.4445">
        <ele>38.11</ele>
        <time>2013-06-14T06:46:14Z</time>
      </trkpt>
      <trkpt lat="48.73406" lon="-3.44443">
        <ele>38.11</ele>
        <time>2013-06-14T06:46:15Z</time>
      </trkpt>
      <trkpt lat="48.73405" lon="-3.44435">
        <ele>38.11</ele>
        <time>2013-06-14T06:46:16Z</time>
      </trkpt>
      <trkpt lat="48.73391" lon="-3.44307">
        <ele>38.11</ele>
        <time>2013-06-14T06:46:32Z</time>
      </trkpt>
      <trkpt lat="48.73387" lon="-3.4418">
        <ele>39.07</ele>
        <time>2013-06-14T06:46:48Z</time>
      </trkpt>
      <trkpt lat="48.7339" lon="-3.44151">
        <ele>38.11</ele>
        <time>2013-06-14T06:46:57Z</time>
      </trkpt>
      <trkpt lat="48.73389" lon="-3.44152">
        <ele>38.59</ele>
        <time>2013-06-14T06:47:22Z</time>
      </trkpt>
      <trkpt lat="48.7339" lon="-3.44151">
        <ele>38.59</ele>
        <time>2013-06-14T06:47:45Z</time>
      </trkpt>
      <trkpt lat="48.73396" lon="-3.44128">
        <ele>39.55</ele>
        <time>2013-06-14T06:47:57Z</time>
      </trkpt>
      <trkpt lat="48.73398" lon="-3.44116">
        <ele>39.55</ele>
        <time>2013-06-14T06:47:59Z</time>
      </trkpt>
      <trkpt lat="48.73408" lon="-3.44052">
        <ele>41.47</ele>
        <time>2013-06-14T06:48:08Z</time>
      </trkpt>
      <trkpt lat="48.73409" lon="-3.44031">
        <ele>41.95</ele>
        <time>2013-06-14T06:48:11Z</time>
      </trkpt>
      <trkpt lat="48.73412" lon="-3.44024">
        <ele>42.44</ele>
        <time>2013-06-14T06:48:12Z</time>
      </trkpt>
      <trkpt lat="48.73419" lon="-3.44006">
        <ele>42.44</ele>
        <time>2013-06-14T06:48:15Z</time>
      </trkpt>
      <trkpt lat="48.73421" lon="-3.44">
        <ele>42.92</ele>
        <time>2013-06-14T06:48:16Z</time>
      </trkpt>
      <trkpt lat="48.73422" lon="-3.43993">
        <ele>43.4</ele>
        <time>2013-06-14T06:48:17Z</time>
      </trkpt>
      <trkpt lat="48.73422" lon="-3.43987">
        <ele>43.4</ele>
        <time>2013-06-14T06:48:18Z</time>
      </trkpt>
      <trkpt lat="48.73423" lon="-3.4398">
        <ele>43.4</ele>
        <time>2013-06-14T06:48:19Z</time>
      </trkpt>
      <trkpt lat="48.73424" lon="-3.43973">
        <ele>43.88</ele>
        <time>2013-06-14T06:48:20Z</time>
      </trkpt>
      <trkpt lat="48.73428" lon="-3.4394">
        <ele>44.84</ele>
        <time>2013-06-14T06:48:25Z</time>
      </trkpt>
      <trkpt lat="48.73434" lon="-3.43897">
        <ele>45.32</ele>
        <time>2013-06-14T06:48:31Z</time>
      </trkpt>
      <trkpt lat="48.73434" lon="-3.4389">
        <ele>45.8</ele>
        <time>2013-06-14T06:48:32Z</time>
      </trkpt>
      <trkpt lat="48.73433" lon="-3.43884">
        <ele>45.8</ele>
        <time>2013-06-14T06:48:33Z</time>
      </trkpt>
      <trkpt lat="48.73434" lon="-3.43866">
        <ele>46.76</ele>
        <time>2013-06-14T06:48:36Z</time>
      </trkpt>
      <trkpt lat="48.73437" lon="-3.4386">
        <ele>46.76</ele>
        <time>2013-06-14T06:48:37Z</time>
      </trkpt>
      <trkpt lat="48.73441" lon="-3.43857">
        <ele>47.24</ele>
        <time>2013-06-14T06:48:38Z</time>
      </trkpt>
      <trkpt lat="48.73445" lon="-3.43854">
        <ele>47.24</ele>
        <time>2013-06-14T06:48:39Z</time>
      </trkpt>
      <trkpt lat="48.73449" lon="-3.43851">
        <ele>47.72</ele>
        <time>2013-06-14T06:48:40Z</time>
      </trkpt>
      <trkpt lat="48.73452" lon="-3.43846">
        <ele>47.72</ele>
        <time>2013-06-14T06:48:41Z</time>
      </trkpt>
      <trkpt lat="48.73455" lon="-3.43841">
        <ele>47.72</ele>
        <time>2013-06-14T06:48:42Z</time>
      </trkpt>
      <trkpt lat="48.73457" lon="-3.43836">
        <ele>48.2</ele>
        <time>2013-06-14T06:48:43Z</time>
      </trkpt>
      <trkpt lat="48.73459" lon="-3.4383">
        <ele>48.2</ele>
        <time>2013-06-14T06:48:44Z</time>
      </trkpt>
      <trkpt lat="48.73497" lon="-3.43744">
        <ele>50.61</ele>
        <time>2013-06-14T06:48:59Z</time>
      </trkpt>
      <trkpt lat="48.73499" lon="-3.43731">
        <ele>50.13</ele>
        <time>2013-06-14T06:49:08Z</time>
      </trkpt>
      <trkpt lat="48.73499" lon="-3.43728">
        <ele>50.13</ele>
        <time>2013-06-14T06:49:09Z</time>
      </trkpt>
      <trkpt lat="48.735" lon="-3.43726">
        <ele>50.13</ele>
        <time>2013-06-14T06:49:10Z</time>
      </trkpt>
      <trkpt lat="48.73499" lon="-3.43724">
        <ele>50.61</ele>
        <time>2013-06-14T06:49:11Z</time>
      </trkpt>
      <trkpt lat="48.73499" lon="-3.43721">
        <ele>50.61</ele>
        <time>2013-06-14T06:49:12Z</time>
      </trkpt>
      <trkpt lat="48.73498" lon="-3.43717">
        <ele>51.09</ele>
        <time>2013-06-14T06:49:13Z</time>
      </trkpt>
      <trkpt lat="48.73496" lon="-3.43712">
        <ele>51.09</ele>
        <time>2013-06-14T06:49:14Z</time>
      </trkpt>
      <trkpt lat="48.73496" lon="-3.43707">
        <ele>51.09</ele>
        <time>2013-06-14T06:49:15Z</time>
      </trkpt>
      <trkpt lat="48.73495" lon="-3.43701">
        <ele>51.57</ele>
        <time>2013-06-14T06:49:16Z</time>
      </trkpt>
      <trkpt lat="48.73495" lon="-3.43694">
        <ele>51.09</ele>
        <time>2013-06-14T06:49:17Z</time>
      </trkpt>
      <trkpt lat="48.73495" lon="-3.43687">
        <ele>51.57</ele>
        <time>2013-06-14T06:49:18Z</time>
      </trkpt>
      <trkpt lat="48.73496" lon="-3.43679">
        <ele>51.57</ele>
        <time>2013-06-14T06:49:19Z</time>
      </trkpt>
      <trkpt lat="48.73498" lon="-3.43672">
        <ele>51.57</ele>
        <time>2013-06-14T06:49:20Z</time>
      </trkpt>
      <trkpt lat="48.73501" lon="-3.43665">
        <ele>51.57</ele>
        <time>2013-06-14T06:49:21Z</time>
      </trkpt>
      <trkpt lat="48.73504" lon="-3.43659">
        <ele>51.09</ele>
        <time>2013-06-14T06:49:22Z</time>
      </trkpt>
      <trkpt lat="48.73505" lon="-3.43651">
        <ele>51.57</ele>
        <time>2013-06-14T06:49:23Z</time>
      </trkpt>
      <trkpt lat="48.73505" lon="-3.43644">
        <ele>51.57</ele>
        <time>2013-06-14T06:49:24Z</time>
      </trkpt>
      <trkpt lat="48.73503" lon="-3.43637">
        <ele>51.57</ele>
        <time>2013-06-14T06:49:25Z</time>
      </trkpt>
      <trkpt lat="48.735" lon="-3.43632">
        <ele>52.05</ele>
        <time>2013-06-14T06:49:26Z</time>
      </trkpt>
      <trkpt lat="48.73496" lon="-3.43628">
        <ele>52.05</ele>
        <time>2013-06-14T06:49:27Z</time>
      </trkpt>
      <trkpt lat="48.73492" lon="-3.43626">
        <ele>52.05</ele>
        <time>2013-06-14T06:49:28Z</time>
      </trkpt>
      <trkpt lat="48.73487" lon="-3.43626">
        <ele>52.05</ele>
        <time>2013-06-14T06:49:29Z</time>
      </trkpt>
      <trkpt lat="48.73483" lon="-3.43625">
        <ele>52.53</ele>
        <time>2013-06-14T06:49:30Z</time>
      </trkpt>
      <trkpt lat="48.73478" lon="-3.43624">
        <ele>52.53</ele>
        <time>2013-06-14T06:49:31Z</time>
      </trkpt>
      <trkpt lat="48.73473" lon="-3.43622">
        <ele>52.53</ele>
        <time>2013-06-14T06:49:32Z</time>
      </trkpt>
      <trkpt lat="48.73469" lon="-3.43619">
        <ele>53.01</ele>
        <time>2013-06-14T06:49:33Z</time>
      </trkpt>
      <trkpt lat="48.73464" lon="-3.43616">
        <ele>53.01</ele>
        <time>2013-06-14T06:49:34Z</time>
      </trkpt>
      <trkpt lat="48.7346" lon="-3.43612">
        <ele>53.01</ele>
        <time>2013-06-14T06:49:35Z</time>
      </trkpt>
      <trkpt lat="48.73456" lon="-3.43608">
        <ele>53.49</ele>
        <time>2013-06-14T06:49:36Z</time>
      </trkpt>
      <trkpt lat="48.73453" lon="-3.43604">
        <ele>53.49</ele>
        <time>2013-06-14T06:49:37Z</time>
      </trkpt>
      <trkpt lat="48.7342" lon="-3.43541">
        <ele>55.41</ele>
        <time>2013-06-14T06:49:48Z</time>
      </trkpt>
      <trkpt lat="48.73419" lon="-3.43534">
        <ele>55.41</ele>
        <time>2013-06-14T06:49:49Z</time>
      </trkpt>
      <trkpt lat="48.73417" lon="-3.43527">
        <ele>55.41</ele>
        <time>2013-06-14T06:49:50Z</time>
      </trkpt>
      <trkpt lat="48.73417" lon="-3.4352">
        <ele>55.41</ele>
        <time>2013-06-14T06:49:51Z</time>
      </trkpt>
      <trkpt lat="48.73416" lon="-3.43513">
        <ele>55.41</ele>
        <time>2013-06-14T06:49:52Z</time>
      </trkpt>
      <trkpt lat="48.73403" lon="-3.43394">
        <ele>57.82</ele>
        <time>2013-06-14T06:50:08Z</time>
      </trkpt>
      <trkpt lat="48.73402" lon="-3.43386">
        <ele>57.82</ele>
        <time>2013-06-14T06:50:09Z</time>
      </trkpt>
      <trkpt lat="48.73396" lon="-3.43336">
        <ele>59.26</ele>
        <time>2013-06-14T06:50:16Z</time>
      </trkpt>
      <trkpt lat="48.73394" lon="-3.4333">
        <ele>59.74</ele>
        <time>2013-06-14T06:50:17Z</time>
      </trkpt>
      <trkpt lat="48.73392" lon="-3.43325">
        <ele>59.26</ele>
        <time>2013-06-14T06:50:18Z</time>
      </trkpt>
      <trkpt lat="48.73389" lon="-3.43319">
        <ele>60.22</ele>
        <time>2013-06-14T06:50:19Z</time>
      </trkpt>
      <trkpt lat="48.73388" lon="-3.43313">
        <ele>60.22</ele>
        <time>2013-06-14T06:50:20Z</time>
      </trkpt>
      <trkpt lat="48.73388" lon="-3.43307">
        <ele>60.7</ele>
        <time>2013-06-14T06:50:21Z</time>
      </trkpt>
      <trkpt lat="48.73388" lon="-3.43301">
        <ele>60.7</ele>
        <time>2013-06-14T06:50:22Z</time>
      </trkpt>
      <trkpt lat="48.7339" lon="-3.43295">
        <ele>61.18</ele>
        <time>2013-06-14T06:50:23Z</time>
      </trkpt>
      <trkpt lat="48.7339" lon="-3.43289">
        <ele>61.18</ele>
        <time>2013-06-14T06:50:24Z</time>
      </trkpt>
      <trkpt lat="48.7339" lon="-3.43282">
        <ele>61.66</ele>
        <time>2013-06-14T06:50:25Z</time>
      </trkpt>
      <trkpt lat="48.73389" lon="-3.43275">
        <ele>62.14</ele>
        <time>2013-06-14T06:50:26Z</time>
      </trkpt>
      <trkpt lat="48.73386" lon="-3.43248">
        <ele>63.58</ele>
        <time>2013-06-14T06:50:30Z</time>
      </trkpt>
      <trkpt lat="48.73385" lon="-3.43227">
        <ele>63.1</ele>
        <time>2013-06-14T06:50:33Z</time>
      </trkpt>
      <trkpt lat="48.73384" lon="-3.43166">
        <ele>65.03</ele>
        <time>2013-06-14T06:50:43Z</time>
      </trkpt>
      <trkpt lat="48.73384" lon="-3.43151">
        <ele>65.51</ele>
        <time>2013-06-14T06:50:45Z</time>
      </trkpt>
      <trkpt lat="48.73385" lon="-3.43143">
        <ele>65.51</ele>
        <time>2013-06-14T06:50:46Z</time>
      </trkpt>
      <trkpt lat="48.73388" lon="-3.43066">
        <ele>67.43</ele>
        <time>2013-06-14T06:50:56Z</time>
      </trkpt>
      <trkpt lat="48.73386" lon="-3.42982">
        <ele>67.91</ele>
        <time>2013-06-14T06:51:07Z</time>
      </trkpt>
      <trkpt lat="48.73368" lon="-3.42863">
        <ele>67.91</ele>
        <time>2013-06-14T06:51:23Z</time>
      </trkpt>
      <trkpt lat="48.73359" lon="-3.42742">
        <ele>65.99</ele>
        <time>2013-06-14T06:51:35Z</time>
      </trkpt>
      <trkpt lat="48.73351" lon="-3.42622">
        <ele>65.51</ele>
        <time>2013-06-14T06:51:47Z</time>
      </trkpt>
      <trkpt lat="48.73347" lon="-3.4258">
        <ele>65.99</ele>
        <time>2013-06-14T06:51:52Z</time>
      </trkpt>
      <trkpt lat="48.73347" lon="-3.42572">
        <ele>66.47</ele>
        <time>2013-06-14T06:51:53Z</time>
      </trkpt>
      <trkpt lat="48.73341" lon="-3.42431">
        <ele>67.43</ele>
        <time>2013-06-14T06:52:09Z</time>
      </trkpt>
      <trkpt lat="48.73342" lon="-3.42332">
        <ele>67.91</ele>
        <time>2013-06-14T06:52:21Z</time>
      </trkpt>
      <trkpt lat="48.73339" lon="-3.42208">
        <ele>66.95</ele>
        <time>2013-06-14T06:52:33Z</time>
      </trkpt>
      <trkpt lat="48.73341" lon="-3.42176">
        <ele>66.47</ele>
        <time>2013-06-14T06:52:36Z</time>
      </trkpt>
      <trkpt lat="48.73358" lon="-3.42037">
        <ele>63.1</ele>
        <time>2013-06-14T06:52:49Z</time>
      </trkpt>
      <trkpt lat="48.73356" lon="-3.42026">
        <ele>63.1</ele>
        <time>2013-06-14T06:52:50Z</time>
      </trkpt>
      <trkpt lat="48.73353" lon="-3.42015">
        <ele>63.1</ele>
        <time>2013-06-14T06:52:51Z</time>
      </trkpt>
      <trkpt lat="48.7335" lon="-3.42005">
        <ele>62.62</ele>
        <time>2013-06-14T06:52:52Z</time>
      </trkpt>
      <trkpt lat="48.73346" lon="-3.41997">
        <ele>62.62</ele>
        <time>2013-06-14T06:52:53Z</time>
      </trkpt>
      <trkpt lat="48.73342" lon="-3.41989">
        <ele>62.62</ele>
        <time>2013-06-14T06:52:54Z</time>
      </trkpt>
      <trkpt lat="48.73337" lon="-3.41983">
        <ele>63.1</ele>
        <time>2013-06-14T06:52:55Z</time>
      </trkpt>
      <trkpt lat="48.73333" lon="-3.41978">
        <ele>63.58</ele>
        <time>2013-06-14T06:52:56Z</time>
      </trkpt>
      <trkpt lat="48.73328" lon="-3.41973">
        <ele>63.58</ele>
        <time>2013-06-14T06:52:57Z</time>
      </trkpt>
      <trkpt lat="48.73296" lon="-3.41937">
        <ele>66.47</ele>
        <time>2013-06-14T06:53:06Z</time>
      </trkpt>
      <trkpt lat="48.73261" lon="-3.41869">
        <ele>69.83</ele>
        <time>2013-06-14T06:53:19Z</time>
      </trkpt>
      <trkpt lat="48.73236" lon="-3.41775">
        <ele>71.27</ele>
        <time>2013-06-14T06:53:33Z</time>
      </trkpt>
      <trkpt lat="48.73216" lon="-3.41664">
        <ele>72.72</ele>
        <time>2013-06-14T06:53:48Z</time>
      </trkpt>
      <trkpt lat="48.73208" lon="-3.41557">
        <ele>75.12</ele>
        <time>2013-06-14T06:54:02Z</time>
      </trkpt>
      <trkpt lat="48.73208" lon="-3.4155">
        <ele>75.12</ele>
        <time>2013-06-14T06:54:03Z</time>
      </trkpt>
      <trkpt lat="48.73212" lon="-3.41443">
        <ele>78</ele>
        <time>2013-06-14T06:54:18Z</time>
      </trkpt>
      <trkpt lat="48.7321" lon="-3.41292">
        <ele>77.52</ele>
        <time>2013-06-14T06:54:35Z</time>
      </trkpt>
      <trkpt lat="48.73194" lon="-3.41119">
        <ele>79.45</ele>
        <time>2013-06-14T06:54:55Z</time>
      </trkpt>
      <trkpt lat="48.7318" lon="-3.41028">
        <ele>80.41</ele>
        <time>2013-06-14T06:55:06Z</time>
      </trkpt>
      <trkpt lat="48.73178" lon="-3.41021">
        <ele>80.41</ele>
        <time>2013-06-14T06:55:07Z</time>
      </trkpt>
      <trkpt lat="48.73148" lon="-3.40875">
        <ele>80.41</ele>
        <time>2013-06-14T06:55:24Z</time>
      </trkpt>
      <trkpt lat="48.73111" lon="-3.40719">
        <ele>80.89</ele>
        <time>2013-06-14T06:55:42Z</time>
      </trkpt>
      <trkpt lat="48.73061" lon="-3.40605">
        <ele>83.77</ele>
        <time>2013-06-14T06:55:58Z</time>
      </trkpt>
      <trkpt lat="48.73051" lon="-3.40547">
        <ele>83.77</ele>
        <time>2013-06-14T06:56:05Z</time>
      </trkpt>
      <trkpt lat="48.7304" lon="-3.40417">
        <ele>84.73</ele>
        <time>2013-06-14T06:56:20Z</time>
      </trkpt>
      <trkpt lat="48.73024" lon="-3.40367">
        <ele>84.25</ele>
        <time>2013-06-14T06:56:26Z</time>
      </trkpt>
      <trkpt lat="48.73013" lon="-3.40287">
        <ele>83.29</ele>
        <time>2013-06-14T06:56:34Z</time>
      </trkpt>
      <trkpt lat="48.73004" lon="-3.40215">
        <ele>82.81</ele>
        <time>2013-06-14T06:56:41Z</time>
      </trkpt>
      <trkpt lat="48.72977" lon="-3.40092">
        <ele>84.73</ele>
        <time>2013-06-14T06:56:55Z</time>
      </trkpt>
      <trkpt lat="48.72949" lon="-3.39961">
        <ele>86.66</ele>
        <time>2013-06-14T06:57:11Z</time>
      </trkpt>
      <trkpt lat="48.72885" lon="-3.39799">
        <ele>87.62</ele>
        <time>2013-06-14T06:57:32Z</time>
      </trkpt>
      <trkpt lat="48.72832" lon="-3.39662">
        <ele>89.06</ele>
        <time>2013-06-14T06:57:50Z</time>
      </trkpt>
      <trkpt lat="48.72825" lon="-3.39505">
        <ele>88.58</ele>
        <time>2013-06-14T06:58:07Z</time>
      </trkpt>
      <trkpt lat="48.72835" lon="-3.39344">
        <ele>87.62</ele>
        <time>2013-06-14T06:58:23Z</time>
      </trkpt>
      <trkpt lat="48.72837" lon="-3.39171">
        <ele>87.62</ele>
        <time>2013-06-14T06:58:41Z</time>
      </trkpt>
      <trkpt lat="48.72855" lon="-3.39011">
        <ele>86.18</ele>
        <time>2013-06-14T06:58:57Z</time>
      </trkpt>
      <trkpt lat="48.72877" lon="-3.38841">
        <ele>84.25</ele>
        <time>2013-06-14T06:59:13Z</time>
      </trkpt>
      <trkpt lat="48.72918" lon="-3.38714">
        <ele>82.81</ele>
        <time>2013-06-14T06:59:26Z</time>
      </trkpt>
      <trkpt lat="48.7292" lon="-3.38704">
        <ele>82.81</ele>
        <time>2013-06-14T06:59:27Z</time>
      </trkpt>
      <trkpt lat="48.72921" lon="-3.38693">
        <ele>82.81</ele>
        <time>2013-06-14T06:59:28Z</time>
      </trkpt>
      <trkpt lat="48.72921" lon="-3.38683">
        <ele>83.29</ele>
        <time>2013-06-14T06:59:29Z</time>
      </trkpt>
      <trkpt lat="48.7292" lon="-3.38673">
        <ele>83.29</ele>
        <time>2013-06-14T06:59:30Z</time>
      </trkpt>
      <trkpt lat="48.72916" lon="-3.38591">
        <ele>84.73</ele>
        <time>2013-06-14T06:59:39Z</time>
      </trkpt>
      <trkpt lat="48.72915" lon="-3.38583">
        <ele>84.73</ele>
        <time>2013-06-14T06:59:40Z</time>
      </trkpt>
      <trkpt lat="48.72913" lon="-3.38576">
        <ele>84.73</ele>
        <time>2013-06-14T06:59:41Z</time>
      </trkpt>
      <trkpt lat="48.72909" lon="-3.3857">
        <ele>85.21</ele>
        <time>2013-06-14T06:59:42Z</time>
      </trkpt>
      <trkpt lat="48.72906" lon="-3.38564">
        <ele>84.73</ele>
        <time>2013-06-14T06:59:43Z</time>
      </trkpt>
      <trkpt lat="48.72903" lon="-3.3856">
        <ele>85.21</ele>
        <time>2013-06-14T06:59:44Z</time>
      </trkpt>
      <trkpt lat="48.72898" lon="-3.38559">
        <ele>85.21</ele>
        <time>2013-06-14T06:59:45Z</time>
      </trkpt>
      <trkpt lat="48.72894" lon="-3.38559">
        <ele>85.21</ele>
        <time>2013-06-14T06:59:46Z</time>
      </trkpt>
      <trkpt lat="48.72888" lon="-3.38561">
        <ele>85.21</ele>
        <time>2013-06-14T06:59:47Z</time>
      </trkpt>
      <trkpt lat="48.72882" lon="-3.38564">
        <ele>85.21</ele>
        <time>2013-06-14T06:59:48Z</time>
      </trkpt>
      <trkpt lat="48.72876" lon="-3.38566">
        <ele>85.21</ele>
        <time>2013-06-14T06:59:49Z</time>
      </trkpt>
      <trkpt lat="48.72816" lon="-3.38585">
        <ele>85.69</ele>
        <time>2013-06-14T06:59:59Z</time>
      </trkpt>
      <trkpt lat="48.7281" lon="-3.38588">
        <ele>85.69</ele>
        <time>2013-06-14T07:00:00Z</time>
      </trkpt>
      <trkpt lat="48.72804" lon="-3.38592">
        <ele>85.69</ele>
        <time>2013-06-14T07:00:01Z</time>
      </trkpt>
      <trkpt lat="48.72799" lon="-3.38597">
        <ele>86.18</ele>
        <time>2013-06-14T07:00:02Z</time>
      </trkpt>
      <trkpt lat="48.72795" lon="-3.38602">
        <ele>86.18</ele>
        <time>2013-06-14T07:00:03Z</time>
      </trkpt>
      <trkpt lat="48.7279" lon="-3.38608">
        <ele>86.18</ele>
        <time>2013-06-14T07:00:04Z</time>
      </trkpt>
      <trkpt lat="48.72725" lon="-3.38705">
        <ele>88.1</ele>
        <time>2013-06-14T07:00:20Z</time>
      </trkpt>
      <trkpt lat="48.72676" lon="-3.38835">
        <ele>89.06</ele>
        <time>2013-06-14T07:00:37Z</time>
      </trkpt>
      <trkpt lat="48.72631" lon="-3.38956">
        <ele>89.54</ele>
        <time>2013-06-14T07:00:53Z</time>
      </trkpt>
      <trkpt lat="48.72567" lon="-3.39084">
        <ele>90.02</ele>
        <time>2013-06-14T07:01:11Z</time>
      </trkpt>
      <trkpt lat="48.72501" lon="-3.39212">
        <ele>90.5</ele>
        <time>2013-06-14T07:01:29Z</time>
      </trkpt>
      <trkpt lat="48.72426" lon="-3.39372">
        <ele>90.02</ele>
        <time>2013-06-14T07:01:50Z</time>
      </trkpt>
      <trkpt lat="48.72336" lon="-3.395">
        <ele>87.62</ele>
        <time>2013-06-14T07:02:09Z</time>
      </trkpt>
      <trkpt lat="48.72281" lon="-3.39601">
        <ele>85.21</ele>
        <time>2013-06-14T07:02:21Z</time>
      </trkpt>
      <trkpt lat="48.72276" lon="-3.39608">
        <ele>85.21</ele>
        <time>2013-06-14T07:02:22Z</time>
      </trkpt>
      <trkpt lat="48.7227" lon="-3.39615">
        <ele>85.21</ele>
        <time>2013-06-14T07:02:23Z</time>
      </trkpt>
      <trkpt lat="48.72173" lon="-3.39682">
        <ele>82.81</ele>
        <time>2013-06-14T07:02:37Z</time>
      </trkpt>
      <trkpt lat="48.72073" lon="-3.39741">
        <ele>82.33</ele>
        <time>2013-06-14T07:02:52Z</time>
      </trkpt>
      <trkpt lat="48.71963" lon="-3.39802">
        <ele>81.37</ele>
        <time>2013-06-14T07:03:09Z</time>
      </trkpt>
      <trkpt lat="48.71879" lon="-3.3979">
        <ele>78.48</ele>
        <time>2013-06-14T07:03:20Z</time>
      </trkpt>
      <trkpt lat="48.71861" lon="-3.39789">
        <ele>78</ele>
        <time>2013-06-14T07:03:22Z</time>
      </trkpt>
      <trkpt lat="48.71763" lon="-3.39754">
        <ele>75.12</ele>
        <time>2013-06-14T07:03:34Z</time>
      </trkpt>
      <trkpt lat="48.71733" lon="-3.39742">
        <ele>74.64</ele>
        <time>2013-06-14T07:03:38Z</time>
      </trkpt>
      <trkpt lat="48.71726" lon="-3.39741">
        <ele>73.68</ele>
        <time>2013-06-14T07:03:39Z</time>
      </trkpt>
      <trkpt lat="48.71718" lon="-3.39741">
        <ele>73.68</ele>
        <time>2013-06-14T07:03:40Z</time>
      </trkpt>
      <trkpt lat="48.7171" lon="-3.39742">
        <ele>73.68</ele>
        <time>2013-06-14T07:03:41Z</time>
      </trkpt>
      <trkpt lat="48.71702" lon="-3.39744">
        <ele>73.68</ele>
        <time>2013-06-14T07:03:42Z</time>
      </trkpt>
      <trkpt lat="48.71695" lon="-3.39747">
        <ele>73.68</ele>
        <time>2013-06-14T07:03:43Z</time>
      </trkpt>
      <trkpt lat="48.71687" lon="-3.39751">
        <ele>73.68</ele>
        <time>2013-06-14T07:03:44Z</time>
      </trkpt>
      <trkpt lat="48.7168" lon="-3.39756">
        <ele>73.2</ele>
        <time>2013-06-14T07:03:45Z</time>
      </trkpt>
      <trkpt lat="48.71673" lon="-3.39761">
        <ele>72.72</ele>
        <time>2013-06-14T07:03:46Z</time>
      </trkpt>
      <trkpt lat="48.71611" lon="-3.39797">
        <ele>75.6</ele>
        <time>2013-06-14T07:03:57Z</time>
      </trkpt>
      <trkpt lat="48.71592" lon="-3.39801">
        <ele>76.56</ele>
        <time>2013-06-14T07:04:01Z</time>
      </trkpt>
      <trkpt lat="48.71561" lon="-3.39807">
        <ele>77.52</ele>
        <time>2013-06-14T07:04:07Z</time>
      </trkpt>
      <trkpt lat="48.71556" lon="-3.39809">
        <ele>77.04</ele>
        <time>2013-06-14T07:04:08Z</time>
      </trkpt>
      <trkpt lat="48.7155" lon="-3.39813">
        <ele>77.52</ele>
        <time>2013-06-14T07:04:09Z</time>
      </trkpt>
      <trkpt lat="48.71514" lon="-3.39845">
        <ele>77.52</ele>
        <time>2013-06-14T07:04:16Z</time>
      </trkpt>
      <trkpt lat="48.7151" lon="-3.39851">
        <ele>77.04</ele>
        <time>2013-06-14T07:04:17Z</time>
      </trkpt>
      <trkpt lat="48.71501" lon="-3.39862">
        <ele>77.04</ele>
        <time>2013-06-14T07:04:19Z</time>
      </trkpt>
      <trkpt lat="48.71496" lon="-3.39866">
        <ele>77.04</ele>
        <time>2013-06-14T07:04:20Z</time>
      </trkpt>
      <trkpt lat="48.7149" lon="-3.39867">
        <ele>76.56</ele>
        <time>2013-06-14T07:04:21Z</time>
      </trkpt>
      <trkpt lat="48.71484" lon="-3.39866">
        <ele>76.56</ele>
        <time>2013-06-14T07:04:22Z</time>
      </trkpt>
      <trkpt lat="48.71477" lon="-3.39865">
        <ele>76.56</ele>
        <time>2013-06-14T07:04:23Z</time>
      </trkpt>
      <trkpt lat="48.71471" lon="-3.39864">
        <ele>76.56</ele>
        <time>2013-06-14T07:04:24Z</time>
      </trkpt>
      <trkpt lat="48.71464" lon="-3.39865">
        <ele>76.08</ele>
        <time>2013-06-14T07:04:25Z</time>
      </trkpt>
      <trkpt lat="48.71355" lon="-3.39882">
        <ele>73.2</ele>
        <time>2013-06-14T07:04:40Z</time>
      </trkpt>
      <trkpt lat="48.71253" lon="-3.39899">
        <ele>75.12</ele>
        <time>2013-06-14T07:04:57Z</time>
      </trkpt>
      <trkpt lat="48.71248" lon="-3.39903">
        <ele>75.12</ele>
        <time>2013-06-14T07:04:58Z</time>
      </trkpt>
      <trkpt lat="48.71174" lon="-3.39993">
        <ele>77.52</ele>
        <time>2013-06-14T07:05:14Z</time>
      </trkpt>
      <trkpt lat="48.71141" lon="-3.40117">
        <ele>78.97</ele>
        <time>2013-06-14T07:05:29Z</time>
      </trkpt>
      <trkpt lat="48.71086" lon="-3.40218">
        <ele>80.89</ele>
        <time>2013-06-14T07:05:44Z</time>
      </trkpt>
      <trkpt lat="48.71013" lon="-3.40263">
        <ele>83.77</ele>
        <time>2013-06-14T07:05:58Z</time>
      </trkpt>
      <trkpt lat="48.71003" lon="-3.40264">
        <ele>84.25</ele>
        <time>2013-06-14T07:06:00Z</time>
      </trkpt>
      <trkpt lat="48.70962" lon="-3.40265">
        <ele>87.14</ele>
        <time>2013-06-14T07:06:08Z</time>
      </trkpt>
      <trkpt lat="48.7088" lon="-3.40257">
        <ele>89.06</ele>
        <time>2013-06-14T07:06:23Z</time>
      </trkpt>
      <trkpt lat="48.70774" lon="-3.40239">
        <ele>90.98</ele>
        <time>2013-06-14T07:06:42Z</time>
      </trkpt>
      <trkpt lat="48.70675" lon="-3.40211">
        <ele>90.98</ele>
        <time>2013-06-14T07:06:59Z</time>
      </trkpt>
      <trkpt lat="48.70593" lon="-3.40215">
        <ele>90.5</ele>
        <time>2013-06-14T07:07:12Z</time>
      </trkpt>
      <trkpt lat="48.70515" lon="-3.40243">
        <ele>89.54</ele>
        <time>2013-06-14T07:07:23Z</time>
      </trkpt>
      <trkpt lat="48.70414" lon="-3.40283">
        <ele>88.58</ele>
        <time>2013-06-14T07:07:38Z</time>
      </trkpt>
      <trkpt lat="48.70311" lon="-3.40283">
        <ele>87.14</ele>
        <time>2013-06-14T07:07:53Z</time>
      </trkpt>
      <trkpt lat="48.70263" lon="-3.40285">
        <ele>87.62</ele>
        <time>2013-06-14T07:08:00Z</time>
      </trkpt>
      <trkpt lat="48.70216" lon="-3.40302">
        <ele>89.54</ele>
        <time>2013-06-14T07:08:08Z</time>
      </trkpt>
      <trkpt lat="48.70136" lon="-3.40321">
        <ele>92.42</ele>
        <time>2013-06-14T07:08:22Z</time>
      </trkpt>
      <trkpt lat="48.70039" lon="-3.40329">
        <ele>94.83</ele>
        <time>2013-06-14T07:08:39Z</time>
      </trkpt>
      <trkpt lat="48.69934" lon="-3.40341">
        <ele>95.79</ele>
        <time>2013-06-14T07:08:57Z</time>
      </trkpt>
      <trkpt lat="48.69838" lon="-3.40364">
        <ele>96.27</ele>
        <time>2013-06-14T07:09:13Z</time>
      </trkpt>
      <trkpt lat="48.69737" lon="-3.40406">
        <ele>95.31</ele>
        <time>2013-06-14T07:09:29Z</time>
      </trkpt>
      <trkpt lat="48.6965" lon="-3.40411">
        <ele>92.42</ele>
        <time>2013-06-14T07:09:41Z</time>
      </trkpt>
      <trkpt lat="48.69629" lon="-3.40414">
        <ele>91.94</ele>
        <time>2013-06-14T07:09:44Z</time>
      </trkpt>
      <trkpt lat="48.69536" lon="-3.40397">
        <ele>90.5</ele>
        <time>2013-06-14T07:09:57Z</time>
      </trkpt>
      <trkpt lat="48.69458" lon="-3.40379">
        <ele>89.54</ele>
        <time>2013-06-14T07:10:08Z</time>
      </trkpt>
      <trkpt lat="48.6945" lon="-3.40378">
        <ele>89.54</ele>
        <time>2013-06-14T07:10:09Z</time>
      </trkpt>
      <trkpt lat="48.69355" lon="-3.40361">
        <ele>88.1</ele>
        <time>2013-06-14T07:10:23Z</time>
      </trkpt>
      <trkpt lat="48.6927" lon="-3.40299">
        <ele>85.69</ele>
        <time>2013-06-14T07:10:36Z</time>
      </trkpt>
      <trkpt lat="48.6916" lon="-3.40194">
        <ele>82.33</ele>
        <time>2013-06-14T07:10:53Z</time>
      </trkpt>
      <trkpt lat="48.69056" lon="-3.40108">
        <ele>80.41</ele>
        <time>2013-06-14T07:11:09Z</time>
      </trkpt>
      <trkpt lat="48.68956" lon="-3.40045">
        <ele>78.97</ele>
        <time>2013-06-14T07:11:24Z</time>
      </trkpt>
      <trkpt lat="48.68859" lon="-3.40025">
        <ele>78.97</ele>
        <time>2013-06-14T07:11:39Z</time>
      </trkpt>
      <trkpt lat="48.68757" lon="-3.39995">
        <ele>78.97</ele>
        <time>2013-06-14T07:11:55Z</time>
      </trkpt>
      <trkpt lat="48.68647" lon="-3.39962">
        <ele>79.45</ele>
        <time>2013-06-14T07:12:12Z</time>
      </trkpt>
      <trkpt lat="48.6855" lon="-3.39959">
        <ele>79.93</ele>
        <time>2013-06-14T07:12:27Z</time>
      </trkpt>
      <trkpt lat="48.68467" lon="-3.39972">
        <ele>79.93</ele>
        <time>2013-06-14T07:12:40Z</time>
      </trkpt>
      <trkpt lat="48.68461" lon="-3.3997">
        <ele>79.93</ele>
        <time>2013-06-14T07:12:41Z</time>
      </trkpt>
      <trkpt lat="48.68455" lon="-3.39967">
        <ele>79.93</ele>
        <time>2013-06-14T07:12:42Z</time>
      </trkpt>
      <trkpt lat="48.68449" lon="-3.39963">
        <ele>79.93</ele>
        <time>2013-06-14T07:12:43Z</time>
      </trkpt>
      <trkpt lat="48.68443" lon="-3.39959">
        <ele>79.93</ele>
        <time>2013-06-14T07:12:44Z</time>
      </trkpt>
      <trkpt lat="48.68372" lon="-3.39907">
        <ele>80.89</ele>
        <time>2013-06-14T07:12:57Z</time>
      </trkpt>
      <trkpt lat="48.68248" lon="-3.39857">
        <ele>78.97</ele>
        <time>2013-06-14T07:13:16Z</time>
      </trkpt>
      <trkpt lat="48.68171" lon="-3.39779">
        <ele>78.97</ele>
        <time>2013-06-14T07:13:30Z</time>
      </trkpt>
      <trkpt lat="48.68069" lon="-3.39682">
        <ele>80.41</ele>
        <time>2013-06-14T07:13:49Z</time>
      </trkpt>
      <trkpt lat="48.67984" lon="-3.39609">
        <ele>83.29</ele>
        <time>2013-06-14T07:14:06Z</time>
      </trkpt>
      <trkpt lat="48.67979" lon="-3.39606">
        <ele>83.29</ele>
        <time>2013-06-14T07:14:07Z</time>
      </trkpt>
      <trkpt lat="48.6792" lon="-3.39589">
        <ele>86.18</ele>
        <time>2013-06-14T07:14:19Z</time>
      </trkpt>
      <trkpt lat="48.67842" lon="-3.39583">
        <ele>86.66</ele>
        <time>2013-06-14T07:14:33Z</time>
      </trkpt>
      <trkpt lat="48.67764" lon="-3.39565">
        <ele>86.18</ele>
        <time>2013-06-14T07:14:47Z</time>
      </trkpt>
      <trkpt lat="48.67664" lon="-3.39528">
        <ele>87.62</ele>
        <time>2013-06-14T07:15:05Z</time>
      </trkpt>
      <trkpt lat="48.67574" lon="-3.39476">
        <ele>87.62</ele>
        <time>2013-06-14T07:15:21Z</time>
      </trkpt>
      <trkpt lat="48.67494" lon="-3.39452">
        <ele>88.58</ele>
        <time>2013-06-14T07:15:35Z</time>
      </trkpt>
      <trkpt lat="48.67396" lon="-3.39404">
        <ele>89.54</ele>
        <time>2013-06-14T07:15:53Z</time>
      </trkpt>
      <trkpt lat="48.67311" lon="-3.39393">
        <ele>90.98</ele>
        <time>2013-06-14T07:16:08Z</time>
      </trkpt>
      <trkpt lat="48.67228" lon="-3.39423">
        <ele>92.9</ele>
        <time>2013-06-14T07:16:24Z</time>
      </trkpt>
      <trkpt lat="48.67149" lon="-3.39437">
        <ele>93.87</ele>
        <time>2013-06-14T07:16:39Z</time>
      </trkpt>
      <trkpt lat="48.67069" lon="-3.39458">
        <ele>94.83</ele>
        <time>2013-06-14T07:16:54Z</time>
      </trkpt>
      <trkpt lat="48.67063" lon="-3.3946">
        <ele>94.83</ele>
        <time>2013-06-14T07:16:55Z</time>
      </trkpt>
      <trkpt lat="48.67053" lon="-3.39467">
        <ele>94.83</ele>
        <time>2013-06-14T07:16:57Z</time>
      </trkpt>
      <trkpt lat="48.67049" lon="-3.39472">
        <ele>94.83</ele>
        <time>2013-06-14T07:16:58Z</time>
      </trkpt>
      <trkpt lat="48.67045" lon="-3.39478">
        <ele>95.31</ele>
        <time>2013-06-14T07:16:59Z</time>
      </trkpt>
      <trkpt lat="48.67041" lon="-3.39485">
        <ele>95.31</ele>
        <time>2013-06-14T07:17:00Z</time>
      </trkpt>
      <trkpt lat="48.67038" lon="-3.39492">
        <ele>94.83</ele>
        <time>2013-06-14T07:17:01Z</time>
      </trkpt>
      <trkpt lat="48.67008" lon="-3.39564">
        <ele>95.79</ele>
        <time>2013-06-14T07:17:11Z</time>
      </trkpt>
      <trkpt lat="48.67004" lon="-3.39568">
        <ele>95.31</ele>
        <time>2013-06-14T07:17:12Z</time>
      </trkpt>
      <trkpt lat="48.66999" lon="-3.3957">
        <ele>95.79</ele>
        <time>2013-06-14T07:17:13Z</time>
      </trkpt>
      <trkpt lat="48.66993" lon="-3.39572">
        <ele>95.79</ele>
        <time>2013-06-14T07:17:14Z</time>
      </trkpt>
      <trkpt lat="48.66988" lon="-3.39572">
        <ele>96.27</ele>
        <time>2013-06-14T07:17:15Z</time>
      </trkpt>
      <trkpt lat="48.66983" lon="-3.39573">
        <ele>95.79</ele>
        <time>2013-06-14T07:17:16Z</time>
      </trkpt>
      <trkpt lat="48.66978" lon="-3.39574">
        <ele>95.79</ele>
        <time>2013-06-14T07:17:17Z</time>
      </trkpt>
      <trkpt lat="48.66972" lon="-3.39576">
        <ele>95.79</ele>
        <time>2013-06-14T07:17:18Z</time>
      </trkpt>
      <trkpt lat="48.66901" lon="-3.3961">
        <ele>97.23</ele>
        <time>2013-06-14T07:17:31Z</time>
      </trkpt>
      <trkpt lat="48.66896" lon="-3.39612">
        <ele>97.23</ele>
        <time>2013-06-14T07:17:32Z</time>
      </trkpt>
      <trkpt lat="48.66891" lon="-3.39616">
        <ele>97.23</ele>
        <time>2013-06-14T07:17:33Z</time>
      </trkpt>
      <trkpt lat="48.66886" lon="-3.39621">
        <ele>97.23</ele>
        <time>2013-06-14T07:17:34Z</time>
      </trkpt>
      <trkpt lat="48.66882" lon="-3.39626">
        <ele>97.23</ele>
        <time>2013-06-14T07:17:35Z</time>
      </trkpt>
      <trkpt lat="48.66878" lon="-3.39632">
        <ele>97.23</ele>
        <time>2013-06-14T07:17:36Z</time>
      </trkpt>
      <trkpt lat="48.66875" lon="-3.39639">
        <ele>97.23</ele>
        <time>2013-06-14T07:17:37Z</time>
      </trkpt>
      <trkpt lat="48.66872" lon="-3.39646">
        <ele>97.71</ele>
        <time>2013-06-14T07:17:38Z</time>
      </trkpt>
      <trkpt lat="48.66869" lon="-3.39654">
        <ele>97.23</ele>
        <time>2013-06-14T07:17:39Z</time>
      </trkpt>
      <trkpt lat="48.66867" lon="-3.39662">
        <ele>97.71</ele>
        <time>2013-06-14T07:17:40Z</time>
      </trkpt>
      <trkpt lat="48.66862" lon="-3.39677">
        <ele>98.19</ele>
        <time>2013-06-14T07:17:42Z</time>
      </trkpt>
      <trkpt lat="48.66859" lon="-3.39683">
        <ele>98.19</ele>
        <time>2013-06-14T07:17:43Z</time>
      </trkpt>
      <trkpt lat="48.66855" lon="-3.39689">
        <ele>98.19</ele>
        <time>2013-06-14T07:17:44Z</time>
      </trkpt>
      <trkpt lat="48.66851" lon="-3.39693">
        <ele>98.19</ele>
        <time>2013-06-14T07:17:45Z</time>
      </trkpt>
      <trkpt lat="48.66847" lon="-3.39697">
        <ele>98.67</ele>
        <time>2013-06-14T07:17:46Z</time>
      </trkpt>
      <trkpt lat="48.66833" lon="-3.39705">
        <ele>99.15</ele>
        <time>2013-06-14T07:17:49Z</time>
      </trkpt>
      <trkpt lat="48.66771" lon="-3.39726">
        <ele>101.08</ele>
        <time>2013-06-14T07:18:02Z</time>
      </trkpt>
      <trkpt lat="48.66748" lon="-3.39734">
        <ele>102.04</ele>
        <time>2013-06-14T07:18:07Z</time>
      </trkpt>
      <trkpt lat="48.66697" lon="-3.39744">
        <ele>103.48</ele>
        <time>2013-06-14T07:18:17Z</time>
      </trkpt>
      <trkpt lat="48.66644" lon="-3.39729">
        <ele>104.92</ele>
        <time>2013-06-14T07:18:27Z</time>
      </trkpt>
      <trkpt lat="48.66639" lon="-3.39727">
        <ele>104.92</ele>
        <time>2013-06-14T07:18:28Z</time>
      </trkpt>
      <trkpt lat="48.66555" lon="-3.39708">
        <ele>106.84</ele>
        <time>2013-06-14T07:18:43Z</time>
      </trkpt>
      <trkpt lat="48.66455" lon="-3.3971">
        <ele>109.25</ele>
        <time>2013-06-14T07:19:01Z</time>
      </trkpt>
      <trkpt lat="48.66445" lon="-3.39714">
        <ele>109.25</ele>
        <time>2013-06-14T07:19:03Z</time>
      </trkpt>
      <trkpt lat="48.66439" lon="-3.39716">
        <ele>109.25</ele>
        <time>2013-06-14T07:19:04Z</time>
      </trkpt>
      <trkpt lat="48.66434" lon="-3.39716">
        <ele>109.25</ele>
        <time>2013-06-14T07:19:05Z</time>
      </trkpt>
      <trkpt lat="48.66348" lon="-3.39696">
        <ele>109.73</ele>
        <time>2013-06-14T07:19:20Z</time>
      </trkpt>
      <trkpt lat="48.66253" lon="-3.39662">
        <ele>109.25</ele>
        <time>2013-06-14T07:19:36Z</time>
      </trkpt>
      <trkpt lat="48.66154" lon="-3.39618">
        <ele>108.77</ele>
        <time>2013-06-14T07:19:52Z</time>
      </trkpt>
      <trkpt lat="48.66058" lon="-3.39586">
        <ele>109.25</ele>
        <time>2013-06-14T07:20:07Z</time>
      </trkpt>
      <trkpt lat="48.65942" lon="-3.39535">
        <ele>108.77</ele>
        <time>2013-06-14T07:20:25Z</time>
      </trkpt>
      <trkpt lat="48.65823" lon="-3.39489">
        <ele>109.73</ele>
        <time>2013-06-14T07:20:44Z</time>
      </trkpt>
      <trkpt lat="48.65716" lon="-3.3948">
        <ele>109.73</ele>
        <time>2013-06-14T07:21:01Z</time>
      </trkpt>
      <trkpt lat="48.65606" lon="-3.39475">
        <ele>109.73</ele>
        <time>2013-06-14T07:21:18Z</time>
      </trkpt>
      <trkpt lat="48.65515" lon="-3.39484">
        <ele>109.25</ele>
        <time>2013-06-14T07:21:32Z</time>
      </trkpt>
      <trkpt lat="48.65459" lon="-3.39502">
        <ele>110.21</ele>
        <time>2013-06-14T07:21:41Z</time>
      </trkpt>
      <trkpt lat="48.65453" lon="-3.39503">
        <ele>110.21</ele>
        <time>2013-06-14T07:21:42Z</time>
      </trkpt>
      <trkpt lat="48.65349" lon="-3.39483">
        <ele>110.21</ele>
        <time>2013-06-14T07:21:58Z</time>
      </trkpt>
      <trkpt lat="48.65241" lon="-3.39458">
        <ele>110.69</ele>
        <time>2013-06-14T07:22:15Z</time>
      </trkpt>
      <trkpt lat="48.65127" lon="-3.3943">
        <ele>111.17</ele>
        <time>2013-06-14T07:22:33Z</time>
      </trkpt>
      <trkpt lat="48.65032" lon="-3.39405">
        <ele>111.65</ele>
        <time>2013-06-14T07:22:49Z</time>
      </trkpt>
      <trkpt lat="48.65016" lon="-3.39403">
        <ele>112.13</ele>
        <time>2013-06-14T07:22:52Z</time>
      </trkpt>
      <trkpt lat="48.65011" lon="-3.39404">
        <ele>112.13</ele>
        <time>2013-06-14T07:22:53Z</time>
      </trkpt>
      <trkpt lat="48.65006" lon="-3.39404">
        <ele>112.13</ele>
        <time>2013-06-14T07:22:54Z</time>
      </trkpt>
      <trkpt lat="48.65002" lon="-3.39404">
        <ele>112.13</ele>
        <time>2013-06-14T07:22:55Z</time>
      </trkpt>
      <trkpt lat="48.64999" lon="-3.39402">
        <ele>112.13</ele>
        <time>2013-06-14T07:22:56Z</time>
      </trkpt>
      <trkpt lat="48.64997" lon="-3.394">
        <ele>112.13</ele>
        <time>2013-06-14T07:22:57Z</time>
      </trkpt>
      <trkpt lat="48.64996" lon="-3.39398">
        <ele>111.65</ele>
        <time>2013-06-14T07:22:58Z</time>
      </trkpt>
      <trkpt lat="48.64995" lon="-3.39396">
        <ele>111.65</ele>
        <time>2013-06-14T07:22:59Z</time>
      </trkpt>
      <trkpt lat="48.64993" lon="-3.39392">
        <ele>112.13</ele>
        <time>2013-06-14T07:23:01Z</time>
      </trkpt>
      <trkpt lat="48.64993" lon="-3.39389">
        <ele>112.13</ele>
        <time>2013-06-14T07:23:02Z</time>
      </trkpt>
      <trkpt lat="48.64993" lon="-3.39384">
        <ele>112.13</ele>
        <time>2013-06-14T07:23:03Z</time>
      </trkpt>
      <trkpt lat="48.64994" lon="-3.39379">
        <ele>112.13</ele>
        <time>2013-06-14T07:23:04Z</time>
      </trkpt>
      <trkpt lat="48.64995" lon="-3.39373">
        <ele>112.13</ele>
        <time>2013-06-14T07:23:05Z</time>
      </trkpt>
      <trkpt lat="48.65009" lon="-3.39255">
        <ele>112.13</ele>
        <time>2013-06-14T07:23:19Z</time>
      </trkpt>
      <trkpt lat="48.65031" lon="-3.39061">
        <ele>113.09</ele>
        <time>2013-06-14T07:23:40Z</time>
      </trkpt>
      <trkpt lat="48.65016" lon="-3.38947">
        <ele>113.57</ele>
        <time>2013-06-14T07:23:52Z</time>
      </trkpt>
      <trkpt lat="48.65012" lon="-3.38939">
        <ele>113.57</ele>
        <time>2013-06-14T07:23:53Z</time>
      </trkpt>
      <trkpt lat="48.65008" lon="-3.38931">
        <ele>113.09</ele>
        <time>2013-06-14T07:23:54Z</time>
      </trkpt>
      <trkpt lat="48.65004" lon="-3.38924">
        <ele>113.09</ele>
        <time>2013-06-14T07:23:55Z</time>
      </trkpt>
      <trkpt lat="48.64999" lon="-3.38918">
        <ele>113.09</ele>
        <time>2013-06-14T07:23:56Z</time>
      </trkpt>
      <trkpt lat="48.64993" lon="-3.38913">
        <ele>113.09</ele>
        <time>2013-06-14T07:23:57Z</time>
      </trkpt>
      <trkpt lat="48.64988" lon="-3.38908">
        <ele>113.09</ele>
        <time>2013-06-14T07:23:58Z</time>
      </trkpt>
      <trkpt lat="48.64982" lon="-3.38904">
        <ele>113.57</ele>
        <time>2013-06-14T07:23:59Z</time>
      </trkpt>
      <trkpt lat="48.64867" lon="-3.38817">
        <ele>113.57</ele>
        <time>2013-06-14T07:24:19Z</time>
      </trkpt>
      <trkpt lat="48.64806" lon="-3.38736">
        <ele>113.09</ele>
        <time>2013-06-14T07:24:32Z</time>
      </trkpt>
      <trkpt lat="48.64733" lon="-3.38594">
        <ele>112.13</ele>
        <time>2013-06-14T07:24:50Z</time>
      </trkpt>
      <trkpt lat="48.64667" lon="-3.3844">
        <ele>109.73</ele>
        <time>2013-06-14T07:25:07Z</time>
      </trkpt>
      <trkpt lat="48.64634" lon="-3.38392">
        <ele>108.77</ele>
        <time>2013-06-14T07:25:13Z</time>
      </trkpt>
      <trkpt lat="48.64597" lon="-3.38355">
        <ele>108.77</ele>
        <time>2013-06-14T07:25:19Z</time>
      </trkpt>
      <trkpt lat="48.64587" lon="-3.38339">
        <ele>108.29</ele>
        <time>2013-06-14T07:25:21Z</time>
      </trkpt>
      <trkpt lat="48.64583" lon="-3.3833">
        <ele>108.29</ele>
        <time>2013-06-14T07:25:22Z</time>
      </trkpt>
      <trkpt lat="48.6458" lon="-3.38321">
        <ele>107.81</ele>
        <time>2013-06-14T07:25:23Z</time>
      </trkpt>
      <trkpt lat="48.64551" lon="-3.38174">
        <ele>106.84</ele>
        <time>2013-06-14T07:25:37Z</time>
      </trkpt>
      <trkpt lat="48.64512" lon="-3.38016">
        <ele>104.92</ele>
        <time>2013-06-14T07:25:52Z</time>
      </trkpt>
      <trkpt lat="48.64466" lon="-3.37917">
        <ele>107.32</ele>
        <time>2013-06-14T07:26:06Z</time>
      </trkpt>
      <trkpt lat="48.64392" lon="-3.37825">
        <ele>108.29</ele>
        <time>2013-06-14T07:26:22Z</time>
      </trkpt>
      <trkpt lat="48.64364" lon="-3.37792">
        <ele>108.77</ele>
        <time>2013-06-14T07:26:28Z</time>
      </trkpt>
      <trkpt lat="48.6436" lon="-3.37786">
        <ele>108.77</ele>
        <time>2013-06-14T07:26:29Z</time>
      </trkpt>
      <trkpt lat="48.64329" lon="-3.37697">
        <ele>106.36</ele>
        <time>2013-06-14T07:26:39Z</time>
      </trkpt>
      <trkpt lat="48.64305" lon="-3.37595">
        <ele>103</ele>
        <time>2013-06-14T07:26:48Z</time>
      </trkpt>
      <trkpt lat="48.64287" lon="-3.37476">
        <ele>103</ele>
        <time>2013-06-14T07:26:59Z</time>
      </trkpt>
      <trkpt lat="48.64285" lon="-3.37454">
        <ele>103.48</ele>
        <time>2013-06-14T07:27:02Z</time>
      </trkpt>
      <trkpt lat="48.64287" lon="-3.37427">
        <ele>104.44</ele>
        <time>2013-06-14T07:27:06Z</time>
      </trkpt>
      <trkpt lat="48.64288" lon="-3.3742">
        <ele>104.92</ele>
        <time>2013-06-14T07:27:07Z</time>
      </trkpt>
      <trkpt lat="48.64298" lon="-3.37363">
        <ele>106.84</ele>
        <time>2013-06-14T07:27:16Z</time>
      </trkpt>
      <trkpt lat="48.64299" lon="-3.37356">
        <ele>107.32</ele>
        <time>2013-06-14T07:27:17Z</time>
      </trkpt>
      <trkpt lat="48.64299" lon="-3.37322">
        <ele>108.77</ele>
        <time>2013-06-14T07:27:22Z</time>
      </trkpt>
      <trkpt lat="48.64298" lon="-3.37315">
        <ele>108.77</ele>
        <time>2013-06-14T07:27:23Z</time>
      </trkpt>
      <trkpt lat="48.64296" lon="-3.37309">
        <ele>109.25</ele>
        <time>2013-06-14T07:27:24Z</time>
      </trkpt>
      <trkpt lat="48.64292" lon="-3.37298">
        <ele>110.21</ele>
        <time>2013-06-14T07:27:26Z</time>
      </trkpt>
      <trkpt lat="48.6429" lon="-3.37293">
        <ele>110.21</ele>
        <time>2013-06-14T07:27:27Z</time>
      </trkpt>
      <trkpt lat="48.64287" lon="-3.37289">
        <ele>110.69</ele>
        <time>2013-06-14T07:27:28Z</time>
      </trkpt>
      <trkpt lat="48.64284" lon="-3.37285">
        <ele>111.17</ele>
        <time>2013-06-14T07:27:29Z</time>
      </trkpt>
      <trkpt lat="48.6428" lon="-3.37282">
        <ele>111.17</ele>
        <time>2013-06-14T07:27:30Z</time>
      </trkpt>
      <trkpt lat="48.64277" lon="-3.3728">
        <ele>111.65</ele>
        <time>2013-06-14T07:27:31Z</time>
      </trkpt>
      <trkpt lat="48.64273" lon="-3.37279">
        <ele>112.13</ele>
        <time>2013-06-14T07:27:32Z</time>
      </trkpt>
      <trkpt lat="48.64269" lon="-3.37279">
        <ele>112.13</ele>
        <time>2013-06-14T07:27:33Z</time>
      </trkpt>
      <trkpt lat="48.64252" lon="-3.37278">
        <ele>113.57</ele>
        <time>2013-06-14T07:27:37Z</time>
      </trkpt>
      <trkpt lat="48.64247" lon="-3.3728">
        <ele>113.57</ele>
        <time>2013-06-14T07:27:38Z</time>
      </trkpt>
      <trkpt lat="48.64192" lon="-3.37301">
        <ele>116.94</ele>
        <time>2013-06-14T07:27:50Z</time>
      </trkpt>
      <trkpt lat="48.64188" lon="-3.37302">
        <ele>117.42</ele>
        <time>2013-06-14T07:27:51Z</time>
      </trkpt>
      <trkpt lat="48.64183" lon="-3.37301">
        <ele>117.42</ele>
        <time>2013-06-14T07:27:52Z</time>
      </trkpt>
      <trkpt lat="48.64179" lon="-3.373">
        <ele>117.9</ele>
        <time>2013-06-14T07:27:53Z</time>
      </trkpt>
      <trkpt lat="48.64175" lon="-3.37299">
        <ele>118.38</ele>
        <time>2013-06-14T07:27:54Z</time>
      </trkpt>
      <trkpt lat="48.64171" lon="-3.37296">
        <ele>118.38</ele>
        <time>2013-06-14T07:27:55Z</time>
      </trkpt>
      <trkpt lat="48.64166" lon="-3.37293">
        <ele>118.86</ele>
        <time>2013-06-14T07:27:56Z</time>
      </trkpt>
      <trkpt lat="48.64162" lon="-3.3729">
        <ele>118.86</ele>
        <time>2013-06-14T07:27:57Z</time>
      </trkpt>
      <trkpt lat="48.64158" lon="-3.37286">
        <ele>119.34</ele>
        <time>2013-06-14T07:27:58Z</time>
      </trkpt>
      <trkpt lat="48.64155" lon="-3.37282">
        <ele>119.34</ele>
        <time>2013-06-14T07:27:59Z</time>
      </trkpt>
      <trkpt lat="48.64141" lon="-3.37264">
        <ele>120.3</ele>
        <time>2013-06-14T07:28:03Z</time>
      </trkpt>
      <trkpt lat="48.64138" lon="-3.37261">
        <ele>120.78</ele>
        <time>2013-06-14T07:28:04Z</time>
      </trkpt>
      <trkpt lat="48.6413" lon="-3.37253">
        <ele>121.26</ele>
        <time>2013-06-14T07:28:06Z</time>
      </trkpt>
      <trkpt lat="48.6411" lon="-3.37227">
        <ele>122.22</ele>
        <time>2013-06-14T07:28:12Z</time>
      </trkpt>
      <trkpt lat="48.6407" lon="-3.37179">
        <ele>124.15</ele>
        <time>2013-06-14T07:28:26Z</time>
      </trkpt>
      <trkpt lat="48.64071" lon="-3.37181">
        <ele>124.15</ele>
        <time>2013-06-14T07:28:27Z</time>
      </trkpt>
      <trkpt lat="48.64071" lon="-3.37184">
        <ele>124.15</ele>
        <time>2013-06-14T07:28:28Z</time>
      </trkpt>
      <trkpt lat="48.6407" lon="-3.37188">
        <ele>123.67</ele>
        <time>2013-06-14T07:28:29Z</time>
      </trkpt>
      <trkpt lat="48.64069" lon="-3.37191">
        <ele>123.67</ele>
        <time>2013-06-14T07:28:30Z</time>
      </trkpt>
      <trkpt lat="48.64068" lon="-3.37196">
        <ele>123.67</ele>
        <time>2013-06-14T07:28:31Z</time>
      </trkpt>
      <trkpt lat="48.64067" lon="-3.372">
        <ele>123.19</ele>
        <time>2013-06-14T07:28:32Z</time>
      </trkpt>
      <trkpt lat="48.64008" lon="-3.373">
        <ele>120.3</ele>
        <time>2013-06-14T07:28:43Z</time>
      </trkpt>
      <trkpt lat="48.63979" lon="-3.37373">
        <ele>116.94</ele>
        <time>2013-06-14T07:28:49Z</time>
      </trkpt>
      <trkpt lat="48.63975" lon="-3.37385">
        <ele>116.94</ele>
        <time>2013-06-14T07:28:50Z</time>
      </trkpt>
      <trkpt lat="48.63943" lon="-3.37507">
        <ele>113.57</ele>
        <time>2013-06-14T07:29:00Z</time>
      </trkpt>
      <trkpt lat="48.63923" lon="-3.37572">
        <ele>109.73</ele>
        <time>2013-06-14T07:29:05Z</time>
      </trkpt>
      <trkpt lat="48.63906" lon="-3.37684">
        <ele>109.73</ele>
        <time>2013-06-14T07:29:14Z</time>
      </trkpt>
      <trkpt lat="48.63882" lon="-3.37808">
        <ele>111.65</ele>
        <time>2013-06-14T07:29:28Z</time>
      </trkpt>
      <trkpt lat="48.63845" lon="-3.37947">
        <ele>113.57</ele>
        <time>2013-06-14T07:29:44Z</time>
      </trkpt>
      <trkpt lat="48.63808" lon="-3.38108">
        <ele>114.53</ele>
        <time>2013-06-14T07:30:01Z</time>
      </trkpt>
      <trkpt lat="48.6376" lon="-3.38232">
        <ele>115.98</ele>
        <time>2013-06-14T07:30:17Z</time>
      </trkpt>
      <trkpt lat="48.63746" lon="-3.38268">
        <ele>116.46</ele>
        <time>2013-06-14T07:30:22Z</time>
      </trkpt>
      <trkpt lat="48.63731" lon="-3.3837">
        <ele>116.46</ele>
        <time>2013-06-14T07:30:34Z</time>
      </trkpt>
      <trkpt lat="48.63719" lon="-3.38561">
        <ele>116.46</ele>
        <time>2013-06-14T07:30:54Z</time>
      </trkpt>
      <trkpt lat="48.63683" lon="-3.38721">
        <ele>116.46</ele>
        <time>2013-06-14T07:31:11Z</time>
      </trkpt>
      <trkpt lat="48.63676" lon="-3.38904">
        <ele>115.5</ele>
        <time>2013-06-14T07:31:28Z</time>
      </trkpt>
      <trkpt lat="48.63651" lon="-3.3907">
        <ele>112.61</ele>
        <time>2013-06-14T07:31:43Z</time>
      </trkpt>
      <trkpt lat="48.63631" lon="-3.39153">
        <ele>110.69</ele>
        <time>2013-06-14T07:31:50Z</time>
      </trkpt>
      <trkpt lat="48.63611" lon="-3.3928">
        <ele>107.32</ele>
        <time>2013-06-14T07:32:00Z</time>
      </trkpt>
      <trkpt lat="48.6359" lon="-3.39481">
        <ele>105.88</ele>
        <time>2013-06-14T07:32:18Z</time>
      </trkpt>
      <trkpt lat="48.63605" lon="-3.39588">
        <ele>104.92</ele>
        <time>2013-06-14T07:32:28Z</time>
      </trkpt>
      <trkpt lat="48.63605" lon="-3.39599">
        <ele>105.4</ele>
        <time>2013-06-14T07:32:29Z</time>
      </trkpt>
      <trkpt lat="48.63604" lon="-3.39609">
        <ele>104.92</ele>
        <time>2013-06-14T07:32:30Z</time>
      </trkpt>
      <trkpt lat="48.63584" lon="-3.39741">
        <ele>104.44</ele>
        <time>2013-06-14T07:32:43Z</time>
      </trkpt>
      <trkpt lat="48.63585" lon="-3.39751">
        <ele>104.44</ele>
        <time>2013-06-14T07:32:44Z</time>
      </trkpt>
      <trkpt lat="48.63586" lon="-3.39761">
        <ele>103.96</ele>
        <time>2013-06-14T07:32:45Z</time>
      </trkpt>
      <trkpt lat="48.63592" lon="-3.39781">
        <ele>103</ele>
        <time>2013-06-14T07:32:47Z</time>
      </trkpt>
      <trkpt lat="48.63596" lon="-3.39791">
        <ele>103</ele>
        <time>2013-06-14T07:32:48Z</time>
      </trkpt>
      <trkpt lat="48.636" lon="-3.39801">
        <ele>102.04</ele>
        <time>2013-06-14T07:32:49Z</time>
      </trkpt>
      <trkpt lat="48.63605" lon="-3.3981">
        <ele>101.56</ele>
        <time>2013-06-14T07:32:50Z</time>
      </trkpt>
      <trkpt lat="48.6361" lon="-3.39819">
        <ele>101.08</ele>
        <time>2013-06-14T07:32:51Z</time>
      </trkpt>
      <trkpt lat="48.63643" lon="-3.39877">
        <ele>99.63</ele>
        <time>2013-06-14T07:32:57Z</time>
      </trkpt>
      <trkpt lat="48.6365" lon="-3.39887">
        <ele>99.63</ele>
        <time>2013-06-14T07:32:58Z</time>
      </trkpt>
      <trkpt lat="48.63658" lon="-3.39895">
        <ele>99.15</ele>
        <time>2013-06-14T07:32:59Z</time>
      </trkpt>
      <trkpt lat="48.63666" lon="-3.39902">
        <ele>98.19</ele>
        <time>2013-06-14T07:33:00Z</time>
      </trkpt>
      <trkpt lat="48.63676" lon="-3.39907">
        <ele>97.71</ele>
        <time>2013-06-14T07:33:01Z</time>
      </trkpt>
      <trkpt lat="48.63686" lon="-3.3991">
        <ele>97.23</ele>
        <time>2013-06-14T07:33:02Z</time>
      </trkpt>
      <trkpt lat="48.63715" lon="-3.39921">
        <ele>96.27</ele>
        <time>2013-06-14T07:33:05Z</time>
      </trkpt>
      <trkpt lat="48.6378" lon="-3.39948">
        <ele>95.79</ele>
        <time>2013-06-14T07:33:13Z</time>
      </trkpt>
      <trkpt lat="48.63787" lon="-3.39954">
        <ele>95.31</ele>
        <time>2013-06-14T07:33:14Z</time>
      </trkpt>
      <trkpt lat="48.63794" lon="-3.39963">
        <ele>95.31</ele>
        <time>2013-06-14T07:33:15Z</time>
      </trkpt>
      <trkpt lat="48.63799" lon="-3.39972">
        <ele>94.35</ele>
        <time>2013-06-14T07:33:16Z</time>
      </trkpt>
      <trkpt lat="48.63805" lon="-3.39983">
        <ele>93.87</ele>
        <time>2013-06-14T07:33:17Z</time>
      </trkpt>
      <trkpt lat="48.63809" lon="-3.39994">
        <ele>93.87</ele>
        <time>2013-06-14T07:33:18Z</time>
      </trkpt>
      <trkpt lat="48.63817" lon="-3.40017">
        <ele>93.39</ele>
        <time>2013-06-14T07:33:20Z</time>
      </trkpt>
      <trkpt lat="48.6382" lon="-3.40029">
        <ele>92.9</ele>
        <time>2013-06-14T07:33:21Z</time>
      </trkpt>
      <trkpt lat="48.63823" lon="-3.40041">
        <ele>92.9</ele>
        <time>2013-06-14T07:33:22Z</time>
      </trkpt>
      <trkpt lat="48.63824" lon="-3.40054">
        <ele>92.9</ele>
        <time>2013-06-14T07:33:23Z</time>
      </trkpt>
      <trkpt lat="48.63825" lon="-3.40066">
        <ele>92.9</ele>
        <time>2013-06-14T07:33:24Z</time>
      </trkpt>
      <trkpt lat="48.63829" lon="-3.40199">
        <ele>92.42</ele>
        <time>2013-06-14T07:33:36Z</time>
      </trkpt>
      <trkpt lat="48.6383" lon="-3.40274">
        <ele>89.06</ele>
        <time>2013-06-14T07:33:42Z</time>
      </trkpt>
      <trkpt lat="48.63832" lon="-3.40332">
        <ele>86.66</ele>
        <time>2013-06-14T07:33:46Z</time>
      </trkpt>
      <trkpt lat="48.6383" lon="-3.4039">
        <ele>84.25</ele>
        <time>2013-06-14T07:33:50Z</time>
      </trkpt>
      <trkpt lat="48.63827" lon="-3.40404">
        <ele>84.25</ele>
        <time>2013-06-14T07:33:51Z</time>
      </trkpt>
      <trkpt lat="48.63824" lon="-3.40416">
        <ele>84.25</ele>
        <time>2013-06-14T07:33:52Z</time>
      </trkpt>
      <trkpt lat="48.63819" lon="-3.40428">
        <ele>84.25</ele>
        <time>2013-06-14T07:33:53Z</time>
      </trkpt>
      <trkpt lat="48.63814" lon="-3.40438">
        <ele>83.77</ele>
        <time>2013-06-14T07:33:54Z</time>
      </trkpt>
      <trkpt lat="48.63808" lon="-3.40448">
        <ele>84.25</ele>
        <time>2013-06-14T07:33:55Z</time>
      </trkpt>
      <trkpt lat="48.63802" lon="-3.40456">
        <ele>83.77</ele>
        <time>2013-06-14T07:33:56Z</time>
      </trkpt>
      <trkpt lat="48.63729" lon="-3.40599">
        <ele>82.81</ele>
        <time>2013-06-14T07:34:12Z</time>
      </trkpt>
      <trkpt lat="48.63695" lon="-3.407">
        <ele>79.93</ele>
        <time>2013-06-14T07:34:21Z</time>
      </trkpt>
      <trkpt lat="48.6369" lon="-3.40711">
        <ele>79.45</ele>
        <time>2013-06-14T07:34:22Z</time>
      </trkpt>
      <trkpt lat="48.63685" lon="-3.40721">
        <ele>78.97</ele>
        <time>2013-06-14T07:34:23Z</time>
      </trkpt>
      <trkpt lat="48.63678" lon="-3.4073">
        <ele>78.48</ele>
        <time>2013-06-14T07:34:24Z</time>
      </trkpt>
      <trkpt lat="48.63629" lon="-3.40794">
        <ele>75.12</ele>
        <time>2013-06-14T07:34:31Z</time>
      </trkpt>
      <trkpt lat="48.6361" lon="-3.40825">
        <ele>73.68</ele>
        <time>2013-06-14T07:34:34Z</time>
      </trkpt>
      <trkpt lat="48.636" lon="-3.40848">
        <ele>71.76</ele>
        <time>2013-06-14T07:34:36Z</time>
      </trkpt>
      <trkpt lat="48.63597" lon="-3.40861">
        <ele>71.76</ele>
        <time>2013-06-14T07:34:37Z</time>
      </trkpt>
      <trkpt lat="48.63595" lon="-3.40874">
        <ele>70.79</ele>
        <time>2013-06-14T07:34:38Z</time>
      </trkpt>
      <trkpt lat="48.63584" lon="-3.40973">
        <ele>66.95</ele>
        <time>2013-06-14T07:34:45Z</time>
      </trkpt>
      <trkpt lat="48.63573" lon="-3.41045">
        <ele>63.58</ele>
        <time>2013-06-14T07:34:50Z</time>
      </trkpt>
      <trkpt lat="48.6357" lon="-3.41059">
        <ele>63.58</ele>
        <time>2013-06-14T07:34:51Z</time>
      </trkpt>
      <trkpt lat="48.63566" lon="-3.41087">
        <ele>62.62</ele>
        <time>2013-06-14T07:34:53Z</time>
      </trkpt>
      <trkpt lat="48.63565" lon="-3.41103">
        <ele>62.14</ele>
        <time>2013-06-14T07:34:54Z</time>
      </trkpt>
      <trkpt lat="48.63567" lon="-3.41119">
        <ele>61.66</ele>
        <time>2013-06-14T07:34:55Z</time>
      </trkpt>
      <trkpt lat="48.63571" lon="-3.41133">
        <ele>60.22</ele>
        <time>2013-06-14T07:34:56Z</time>
      </trkpt>
      <trkpt lat="48.63577" lon="-3.41146">
        <ele>59.74</ele>
        <time>2013-06-14T07:34:57Z</time>
      </trkpt>
      <trkpt lat="48.63584" lon="-3.41157">
        <ele>59.74</ele>
        <time>2013-06-14T07:34:58Z</time>
      </trkpt>
      <trkpt lat="48.63593" lon="-3.41164">
        <ele>58.78</ele>
        <time>2013-06-14T07:34:59Z</time>
      </trkpt>
      <trkpt lat="48.63602" lon="-3.41168">
        <ele>57.82</ele>
        <time>2013-06-14T07:35:00Z</time>
      </trkpt>
      <trkpt lat="48.63612" lon="-3.4117">
        <ele>56.37</ele>
        <time>2013-06-14T07:35:01Z</time>
      </trkpt>
      <trkpt lat="48.63621" lon="-3.4117">
        <ele>56.37</ele>
        <time>2013-06-14T07:35:02Z</time>
      </trkpt>
      <trkpt lat="48.63641" lon="-3.41174">
        <ele>54.93</ele>
        <time>2013-06-14T07:35:04Z</time>
      </trkpt>
      <trkpt lat="48.6365" lon="-3.41181">
        <ele>54.45</ele>
        <time>2013-06-14T07:35:05Z</time>
      </trkpt>
      <trkpt lat="48.63658" lon="-3.41189">
        <ele>53.97</ele>
        <time>2013-06-14T07:35:06Z</time>
      </trkpt>
      <trkpt lat="48.63663" lon="-3.41201">
        <ele>53.49</ele>
        <time>2013-06-14T07:35:07Z</time>
      </trkpt>
      <trkpt lat="48.63667" lon="-3.41215">
        <ele>53.49</ele>
        <time>2013-06-14T07:35:08Z</time>
      </trkpt>
      <trkpt lat="48.63669" lon="-3.41228">
        <ele>53.01</ele>
        <time>2013-06-14T07:35:09Z</time>
      </trkpt>
      <trkpt lat="48.63674" lon="-3.41284">
        <ele>50.13</ele>
        <time>2013-06-14T07:35:13Z</time>
      </trkpt>
      <trkpt lat="48.63673" lon="-3.413">
        <ele>49.16</ele>
        <time>2013-06-14T07:35:14Z</time>
      </trkpt>
      <trkpt lat="48.63671" lon="-3.41317">
        <ele>48.68</ele>
        <time>2013-06-14T07:35:15Z</time>
      </trkpt>
      <trkpt lat="48.63668" lon="-3.41333">
        <ele>48.2</ele>
        <time>2013-06-14T07:35:16Z</time>
      </trkpt>
      <trkpt lat="48.63662" lon="-3.41346">
        <ele>47.24</ele>
        <time>2013-06-14T07:35:17Z</time>
      </trkpt>
      <trkpt lat="48.63654" lon="-3.41358">
        <ele>47.24</ele>
        <time>2013-06-14T07:35:18Z</time>
      </trkpt>
      <trkpt lat="48.63646" lon="-3.41367">
        <ele>47.24</ele>
        <time>2013-06-14T07:35:19Z</time>
      </trkpt>
      <trkpt lat="48.63637" lon="-3.41375">
        <ele>46.76</ele>
        <time>2013-06-14T07:35:20Z</time>
      </trkpt>
      <trkpt lat="48.63593" lon="-3.41418">
        <ele>45.8</ele>
        <time>2013-06-14T07:35:26Z</time>
      </trkpt>
      <trkpt lat="48.63549" lon="-3.41517">
        <ele>45.8</ele>
        <time>2013-06-14T07:35:38Z</time>
      </trkpt>
      <trkpt lat="48.63536" lon="-3.41549">
        <ele>46.76</ele>
        <time>2013-06-14T07:35:43Z</time>
      </trkpt>
      <trkpt lat="48.6353" lon="-3.41558">
        <ele>47.24</ele>
        <time>2013-06-14T07:35:45Z</time>
      </trkpt>
      <trkpt lat="48.63526" lon="-3.41561">
        <ele>47.24</ele>
        <time>2013-06-14T07:35:46Z</time>
      </trkpt>
      <trkpt lat="48.63523" lon="-3.41564">
        <ele>47.72</ele>
        <time>2013-06-14T07:35:47Z</time>
      </trkpt>
      <trkpt lat="48.63485" lon="-3.41586">
        <ele>50.61</ele>
        <time>2013-06-14T07:35:57Z</time>
      </trkpt>
      <trkpt lat="48.63426" lon="-3.4157">
        <ele>53.49</ele>
        <time>2013-06-14T07:36:11Z</time>
      </trkpt>
      <trkpt lat="48.63372" lon="-3.4155">
        <ele>56.86</ele>
        <time>2013-06-14T07:36:24Z</time>
      </trkpt>
      <trkpt lat="48.63328" lon="-3.41535">
        <ele>60.7</ele>
        <time>2013-06-14T07:36:36Z</time>
      </trkpt>
      <trkpt lat="48.63271" lon="-3.41526">
        <ele>63.58</ele>
        <time>2013-06-14T07:36:50Z</time>
      </trkpt>
      <trkpt lat="48.63211" lon="-3.41557">
        <ele>66.95</ele>
        <time>2013-06-14T07:37:05Z</time>
      </trkpt>
      <trkpt lat="48.63164" lon="-3.41576">
        <ele>70.31</ele>
        <time>2013-06-14T07:37:17Z</time>
      </trkpt>
      <trkpt lat="48.63113" lon="-3.4157">
        <ele>72.72</ele>
        <time>2013-06-14T07:37:29Z</time>
      </trkpt>
      <trkpt lat="48.63029" lon="-3.41564">
        <ele>75.6</ele>
        <time>2013-06-14T07:37:46Z</time>
      </trkpt>
      <trkpt lat="48.62999" lon="-3.41565">
        <ele>76.56</ele>
        <time>2013-06-14T07:37:53Z</time>
      </trkpt>
      <trkpt lat="48.62926" lon="-3.4157">
        <ele>79.93</ele>
        <time>2013-06-14T07:38:09Z</time>
      </trkpt>
      <trkpt lat="48.62895" lon="-3.41585">
        <ele>80.89</ele>
        <time>2013-06-14T07:38:16Z</time>
      </trkpt>
      <trkpt lat="48.62887" lon="-3.41593">
        <ele>81.37</ele>
        <time>2013-06-14T07:38:18Z</time>
      </trkpt>
      <trkpt lat="48.62883" lon="-3.41598">
        <ele>81.37</ele>
        <time>2013-06-14T07:38:19Z</time>
      </trkpt>
      <trkpt lat="48.6288" lon="-3.41603">
        <ele>81.37</ele>
        <time>2013-06-14T07:38:20Z</time>
      </trkpt>
      <trkpt lat="48.62877" lon="-3.41609">
        <ele>81.37</ele>
        <time>2013-06-14T07:38:21Z</time>
      </trkpt>
      <trkpt lat="48.62874" lon="-3.41615">
        <ele>81.85</ele>
        <time>2013-06-14T07:38:22Z</time>
      </trkpt>
      <trkpt lat="48.62871" lon="-3.41621">
        <ele>81.85</ele>
        <time>2013-06-14T07:38:23Z</time>
      </trkpt>
      <trkpt lat="48.62852" lon="-3.41719">
        <ele>83.29</ele>
        <time>2013-06-14T07:38:37Z</time>
      </trkpt>
      <trkpt lat="48.62839" lon="-3.41819">
        <ele>85.21</ele>
        <time>2013-06-14T07:38:51Z</time>
      </trkpt>
      <trkpt lat="48.62826" lon="-3.41896">
        <ele>87.14</ele>
        <time>2013-06-14T07:39:02Z</time>
      </trkpt>
      <trkpt lat="48.62823" lon="-3.41903">
        <ele>87.14</ele>
        <time>2013-06-14T07:39:03Z</time>
      </trkpt>
      <trkpt lat="48.62808" lon="-3.41933">
        <ele>88.1</ele>
        <time>2013-06-14T07:39:08Z</time>
      </trkpt>
      <trkpt lat="48.62805" lon="-3.41938">
        <ele>88.1</ele>
        <time>2013-06-14T07:39:09Z</time>
      </trkpt>
      <trkpt lat="48.62793" lon="-3.41952">
        <ele>88.58</ele>
        <time>2013-06-14T07:39:12Z</time>
      </trkpt>
      <trkpt lat="48.62788" lon="-3.41956">
        <ele>89.06</ele>
        <time>2013-06-14T07:39:13Z</time>
      </trkpt>
      <trkpt lat="48.62713" lon="-3.41986">
        <ele>90.5</ele>
        <time>2013-06-14T07:39:28Z</time>
      </trkpt>
      <trkpt lat="48.62637" lon="-3.42008">
        <ele>91.94</ele>
        <time>2013-06-14T07:39:44Z</time>
      </trkpt>
      <trkpt lat="48.62564" lon="-3.42013">
        <ele>94.35</ele>
        <time>2013-06-14T07:39:59Z</time>
      </trkpt>
      <trkpt lat="48.62496" lon="-3.42007">
        <ele>97.71</ele>
        <time>2013-06-14T07:40:13Z</time>
      </trkpt>
      <trkpt lat="48.62453" lon="-3.42008">
        <ele>100.6</ele>
        <time>2013-06-14T07:40:23Z</time>
      </trkpt>
      <trkpt lat="48.62449" lon="-3.4201">
        <ele>101.08</ele>
        <time>2013-06-14T07:40:24Z</time>
      </trkpt>
      <trkpt lat="48.62427" lon="-3.4202">
        <ele>103</ele>
        <time>2013-06-14T07:40:29Z</time>
      </trkpt>
      <trkpt lat="48.6241" lon="-3.42031">
        <ele>104.92</ele>
        <time>2013-06-14T07:40:33Z</time>
      </trkpt>
      <trkpt lat="48.62367" lon="-3.42052">
        <ele>107.81</ele>
        <time>2013-06-14T07:40:43Z</time>
      </trkpt>
      <trkpt lat="48.62327" lon="-3.42076">
        <ele>110.69</ele>
        <time>2013-06-14T07:40:52Z</time>
      </trkpt>
      <trkpt lat="48.62315" lon="-3.42087">
        <ele>111.65</ele>
        <time>2013-06-14T07:40:55Z</time>
      </trkpt>
      <trkpt lat="48.62294" lon="-3.42108">
        <ele>111.17</ele>
        <time>2013-06-14T07:41:01Z</time>
      </trkpt>
      <trkpt lat="48.62227" lon="-3.42174">
        <ele>110.21</ele>
        <time>2013-06-14T07:41:15Z</time>
      </trkpt>
      <trkpt lat="48.62162" lon="-3.42272">
        <ele>108.77</ele>
        <time>2013-06-14T07:41:29Z</time>
      </trkpt>
      <trkpt lat="48.62091" lon="-3.42373">
        <ele>106.84</ele>
        <time>2013-06-14T07:41:44Z</time>
      </trkpt>
      <trkpt lat="48.62085" lon="-3.42376">
        <ele>106.84</ele>
        <time>2013-06-14T07:41:45Z</time>
      </trkpt>
      <trkpt lat="48.62078" lon="-3.42378">
        <ele>106.36</ele>
        <time>2013-06-14T07:41:46Z</time>
      </trkpt>
      <trkpt lat="48.61988" lon="-3.4239">
        <ele>104.44</ele>
        <time>2013-06-14T07:41:59Z</time>
      </trkpt>
      <trkpt lat="48.61981" lon="-3.42394">
        <ele>103.96</ele>
        <time>2013-06-14T07:42:00Z</time>
      </trkpt>
      <trkpt lat="48.61975" lon="-3.42399">
        <ele>103.96</ele>
        <time>2013-06-14T07:42:01Z</time>
      </trkpt>
      <trkpt lat="48.61904" lon="-3.42488">
        <ele>103.96</ele>
        <time>2013-06-14T07:42:16Z</time>
      </trkpt>
      <trkpt lat="48.61868" lon="-3.42577">
        <ele>107.32</ele>
        <time>2013-06-14T07:42:29Z</time>
      </trkpt>
      <trkpt lat="48.61862" lon="-3.42591">
        <ele>107.81</ele>
        <time>2013-06-14T07:42:31Z</time>
      </trkpt>
      <trkpt lat="48.61807" lon="-3.42703">
        <ele>107.81</ele>
        <time>2013-06-14T07:42:47Z</time>
      </trkpt>
      <trkpt lat="48.61738" lon="-3.42835">
        <ele>108.77</ele>
        <time>2013-06-14T07:43:06Z</time>
      </trkpt>
      <trkpt lat="48.61673" lon="-3.42975">
        <ele>107.32</ele>
        <time>2013-06-14T07:43:24Z</time>
      </trkpt>
      <trkpt lat="48.61651" lon="-3.4302">
        <ele>106.36</ele>
        <time>2013-06-14T07:43:30Z</time>
      </trkpt>
      <trkpt lat="48.61649" lon="-3.43029">
        <ele>106.36</ele>
        <time>2013-06-14T07:43:31Z</time>
      </trkpt>
      <trkpt lat="48.61648" lon="-3.43039">
        <ele>106.36</ele>
        <time>2013-06-14T07:43:32Z</time>
      </trkpt>
      <trkpt lat="48.61648" lon="-3.43049">
        <ele>105.88</ele>
        <time>2013-06-14T07:43:33Z</time>
      </trkpt>
      <trkpt lat="48.61648" lon="-3.43059">
        <ele>105.88</ele>
        <time>2013-06-14T07:43:34Z</time>
      </trkpt>
      <trkpt lat="48.61649" lon="-3.43069">
        <ele>105.88</ele>
        <time>2013-06-14T07:43:35Z</time>
      </trkpt>
      <trkpt lat="48.61651" lon="-3.43079">
        <ele>105.88</ele>
        <time>2013-06-14T07:43:36Z</time>
      </trkpt>
      <trkpt lat="48.61653" lon="-3.4309">
        <ele>105.4</ele>
        <time>2013-06-14T07:43:37Z</time>
      </trkpt>
      <trkpt lat="48.6166" lon="-3.43146">
        <ele>103.96</ele>
        <time>2013-06-14T07:43:42Z</time>
      </trkpt>
      <trkpt lat="48.61659" lon="-3.43157">
        <ele>103.48</ele>
        <time>2013-06-14T07:43:43Z</time>
      </trkpt>
      <trkpt lat="48.61657" lon="-3.43168">
        <ele>103.48</ele>
        <time>2013-06-14T07:43:44Z</time>
      </trkpt>
      <trkpt lat="48.61654" lon="-3.43179">
        <ele>103.48</ele>
        <time>2013-06-14T07:43:45Z</time>
      </trkpt>
      <trkpt lat="48.61652" lon="-3.43189">
        <ele>103.48</ele>
        <time>2013-06-14T07:43:46Z</time>
      </trkpt>
      <trkpt lat="48.61649" lon="-3.43198">
        <ele>103.96</ele>
        <time>2013-06-14T07:43:47Z</time>
      </trkpt>
      <trkpt lat="48.61645" lon="-3.43206">
        <ele>103.48</ele>
        <time>2013-06-14T07:43:48Z</time>
      </trkpt>
      <trkpt lat="48.61641" lon="-3.43215">
        <ele>103</ele>
        <time>2013-06-14T07:43:49Z</time>
      </trkpt>
      <trkpt lat="48.61623" lon="-3.43246">
        <ele>102.04</ele>
        <time>2013-06-14T07:43:53Z</time>
      </trkpt>
      <trkpt lat="48.61617" lon="-3.43252">
        <ele>102.52</ele>
        <time>2013-06-14T07:43:54Z</time>
      </trkpt>
      <trkpt lat="48.61612" lon="-3.43257">
        <ele>102.04</ele>
        <time>2013-06-14T07:43:55Z</time>
      </trkpt>
      <trkpt lat="48.61607" lon="-3.43259">
        <ele>102.04</ele>
        <time>2013-06-14T07:43:56Z</time>
      </trkpt>
      <trkpt lat="48.61601" lon="-3.4326">
        <ele>102.04</ele>
        <time>2013-06-14T07:43:57Z</time>
      </trkpt>
      <trkpt lat="48.61594" lon="-3.4326">
        <ele>102.04</ele>
        <time>2013-06-14T07:43:58Z</time>
      </trkpt>
      <trkpt lat="48.61588" lon="-3.43258">
        <ele>102.04</ele>
        <time>2013-06-14T07:43:59Z</time>
      </trkpt>
      <trkpt lat="48.61582" lon="-3.43255">
        <ele>102.04</ele>
        <time>2013-06-14T07:44:00Z</time>
      </trkpt>
      <trkpt lat="48.61575" lon="-3.43251">
        <ele>101.56</ele>
        <time>2013-06-14T07:44:01Z</time>
      </trkpt>
      <trkpt lat="48.61569" lon="-3.43246">
        <ele>101.08</ele>
        <time>2013-06-14T07:44:02Z</time>
      </trkpt>
      <trkpt lat="48.61562" lon="-3.4324">
        <ele>101.08</ele>
        <time>2013-06-14T07:44:03Z</time>
      </trkpt>
      <trkpt lat="48.6153" lon="-3.43213">
        <ele>100.11</ele>
        <time>2013-06-14T07:44:08Z</time>
      </trkpt>
      <trkpt lat="48.61523" lon="-3.4321">
        <ele>99.63</ele>
        <time>2013-06-14T07:44:09Z</time>
      </trkpt>
      <trkpt lat="48.61516" lon="-3.43208">
        <ele>99.15</ele>
        <time>2013-06-14T07:44:10Z</time>
      </trkpt>
      <trkpt lat="48.61509" lon="-3.43208">
        <ele>99.15</ele>
        <time>2013-06-14T07:44:11Z</time>
      </trkpt>
      <trkpt lat="48.61502" lon="-3.4321">
        <ele>98.67</ele>
        <time>2013-06-14T07:44:12Z</time>
      </trkpt>
      <trkpt lat="48.61495" lon="-3.43213">
        <ele>98.19</ele>
        <time>2013-06-14T07:44:13Z</time>
      </trkpt>
      <trkpt lat="48.61487" lon="-3.43217">
        <ele>97.71</ele>
        <time>2013-06-14T07:44:14Z</time>
      </trkpt>
      <trkpt lat="48.61435" lon="-3.43268">
        <ele>94.83</ele>
        <time>2013-06-14T07:44:21Z</time>
      </trkpt>
      <trkpt lat="48.61383" lon="-3.43325">
        <ele>91.46</ele>
        <time>2013-06-14T07:44:28Z</time>
      </trkpt>
      <trkpt lat="48.61344" lon="-3.43366">
        <ele>89.06</ele>
        <time>2013-06-14T07:44:33Z</time>
      </trkpt>
      <trkpt lat="48.61291" lon="-3.43438">
        <ele>86.66</ele>
        <time>2013-06-14T07:44:40Z</time>
      </trkpt>
      <trkpt lat="48.61252" lon="-3.43511">
        <ele>82.81</ele>
        <time>2013-06-14T07:44:46Z</time>
      </trkpt>
      <trkpt lat="48.61226" lon="-3.4357">
        <ele>80.41</ele>
        <time>2013-06-14T07:44:51Z</time>
      </trkpt>
      <trkpt lat="48.61186" lon="-3.43689">
        <ele>78.97</ele>
        <time>2013-06-14T07:45:02Z</time>
      </trkpt>
      <trkpt lat="48.61164" lon="-3.43722">
        <ele>79.93</ele>
        <time>2013-06-14T07:45:09Z</time>
      </trkpt>
      <trkpt lat="48.61154" lon="-3.43714">
        <ele>80.41</ele>
        <time>2013-06-14T07:45:10Z</time>
      </trkpt>
      <trkpt lat="48.61135" lon="-3.43707">
        <ele>80.89</ele>
        <time>2013-06-14T07:45:12Z</time>
      </trkpt>
      <trkpt lat="48.61128" lon="-3.43706">
        <ele>81.37</ele>
        <time>2013-06-14T07:45:13Z</time>
      </trkpt>
      <trkpt lat="48.61122" lon="-3.43707">
        <ele>81.37</ele>
        <time>2013-06-14T07:45:14Z</time>
      </trkpt>
      <trkpt lat="48.61118" lon="-3.43708">
        <ele>81.85</ele>
        <time>2013-06-14T07:45:15Z</time>
      </trkpt>
      <trkpt lat="48.61115" lon="-3.43712">
        <ele>82.33</ele>
        <time>2013-06-14T07:45:16Z</time>
      </trkpt>
      <trkpt lat="48.61113" lon="-3.43718">
        <ele>82.33</ele>
        <time>2013-06-14T07:45:17Z</time>
      </trkpt>
      <trkpt lat="48.61112" lon="-3.43723">
        <ele>82.81</ele>
        <time>2013-06-14T07:45:18Z</time>
      </trkpt>
      <trkpt lat="48.61111" lon="-3.43728">
        <ele>83.29</ele>
        <time>2013-06-14T07:45:19Z</time>
      </trkpt>
      <trkpt lat="48.61113" lon="-3.43792">
        <ele>85.69</ele>
        <time>2013-06-14T07:45:30Z</time>
      </trkpt>
      <trkpt lat="48.61115" lon="-3.4386">
        <ele>88.58</ele>
        <time>2013-06-14T07:45:41Z</time>
      </trkpt>
      <trkpt lat="48.61119" lon="-3.43926">
        <ele>90.98</ele>
        <time>2013-06-14T07:45:53Z</time>
      </trkpt>
      <trkpt lat="48.61129" lon="-3.44006">
        <ele>93.87</ele>
        <time>2013-06-14T07:46:06Z</time>
      </trkpt>
      <trkpt lat="48.61129" lon="-3.44076">
        <ele>96.27</ele>
        <time>2013-06-14T07:46:18Z</time>
      </trkpt>
      <trkpt lat="48.611" lon="-3.4414">
        <ele>99.15</ele>
        <time>2013-06-14T07:46:30Z</time>
      </trkpt>
      <trkpt lat="48.61062" lon="-3.44178">
        <ele>101.56</ele>
        <time>2013-06-14T07:46:42Z</time>
      </trkpt>
      <trkpt lat="48.61009" lon="-3.44186">
        <ele>103.96</ele>
        <time>2013-06-14T07:46:55Z</time>
      </trkpt>
      <trkpt lat="48.60999" lon="-3.44198">
        <ele>104.92</ele>
        <time>2013-06-14T07:46:58Z</time>
      </trkpt>
      <trkpt lat="48.60988" lon="-3.4426">
        <ele>107.81</ele>
        <time>2013-06-14T07:47:10Z</time>
      </trkpt>
      <trkpt lat="48.60962" lon="-3.44323">
        <ele>109.73</ele>
        <time>2013-06-14T07:47:22Z</time>
      </trkpt>
      <trkpt lat="48.60952" lon="-3.44327">
        <ele>109.73</ele>
        <time>2013-06-14T07:47:24Z</time>
      </trkpt>
      <trkpt lat="48.60948" lon="-3.44328">
        <ele>110.21</ele>
        <time>2013-06-14T07:47:25Z</time>
      </trkpt>
      <trkpt lat="48.60944" lon="-3.44328">
        <ele>109.73</ele>
        <time>2013-06-14T07:47:26Z</time>
      </trkpt>
      <trkpt lat="48.6094" lon="-3.44328">
        <ele>110.21</ele>
        <time>2013-06-14T07:47:27Z</time>
      </trkpt>
      <trkpt lat="48.60937" lon="-3.44327">
        <ele>110.21</ele>
        <time>2013-06-14T07:47:28Z</time>
      </trkpt>
      <trkpt lat="48.60895" lon="-3.44355">
        <ele>112.61</ele>
        <time>2013-06-14T07:47:40Z</time>
      </trkpt>
      <trkpt lat="48.60838" lon="-3.444">
        <ele>115.98</ele>
        <time>2013-06-14T07:47:54Z</time>
      </trkpt>
      <trkpt lat="48.60787" lon="-3.44425">
        <ele>118.86</ele>
        <time>2013-06-14T07:48:07Z</time>
      </trkpt>
      <trkpt lat="48.60739" lon="-3.44451">
        <ele>120.3</ele>
        <time>2013-06-14T07:48:20Z</time>
      </trkpt>
      <trkpt lat="48.60716" lon="-3.44476">
        <ele>120.3</ele>
        <time>2013-06-14T07:48:26Z</time>
      </trkpt>
      <trkpt lat="48.60715" lon="-3.44483">
        <ele>119.82</ele>
        <time>2013-06-14T07:48:27Z</time>
      </trkpt>
      <trkpt lat="48.60714" lon="-3.44491">
        <ele>119.82</ele>
        <time>2013-06-14T07:48:28Z</time>
      </trkpt>
      <trkpt lat="48.60715" lon="-3.445">
        <ele>119.34</ele>
        <time>2013-06-14T07:48:29Z</time>
      </trkpt>
      <trkpt lat="48.60717" lon="-3.44508">
        <ele>119.34</ele>
        <time>2013-06-14T07:48:30Z</time>
      </trkpt>
      <trkpt lat="48.60743" lon="-3.44608">
        <ele>122.71</ele>
        <time>2013-06-14T07:48:44Z</time>
      </trkpt>
      <trkpt lat="48.60769" lon="-3.44694">
        <ele>125.11</ele>
        <time>2013-06-14T07:48:57Z</time>
      </trkpt>
      <trkpt lat="48.6077" lon="-3.447">
        <ele>125.59</ele>
        <time>2013-06-14T07:48:58Z</time>
      </trkpt>
      <trkpt lat="48.60771" lon="-3.44708">
        <ele>125.59</ele>
        <time>2013-06-14T07:48:59Z</time>
      </trkpt>
      <trkpt lat="48.6077" lon="-3.44715">
        <ele>126.07</ele>
        <time>2013-06-14T07:49:00Z</time>
      </trkpt>
      <trkpt lat="48.6077" lon="-3.44721">
        <ele>126.07</ele>
        <time>2013-06-14T07:49:01Z</time>
      </trkpt>
      <trkpt lat="48.60763" lon="-3.44805">
        <ele>127.99</ele>
        <time>2013-06-14T07:49:13Z</time>
      </trkpt>
      <trkpt lat="48.60765" lon="-3.44896">
        <ele>129.92</ele>
        <time>2013-06-14T07:49:26Z</time>
      </trkpt>
      <trkpt lat="48.60763" lon="-3.44902">
        <ele>129.43</ele>
        <time>2013-06-14T07:49:27Z</time>
      </trkpt>
      <trkpt lat="48.60761" lon="-3.44907">
        <ele>128.95</ele>
        <time>2013-06-14T07:49:28Z</time>
      </trkpt>
      <trkpt lat="48.60759" lon="-3.44912">
        <ele>128.95</ele>
        <time>2013-06-14T07:49:29Z</time>
      </trkpt>
      <trkpt lat="48.60755" lon="-3.44916">
        <ele>128.95</ele>
        <time>2013-06-14T07:49:30Z</time>
      </trkpt>
      <trkpt lat="48.60752" lon="-3.44918">
        <ele>128.95</ele>
        <time>2013-06-14T07:49:31Z</time>
      </trkpt>
      <trkpt lat="48.60748" lon="-3.44919">
        <ele>128.95</ele>
        <time>2013-06-14T07:49:32Z</time>
      </trkpt>
      <trkpt lat="48.60744" lon="-3.44918">
        <ele>128.95</ele>
        <time>2013-06-14T07:49:33Z</time>
      </trkpt>
      <trkpt lat="48.6074" lon="-3.44916">
        <ele>129.43</ele>
        <time>2013-06-14T07:49:34Z</time>
      </trkpt>
      <trkpt lat="48.60736" lon="-3.44913">
        <ele>129.43</ele>
        <time>2013-06-14T07:49:35Z</time>
      </trkpt>
      <trkpt lat="48.60732" lon="-3.44909">
        <ele>128.95</ele>
        <time>2013-06-14T07:49:36Z</time>
      </trkpt>
      <trkpt lat="48.60682" lon="-3.44867">
        <ele>130.88</ele>
        <time>2013-06-14T07:49:48Z</time>
      </trkpt>
      <trkpt lat="48.60677" lon="-3.44864">
        <ele>130.4</ele>
        <time>2013-06-14T07:49:49Z</time>
      </trkpt>
      <trkpt lat="48.60628" lon="-3.44845">
        <ele>131.36</ele>
        <time>2013-06-14T07:49:59Z</time>
      </trkpt>
      <trkpt lat="48.60623" lon="-3.44844">
        <ele>131.36</ele>
        <time>2013-06-14T07:50:00Z</time>
      </trkpt>
      <trkpt lat="48.60613" lon="-3.44844">
        <ele>131.36</ele>
        <time>2013-06-14T07:50:02Z</time>
      </trkpt>
      <trkpt lat="48.60608" lon="-3.44845">
        <ele>131.36</ele>
        <time>2013-06-14T07:50:03Z</time>
      </trkpt>
      <trkpt lat="48.60603" lon="-3.44848">
        <ele>131.36</ele>
        <time>2013-06-14T07:50:04Z</time>
      </trkpt>
      <trkpt lat="48.60599" lon="-3.44853">
        <ele>131.36</ele>
        <time>2013-06-14T07:50:05Z</time>
      </trkpt>
      <trkpt lat="48.60595" lon="-3.44858">
        <ele>130.88</ele>
        <time>2013-06-14T07:50:06Z</time>
      </trkpt>
      <trkpt lat="48.60591" lon="-3.44864">
        <ele>131.36</ele>
        <time>2013-06-14T07:50:07Z</time>
      </trkpt>
      <trkpt lat="48.60566" lon="-3.44913">
        <ele>131.84</ele>
        <time>2013-06-14T07:50:15Z</time>
      </trkpt>
      <trkpt lat="48.60563" lon="-3.44919">
        <ele>131.84</ele>
        <time>2013-06-14T07:50:16Z</time>
      </trkpt>
      <trkpt lat="48.60559" lon="-3.44923">
        <ele>131.84</ele>
        <time>2013-06-14T07:50:17Z</time>
      </trkpt>
      <trkpt lat="48.60552" lon="-3.44932">
        <ele>131.84</ele>
        <time>2013-06-14T07:50:19Z</time>
      </trkpt>
      <trkpt lat="48.60549" lon="-3.44937">
        <ele>131.84</ele>
        <time>2013-06-14T07:50:20Z</time>
      </trkpt>
      <trkpt lat="48.60546" lon="-3.44943">
        <ele>132.32</ele>
        <time>2013-06-14T07:50:21Z</time>
      </trkpt>
      <trkpt lat="48.60543" lon="-3.44949">
        <ele>132.32</ele>
        <time>2013-06-14T07:50:22Z</time>
      </trkpt>
      <trkpt lat="48.6054" lon="-3.44955">
        <ele>132.8</ele>
        <time>2013-06-14T07:50:23Z</time>
      </trkpt>
      <trkpt lat="48.60538" lon="-3.44961">
        <ele>132.8</ele>
        <time>2013-06-14T07:50:24Z</time>
      </trkpt>
      <trkpt lat="48.60536" lon="-3.44968">
        <ele>132.8</ele>
        <time>2013-06-14T07:50:25Z</time>
      </trkpt>
      <trkpt lat="48.60535" lon="-3.44975">
        <ele>133.28</ele>
        <time>2013-06-14T07:50:26Z</time>
      </trkpt>
      <trkpt lat="48.60534" lon="-3.44982">
        <ele>133.28</ele>
        <time>2013-06-14T07:50:27Z</time>
      </trkpt>
      <trkpt lat="48.60534" lon="-3.44989">
        <ele>133.28</ele>
        <time>2013-06-14T07:50:28Z</time>
      </trkpt>
      <trkpt lat="48.6053" lon="-3.45033">
        <ele>133.28</ele>
        <time>2013-06-14T07:50:34Z</time>
      </trkpt>
      <trkpt lat="48.60527" lon="-3.45052">
        <ele>133.76</ele>
        <time>2013-06-14T07:50:37Z</time>
      </trkpt>
      <trkpt lat="48.60527" lon="-3.45059">
        <ele>135.68</ele>
        <time>2013-06-14T07:50:38Z</time>
      </trkpt>
      <trkpt lat="48.60527" lon="-3.45088">
        <ele>134.24</ele>
        <time>2013-06-14T07:50:42Z</time>
      </trkpt>
      <trkpt lat="48.60528" lon="-3.45095">
        <ele>134.24</ele>
        <time>2013-06-14T07:50:43Z</time>
      </trkpt>
      <trkpt lat="48.6053" lon="-3.45123">
        <ele>135.2</ele>
        <time>2013-06-14T07:50:47Z</time>
      </trkpt>
      <trkpt lat="48.6053" lon="-3.4513">
        <ele>135.2</ele>
        <time>2013-06-14T07:50:48Z</time>
      </trkpt>
      <trkpt lat="48.60518" lon="-3.45223">
        <ele>138.57</ele>
        <time>2013-06-14T07:51:02Z</time>
      </trkpt>
      <trkpt lat="48.60518" lon="-3.45259">
        <ele>140.01</ele>
        <time>2013-06-14T07:51:08Z</time>
      </trkpt>
      <trkpt lat="48.60513" lon="-3.45375">
        <ele>139.53</ele>
        <time>2013-06-14T07:51:25Z</time>
      </trkpt>
      <trkpt lat="48.6051" lon="-3.45399">
        <ele>138.57</ele>
        <time>2013-06-14T07:51:28Z</time>
      </trkpt>
      <trkpt lat="48.60508" lon="-3.45407">
        <ele>138.09</ele>
        <time>2013-06-14T07:51:29Z</time>
      </trkpt>
      <trkpt lat="48.60469" lon="-3.455">
        <ele>135.68</ele>
        <time>2013-06-14T07:51:42Z</time>
      </trkpt>
      <trkpt lat="48.60463" lon="-3.45513">
        <ele>135.68</ele>
        <time>2013-06-14T07:51:44Z</time>
      </trkpt>
      <trkpt lat="48.60461" lon="-3.45521">
        <ele>135.2</ele>
        <time>2013-06-14T07:51:45Z</time>
      </trkpt>
      <trkpt lat="48.6046" lon="-3.45527">
        <ele>134.72</ele>
        <time>2013-06-14T07:51:46Z</time>
      </trkpt>
      <trkpt lat="48.60459" lon="-3.45534">
        <ele>134.72</ele>
        <time>2013-06-14T07:51:47Z</time>
      </trkpt>
      <trkpt lat="48.60459" lon="-3.4554">
        <ele>134.24</ele>
        <time>2013-06-14T07:51:48Z</time>
      </trkpt>
      <trkpt lat="48.60459" lon="-3.45545">
        <ele>134.24</ele>
        <time>2013-06-14T07:51:49Z</time>
      </trkpt>
      <trkpt lat="48.6046" lon="-3.45549">
        <ele>134.24</ele>
        <time>2013-06-14T07:51:50Z</time>
      </trkpt>
      <trkpt lat="48.60461" lon="-3.45554">
        <ele>134.24</ele>
        <time>2013-06-14T07:51:51Z</time>
      </trkpt>
      <trkpt lat="48.60462" lon="-3.45557">
        <ele>134.24</ele>
        <time>2013-06-14T07:51:52Z</time>
      </trkpt>
      <trkpt lat="48.60464" lon="-3.45561">
        <ele>134.24</ele>
        <time>2013-06-14T07:51:53Z</time>
      </trkpt>
      <trkpt lat="48.60492" lon="-3.45608">
        <ele>134.24</ele>
        <time>2013-06-14T07:52:12Z</time>
      </trkpt>
      <trkpt lat="48.60513" lon="-3.45642">
        <ele>134.24</ele>
        <time>2013-06-14T07:52:25Z</time>
      </trkpt>
      <trkpt lat="48.60515" lon="-3.4565">
        <ele>134.24</ele>
        <time>2013-06-14T07:52:40Z</time>
      </trkpt>
      <trkpt lat="48.60513" lon="-3.45649">
        <ele>134.24</ele>
        <time>2013-06-14T07:53:10Z</time>
      </trkpt>
      <trkpt lat="48.60513" lon="-3.45648">
        <ele>134.72</ele>
        <time>2013-06-14T07:53:38Z</time>
      </trkpt>
      <trkpt lat="48.60513" lon="-3.45648">
        <ele>134.72</ele>
        <time>2013-06-14T07:54:09Z</time>
      </trkpt>
      <trkpt lat="48.60513" lon="-3.4565">
        <ele>135.68</ele>
        <time>2013-06-14T07:54:38Z</time>
      </trkpt>
      <trkpt lat="48.60513" lon="-3.45651">
        <ele>134.72</ele>
        <time>2013-06-14T07:55:01Z</time>
      </trkpt>
      <trkpt lat="48.60514" lon="-3.45653">
        <ele>135.2</ele>
        <time>2013-06-14T07:55:02Z</time>
      </trkpt>
      <trkpt lat="48.60514" lon="-3.45656">
        <ele>135.68</ele>
        <time>2013-06-14T07:55:03Z</time>
      </trkpt>
      <trkpt lat="48.60515" lon="-3.4566">
        <ele>135.68</ele>
        <time>2013-06-14T07:55:04Z</time>
      </trkpt>
      <trkpt lat="48.60516" lon="-3.45666">
        <ele>135.68</ele>
        <time>2013-06-14T07:55:05Z</time>
      </trkpt>
      <trkpt lat="48.60516" lon="-3.45672">
        <ele>136.16</ele>
        <time>2013-06-14T07:55:06Z</time>
      </trkpt>
      <trkpt lat="48.60516" lon="-3.45679">
        <ele>136.16</ele>
        <time>2013-06-14T07:55:07Z</time>
      </trkpt>
      <trkpt lat="48.60515" lon="-3.45686">
        <ele>136.64</ele>
        <time>2013-06-14T07:55:08Z</time>
      </trkpt>
      <trkpt lat="48.60514" lon="-3.45693">
        <ele>136.16</ele>
        <time>2013-06-14T07:55:09Z</time>
      </trkpt>
      <trkpt lat="48.60512" lon="-3.457">
        <ele>136.64</ele>
        <time>2013-06-14T07:55:10Z</time>
      </trkpt>
      <trkpt lat="48.60509" lon="-3.45707">
        <ele>136.64</ele>
        <time>2013-06-14T07:55:11Z</time>
      </trkpt>
      <trkpt lat="48.60506" lon="-3.45713">
        <ele>136.64</ele>
        <time>2013-06-14T07:55:12Z</time>
      </trkpt>
      <trkpt lat="48.60503" lon="-3.45719">
        <ele>137.13</ele>
        <time>2013-06-14T07:55:13Z</time>
      </trkpt>
      <trkpt lat="48.60499" lon="-3.45725">
        <ele>137.61</ele>
        <time>2013-06-14T07:55:14Z</time>
      </trkpt>
      <trkpt lat="48.60496" lon="-3.4573">
        <ele>138.09</ele>
        <time>2013-06-14T07:55:15Z</time>
      </trkpt>
      <trkpt lat="48.60466" lon="-3.45764">
        <ele>138.57</ele>
        <time>2013-06-14T07:55:22Z</time>
      </trkpt>
      <trkpt lat="48.60462" lon="-3.45769">
        <ele>138.57</ele>
        <time>2013-06-14T07:55:23Z</time>
      </trkpt>
      <trkpt lat="48.60385" lon="-3.45874">
        <ele>135.68</ele>
        <time>2013-06-14T07:55:40Z</time>
      </trkpt>
      <trkpt lat="48.60377" lon="-3.45886">
        <ele>134.72</ele>
        <time>2013-06-14T07:55:42Z</time>
      </trkpt>
      <trkpt lat="48.60326" lon="-3.45958">
        <ele>132.8</ele>
        <time>2013-06-14T07:55:53Z</time>
      </trkpt>
      <trkpt lat="48.60321" lon="-3.45962">
        <ele>132.32</ele>
        <time>2013-06-14T07:55:54Z</time>
      </trkpt>
      <trkpt lat="48.60316" lon="-3.45964">
        <ele>130.88</ele>
        <time>2013-06-14T07:55:55Z</time>
      </trkpt>
      <trkpt lat="48.60312" lon="-3.45966">
        <ele>130.88</ele>
        <time>2013-06-14T07:55:56Z</time>
      </trkpt>
      <trkpt lat="48.60309" lon="-3.45966">
        <ele>130.88</ele>
        <time>2013-06-14T07:55:57Z</time>
      </trkpt>
      <trkpt lat="48.60304" lon="-3.45966">
        <ele>130.88</ele>
        <time>2013-06-14T07:55:59Z</time>
      </trkpt>
      <trkpt lat="48.60301" lon="-3.45963">
        <ele>130.88</ele>
        <time>2013-06-14T07:56:00Z</time>
      </trkpt>
      <trkpt lat="48.60298" lon="-3.45958">
        <ele>130.4</ele>
        <time>2013-06-14T07:56:01Z</time>
      </trkpt>
      <trkpt lat="48.60295" lon="-3.45952">
        <ele>130.4</ele>
        <time>2013-06-14T07:56:02Z</time>
      </trkpt>
      <trkpt lat="48.60293" lon="-3.45945">
        <ele>130.4</ele>
        <time>2013-06-14T07:56:03Z</time>
      </trkpt>
      <trkpt lat="48.60291" lon="-3.45938">
        <ele>130.88</ele>
        <time>2013-06-14T07:56:04Z</time>
      </trkpt>
      <trkpt lat="48.60243" lon="-3.45836">
        <ele>132.8</ele>
        <time>2013-06-14T07:56:20Z</time>
      </trkpt>
      <trkpt lat="48.6018" lon="-3.45763">
        <ele>133.28</ele>
        <time>2013-06-14T07:56:34Z</time>
      </trkpt>
      <trkpt lat="48.60089" lon="-3.45645">
        <ele>134.72</ele>
        <time>2013-06-14T07:56:54Z</time>
      </trkpt>
      <trkpt lat="48.59979" lon="-3.45499">
        <ele>135.68</ele>
        <time>2013-06-14T07:57:17Z</time>
      </trkpt>
      <trkpt lat="48.59923" lon="-3.45429">
        <ele>139.05</ele>
        <time>2013-06-14T07:57:30Z</time>
      </trkpt>
      <trkpt lat="48.59912" lon="-3.45414">
        <ele>140.49</ele>
        <time>2013-06-14T07:57:33Z</time>
      </trkpt>
      <trkpt lat="48.59849" lon="-3.45331">
        <ele>143.37</ele>
        <time>2013-06-14T07:57:50Z</time>
      </trkpt>
      <trkpt lat="48.59783" lon="-3.45246">
        <ele>143.85</ele>
        <time>2013-06-14T07:58:06Z</time>
      </trkpt>
      <trkpt lat="48.59708" lon="-3.45204">
        <ele>143.37</ele>
        <time>2013-06-14T07:58:19Z</time>
      </trkpt>
      <trkpt lat="48.59585" lon="-3.45192">
        <ele>141.93</ele>
        <time>2013-06-14T07:58:38Z</time>
      </trkpt>
      <trkpt lat="48.59479" lon="-3.45173">
        <ele>140.97</ele>
        <time>2013-06-14T07:58:54Z</time>
      </trkpt>
      <trkpt lat="48.59371" lon="-3.45191">
        <ele>141.45</ele>
        <time>2013-06-14T07:59:11Z</time>
      </trkpt>
      <trkpt lat="48.59287" lon="-3.45193">
        <ele>143.85</ele>
        <time>2013-06-14T07:59:26Z</time>
      </trkpt>
      <trkpt lat="48.59206" lon="-3.45153">
        <ele>145.78</ele>
        <time>2013-06-14T07:59:42Z</time>
      </trkpt>
      <trkpt lat="48.5911" lon="-3.45085">
        <ele>148.66</ele>
        <time>2013-06-14T08:00:02Z</time>
      </trkpt>
      <trkpt lat="48.59024" lon="-3.45047">
        <ele>150.1</ele>
        <time>2013-06-14T08:00:19Z</time>
      </trkpt>
      <trkpt lat="48.58935" lon="-3.45045">
        <ele>152.51</ele>
        <time>2013-06-14T08:00:36Z</time>
      </trkpt>
      <trkpt lat="48.58853" lon="-3.45045">
        <ele>154.91</ele>
        <time>2013-06-14T08:00:52Z</time>
      </trkpt>
      <trkpt lat="48.58754" lon="-3.45045">
        <ele>157.31</ele>
        <time>2013-06-14T08:01:11Z</time>
      </trkpt>
      <trkpt lat="48.58668" lon="-3.45045">
        <ele>159.24</ele>
        <time>2013-06-14T08:01:28Z</time>
      </trkpt>
      <trkpt lat="48.58618" lon="-3.4505">
        <ele>159.72</ele>
        <time>2013-06-14T08:01:38Z</time>
      </trkpt>
      <trkpt lat="48.58613" lon="-3.45052">
        <ele>160.2</ele>
        <time>2013-06-14T08:01:39Z</time>
      </trkpt>
      <trkpt lat="48.58571" lon="-3.45089">
        <ele>160.2</ele>
        <time>2013-06-14T08:01:48Z</time>
      </trkpt>
      <trkpt lat="48.58567" lon="-3.45094">
        <ele>160.68</ele>
        <time>2013-06-14T08:01:49Z</time>
      </trkpt>
      <trkpt lat="48.58524" lon="-3.45207">
        <ele>161.64</ele>
        <time>2013-06-14T08:02:05Z</time>
      </trkpt>
      <trkpt lat="48.58481" lon="-3.45363">
        <ele>164.04</ele>
        <time>2013-06-14T08:02:26Z</time>
      </trkpt>
      <trkpt lat="48.58454" lon="-3.45437">
        <ele>165.96</ele>
        <time>2013-06-14T08:02:38Z</time>
      </trkpt>
      <trkpt lat="48.58406" lon="-3.45516">
        <ele>168.85</ele>
        <time>2013-06-14T08:02:53Z</time>
      </trkpt>
      <trkpt lat="48.58358" lon="-3.45562">
        <ele>172.21</ele>
        <time>2013-06-14T08:03:05Z</time>
      </trkpt>
      <trkpt lat="48.58301" lon="-3.45612">
        <ele>175.1</ele>
        <time>2013-06-14T08:03:19Z</time>
      </trkpt>
      <trkpt lat="48.58246" lon="-3.45667">
        <ele>177.98</ele>
        <time>2013-06-14T08:03:33Z</time>
      </trkpt>
      <trkpt lat="48.58179" lon="-3.45752">
        <ele>180.38</ele>
        <time>2013-06-14T08:03:51Z</time>
      </trkpt>
      <trkpt lat="48.58119" lon="-3.45827">
        <ele>181.83</ele>
        <time>2013-06-14T08:04:07Z</time>
      </trkpt>
      <trkpt lat="48.5805" lon="-3.45922">
        <ele>183.75</ele>
        <time>2013-06-14T08:04:25Z</time>
      </trkpt>
      <trkpt lat="48.57999" lon="-3.4599">
        <ele>187.11</ele>
        <time>2013-06-14T08:04:39Z</time>
      </trkpt>
      <trkpt lat="48.57941" lon="-3.46098">
        <ele>190</ele>
        <time>2013-06-14T08:04:59Z</time>
      </trkpt>
      <trkpt lat="48.57902" lon="-3.46181">
        <ele>192.88</ele>
        <time>2013-06-14T08:05:14Z</time>
      </trkpt>
      <trkpt lat="48.57864" lon="-3.4626">
        <ele>195.77</ele>
        <time>2013-06-14T08:05:29Z</time>
      </trkpt>
      <trkpt lat="48.57815" lon="-3.4633">
        <ele>198.17</ele>
        <time>2013-06-14T08:05:44Z</time>
      </trkpt>
      <trkpt lat="48.57755" lon="-3.46345">
        <ele>198.65</ele>
        <time>2013-06-14T08:05:56Z</time>
      </trkpt>
      <trkpt lat="48.57639" lon="-3.4632">
        <ele>199.61</ele>
        <time>2013-06-14T08:06:17Z</time>
      </trkpt>
      <trkpt lat="48.57554" lon="-3.463">
        <ele>201.05</ele>
        <time>2013-06-14T08:06:33Z</time>
      </trkpt>
      <trkpt lat="48.57437" lon="-3.46272">
        <ele>201.05</ele>
        <time>2013-06-14T08:06:53Z</time>
      </trkpt>
      <trkpt lat="48.57328" lon="-3.46247">
        <ele>198.17</ele>
        <time>2013-06-14T08:07:09Z</time>
      </trkpt>
      <trkpt lat="48.5722" lon="-3.46221">
        <ele>196.25</ele>
        <time>2013-06-14T08:07:24Z</time>
      </trkpt>
      <trkpt lat="48.57124" lon="-3.46178">
        <ele>198.17</ele>
        <time>2013-06-14T08:07:40Z</time>
      </trkpt>
      <trkpt lat="48.57029" lon="-3.46112">
        <ele>197.69</ele>
        <time>2013-06-14T08:07:56Z</time>
      </trkpt>
      <trkpt lat="48.56936" lon="-3.46032">
        <ele>196.25</ele>
        <time>2013-06-14T08:08:12Z</time>
      </trkpt>
      <trkpt lat="48.56838" lon="-3.45932">
        <ele>198.17</ele>
        <time>2013-06-14T08:08:31Z</time>
      </trkpt>
      <trkpt lat="48.56746" lon="-3.45812">
        <ele>197.69</ele>
        <time>2013-06-14T08:08:50Z</time>
      </trkpt>
      <trkpt lat="48.56675" lon="-3.45717">
        <ele>197.21</ele>
        <time>2013-06-14T08:09:04Z</time>
      </trkpt>
      <trkpt lat="48.56601" lon="-3.45633">
        <ele>195.77</ele>
        <time>2013-06-14T08:09:18Z</time>
      </trkpt>
      <trkpt lat="48.56563" lon="-3.45569">
        <ele>192.88</ele>
        <time>2013-06-14T08:09:25Z</time>
      </trkpt>
      <trkpt lat="48.56557" lon="-3.4556">
        <ele>193.36</ele>
        <time>2013-06-14T08:09:26Z</time>
      </trkpt>
      <trkpt lat="48.56532" lon="-3.45521">
        <ele>191.44</ele>
        <time>2013-06-14T08:09:31Z</time>
      </trkpt>
      <trkpt lat="48.56527" lon="-3.45516">
        <ele>191.44</ele>
        <time>2013-06-14T08:09:32Z</time>
      </trkpt>
      <trkpt lat="48.56522" lon="-3.45511">
        <ele>192.4</ele>
        <time>2013-06-14T08:09:33Z</time>
      </trkpt>
      <trkpt lat="48.56506" lon="-3.45503">
        <ele>193.36</ele>
        <time>2013-06-14T08:09:36Z</time>
      </trkpt>
      <trkpt lat="48.56489" lon="-3.45499">
        <ele>193.36</ele>
        <time>2013-06-14T08:09:39Z</time>
      </trkpt>
      <trkpt lat="48.56423" lon="-3.45483">
        <ele>193.36</ele>
        <time>2013-06-14T08:09:50Z</time>
      </trkpt>
      <trkpt lat="48.56348" lon="-3.45456">
        <ele>190.96</ele>
        <time>2013-06-14T08:10:01Z</time>
      </trkpt>
      <trkpt lat="48.56318" lon="-3.45443">
        <ele>189.52</ele>
        <time>2013-06-14T08:10:05Z</time>
      </trkpt>
      <trkpt lat="48.5631" lon="-3.45442">
        <ele>189.04</ele>
        <time>2013-06-14T08:10:06Z</time>
      </trkpt>
      <trkpt lat="48.56302" lon="-3.45443">
        <ele>188.56</ele>
        <time>2013-06-14T08:10:07Z</time>
      </trkpt>
      <trkpt lat="48.56295" lon="-3.45445">
        <ele>188.56</ele>
        <time>2013-06-14T08:10:08Z</time>
      </trkpt>
      <trkpt lat="48.56287" lon="-3.45447">
        <ele>188.08</ele>
        <time>2013-06-14T08:10:09Z</time>
      </trkpt>
      <trkpt lat="48.56258" lon="-3.45453">
        <ele>187.59</ele>
        <time>2013-06-14T08:10:13Z</time>
      </trkpt>
      <trkpt lat="48.56251" lon="-3.45452">
        <ele>188.08</ele>
        <time>2013-06-14T08:10:14Z</time>
      </trkpt>
      <trkpt lat="48.56245" lon="-3.4545">
        <ele>188.56</ele>
        <time>2013-06-14T08:10:15Z</time>
      </trkpt>
      <trkpt lat="48.56239" lon="-3.45447">
        <ele>188.08</ele>
        <time>2013-06-14T08:10:16Z</time>
      </trkpt>
      <trkpt lat="48.56234" lon="-3.45443">
        <ele>188.08</ele>
        <time>2013-06-14T08:10:17Z</time>
      </trkpt>
      <trkpt lat="48.56229" lon="-3.45438">
        <ele>189.04</ele>
        <time>2013-06-14T08:10:18Z</time>
      </trkpt>
      <trkpt lat="48.56226" lon="-3.45433">
        <ele>189.52</ele>
        <time>2013-06-14T08:10:19Z</time>
      </trkpt>
      <trkpt lat="48.56222" lon="-3.45428">
        <ele>189.52</ele>
        <time>2013-06-14T08:10:20Z</time>
      </trkpt>
      <trkpt lat="48.56219" lon="-3.45422">
        <ele>190</ele>
        <time>2013-06-14T08:10:21Z</time>
      </trkpt>
      <trkpt lat="48.56216" lon="-3.45416">
        <ele>190.48</ele>
        <time>2013-06-14T08:10:22Z</time>
      </trkpt>
      <trkpt lat="48.56169" lon="-3.45335">
        <ele>187.59</ele>
        <time>2013-06-14T08:10:33Z</time>
      </trkpt>
      <trkpt lat="48.56083" lon="-3.45229">
        <ele>188.08</ele>
        <time>2013-06-14T08:10:50Z</time>
      </trkpt>
      <trkpt lat="48.56071" lon="-3.45217">
        <ele>189.52</ele>
        <time>2013-06-14T08:10:53Z</time>
      </trkpt>
      <trkpt lat="48.56067" lon="-3.45214">
        <ele>190</ele>
        <time>2013-06-14T08:10:54Z</time>
      </trkpt>
      <trkpt lat="48.56055" lon="-3.45203">
        <ele>190.96</ele>
        <time>2013-06-14T08:10:57Z</time>
      </trkpt>
      <trkpt lat="48.56039" lon="-3.45194">
        <ele>191.92</ele>
        <time>2013-06-14T08:11:01Z</time>
      </trkpt>
      <trkpt lat="48.56021" lon="-3.45184">
        <ele>191.92</ele>
        <time>2013-06-14T08:11:05Z</time>
      </trkpt>
      <trkpt lat="48.55965" lon="-3.45149">
        <ele>194.8</ele>
        <time>2013-06-14T08:11:18Z</time>
      </trkpt>
      <trkpt lat="48.55929" lon="-3.45119">
        <ele>198.17</ele>
        <time>2013-06-14T08:11:28Z</time>
      </trkpt>
      <trkpt lat="48.55887" lon="-3.45081">
        <ele>201.05</ele>
        <time>2013-06-14T08:11:40Z</time>
      </trkpt>
      <trkpt lat="48.5588" lon="-3.45073">
        <ele>201.53</ele>
        <time>2013-06-14T08:11:42Z</time>
      </trkpt>
      <trkpt lat="48.55814" lon="-3.44978">
        <ele>203.46</ele>
        <time>2013-06-14T08:12:01Z</time>
      </trkpt>
      <trkpt lat="48.55767" lon="-3.44875">
        <ele>206.34</ele>
        <time>2013-06-14T08:12:18Z</time>
      </trkpt>
      <trkpt lat="48.55735" lon="-3.44788">
        <ele>208.74</ele>
        <time>2013-06-14T08:12:32Z</time>
      </trkpt>
      <trkpt lat="48.5572" lon="-3.4473">
        <ele>209.7</ele>
        <time>2013-06-14T08:12:42Z</time>
      </trkpt>
      <trkpt lat="48.55717" lon="-3.44728">
        <ele>210.19</ele>
        <time>2013-06-14T08:12:43Z</time>
      </trkpt>
      <trkpt lat="48.55711" lon="-3.44723">
        <ele>210.19</ele>
        <time>2013-06-14T08:12:45Z</time>
      </trkpt>
      <trkpt lat="48.55708" lon="-3.44719">
        <ele>210.19</ele>
        <time>2013-06-14T08:12:46Z</time>
      </trkpt>
      <trkpt lat="48.55706" lon="-3.44713">
        <ele>210.19</ele>
        <time>2013-06-14T08:12:47Z</time>
      </trkpt>
      <trkpt lat="48.55705" lon="-3.44706">
        <ele>210.19</ele>
        <time>2013-06-14T08:12:48Z</time>
      </trkpt>
      <trkpt lat="48.55705" lon="-3.44699">
        <ele>210.19</ele>
        <time>2013-06-14T08:12:49Z</time>
      </trkpt>
      <trkpt lat="48.55705" lon="-3.44691">
        <ele>210.19</ele>
        <time>2013-06-14T08:12:50Z</time>
      </trkpt>
      <trkpt lat="48.55703" lon="-3.44684">
        <ele>210.19</ele>
        <time>2013-06-14T08:12:51Z</time>
      </trkpt>
      <trkpt lat="48.55701" lon="-3.44677">
        <ele>210.67</ele>
        <time>2013-06-14T08:12:52Z</time>
      </trkpt>
      <trkpt lat="48.55699" lon="-3.4467">
        <ele>210.19</ele>
        <time>2013-06-14T08:12:53Z</time>
      </trkpt>
      <trkpt lat="48.55662" lon="-3.44552">
        <ele>212.11</ele>
        <time>2013-06-14T08:13:10Z</time>
      </trkpt>
      <trkpt lat="48.5562" lon="-3.44419">
        <ele>212.59</ele>
        <time>2013-06-14T08:13:29Z</time>
      </trkpt>
      <trkpt lat="48.55604" lon="-3.44373">
        <ele>212.11</ele>
        <time>2013-06-14T08:13:35Z</time>
      </trkpt>
      <trkpt lat="48.55588" lon="-3.44334">
        <ele>210.19</ele>
        <time>2013-06-14T08:13:40Z</time>
      </trkpt>
      <trkpt lat="48.5556" lon="-3.44215">
        <ele>206.82</ele>
        <time>2013-06-14T08:13:52Z</time>
      </trkpt>
      <trkpt lat="48.55558" lon="-3.44205">
        <ele>206.34</ele>
        <time>2013-06-14T08:13:53Z</time>
      </trkpt>
      <trkpt lat="48.55538" lon="-3.44105">
        <ele>205.38</ele>
        <time>2013-06-14T08:14:03Z</time>
      </trkpt>
      <trkpt lat="48.55535" lon="-3.44099">
        <ele>204.9</ele>
        <time>2013-06-14T08:14:04Z</time>
      </trkpt>
      <trkpt lat="48.5553" lon="-3.44095">
        <ele>204.42</ele>
        <time>2013-06-14T08:14:05Z</time>
      </trkpt>
      <trkpt lat="48.55525" lon="-3.44094">
        <ele>203.94</ele>
        <time>2013-06-14T08:14:06Z</time>
      </trkpt>
      <trkpt lat="48.55519" lon="-3.44095">
        <ele>203.46</ele>
        <time>2013-06-14T08:14:07Z</time>
      </trkpt>
      <trkpt lat="48.55512" lon="-3.44098">
        <ele>203.46</ele>
        <time>2013-06-14T08:14:08Z</time>
      </trkpt>
      <trkpt lat="48.55505" lon="-3.44102">
        <ele>202.98</ele>
        <time>2013-06-14T08:14:09Z</time>
      </trkpt>
      <trkpt lat="48.55444" lon="-3.44134">
        <ele>200.09</ele>
        <time>2013-06-14T08:14:18Z</time>
      </trkpt>
      <trkpt lat="48.55402" lon="-3.44142">
        <ele>199.61</ele>
        <time>2013-06-14T08:14:24Z</time>
      </trkpt>
      <trkpt lat="48.55394" lon="-3.44141">
        <ele>199.13</ele>
        <time>2013-06-14T08:14:25Z</time>
      </trkpt>
      <trkpt lat="48.55387" lon="-3.4414">
        <ele>199.13</ele>
        <time>2013-06-14T08:14:26Z</time>
      </trkpt>
      <trkpt lat="48.55292" lon="-3.44139">
        <ele>197.69</ele>
        <time>2013-06-14T08:14:39Z</time>
      </trkpt>
      <trkpt lat="48.55264" lon="-3.44148">
        <ele>196.73</ele>
        <time>2013-06-14T08:14:43Z</time>
      </trkpt>
      <trkpt lat="48.55256" lon="-3.44148">
        <ele>196.73</ele>
        <time>2013-06-14T08:14:44Z</time>
      </trkpt>
      <trkpt lat="48.55249" lon="-3.44147">
        <ele>196.73</ele>
        <time>2013-06-14T08:14:45Z</time>
      </trkpt>
      <trkpt lat="48.55242" lon="-3.44146">
        <ele>196.73</ele>
        <time>2013-06-14T08:14:46Z</time>
      </trkpt>
      <trkpt lat="48.55235" lon="-3.44144">
        <ele>196.73</ele>
        <time>2013-06-14T08:14:47Z</time>
      </trkpt>
      <trkpt lat="48.55227" lon="-3.44141">
        <ele>196.73</ele>
        <time>2013-06-14T08:14:48Z</time>
      </trkpt>
      <trkpt lat="48.5522" lon="-3.44137">
        <ele>196.25</ele>
        <time>2013-06-14T08:14:49Z</time>
      </trkpt>
      <trkpt lat="48.55213" lon="-3.44132">
        <ele>195.77</ele>
        <time>2013-06-14T08:14:50Z</time>
      </trkpt>
      <trkpt lat="48.55143" lon="-3.44094">
        <ele>194.32</ele>
        <time>2013-06-14T08:15:00Z</time>
      </trkpt>
      <trkpt lat="48.55136" lon="-3.44093">
        <ele>193.84</ele>
        <time>2013-06-14T08:15:01Z</time>
      </trkpt>
      <trkpt lat="48.55129" lon="-3.44092">
        <ele>193.84</ele>
        <time>2013-06-14T08:15:02Z</time>
      </trkpt>
      <trkpt lat="48.55121" lon="-3.44093">
        <ele>193.84</ele>
        <time>2013-06-14T08:15:03Z</time>
      </trkpt>
      <trkpt lat="48.55114" lon="-3.44095">
        <ele>193.84</ele>
        <time>2013-06-14T08:15:04Z</time>
      </trkpt>
      <trkpt lat="48.55106" lon="-3.44097">
        <ele>193.36</ele>
        <time>2013-06-14T08:15:05Z</time>
      </trkpt>
      <trkpt lat="48.5502" lon="-3.44108">
        <ele>192.88</ele>
        <time>2013-06-14T08:15:17Z</time>
      </trkpt>
      <trkpt lat="48.5491" lon="-3.44107">
        <ele>192.88</ele>
        <time>2013-06-14T08:15:33Z</time>
      </trkpt>
      <trkpt lat="48.5479" lon="-3.44108">
        <ele>192.4</ele>
        <time>2013-06-14T08:15:51Z</time>
      </trkpt>
      <trkpt lat="48.54688" lon="-3.44096">
        <ele>192.88</ele>
        <time>2013-06-14T08:16:07Z</time>
      </trkpt>
      <trkpt lat="48.54604" lon="-3.44093">
        <ele>193.36</ele>
        <time>2013-06-14T08:16:21Z</time>
      </trkpt>
      <trkpt lat="48.54504" lon="-3.44105">
        <ele>193.84</ele>
        <time>2013-06-14T08:16:38Z</time>
      </trkpt>
      <trkpt lat="48.54408" lon="-3.44141">
        <ele>193.84</ele>
        <time>2013-06-14T08:16:54Z</time>
      </trkpt>
      <trkpt lat="48.54321" lon="-3.44198">
        <ele>190.96</ele>
        <time>2013-06-14T08:17:08Z</time>
      </trkpt>
      <trkpt lat="48.54211" lon="-3.44286">
        <ele>188.08</ele>
        <time>2013-06-14T08:17:26Z</time>
      </trkpt>
      <trkpt lat="48.54098" lon="-3.44367">
        <ele>186.15</ele>
        <time>2013-06-14T08:17:44Z</time>
      </trkpt>
      <trkpt lat="48.54025" lon="-3.44429">
        <ele>186.15</ele>
        <time>2013-06-14T08:17:56Z</time>
      </trkpt>
      <trkpt lat="48.53944" lon="-3.44549">
        <ele>183.75</ele>
        <time>2013-06-14T08:18:12Z</time>
      </trkpt>
      <trkpt lat="48.53841" lon="-3.44669">
        <ele>180.87</ele>
        <time>2013-06-14T08:18:30Z</time>
      </trkpt>
      <trkpt lat="48.53748" lon="-3.44783">
        <ele>179.42</ele>
        <time>2013-06-14T08:18:47Z</time>
      </trkpt>
      <trkpt lat="48.53656" lon="-3.44902">
        <ele>179.9</ele>
        <time>2013-06-14T08:19:05Z</time>
      </trkpt>
      <trkpt lat="48.53605" lon="-3.44971">
        <ele>178.46</ele>
        <time>2013-06-14T08:19:15Z</time>
      </trkpt>
      <trkpt lat="48.53601" lon="-3.44981">
        <ele>177.98</ele>
        <time>2013-06-14T08:19:16Z</time>
      </trkpt>
      <trkpt lat="48.53597" lon="-3.44992">
        <ele>177.02</ele>
        <time>2013-06-14T08:19:17Z</time>
      </trkpt>
      <trkpt lat="48.53594" lon="-3.45004">
        <ele>177.02</ele>
        <time>2013-06-14T08:19:18Z</time>
      </trkpt>
      <trkpt lat="48.53594" lon="-3.45017">
        <ele>176.06</ele>
        <time>2013-06-14T08:19:19Z</time>
      </trkpt>
      <trkpt lat="48.53597" lon="-3.4503">
        <ele>176.06</ele>
        <time>2013-06-14T08:19:20Z</time>
      </trkpt>
      <trkpt lat="48.53601" lon="-3.45042">
        <ele>175.58</ele>
        <time>2013-06-14T08:19:21Z</time>
      </trkpt>
      <trkpt lat="48.53607" lon="-3.45053">
        <ele>174.62</ele>
        <time>2013-06-14T08:19:22Z</time>
      </trkpt>
      <trkpt lat="48.53614" lon="-3.45062">
        <ele>174.62</ele>
        <time>2013-06-14T08:19:23Z</time>
      </trkpt>
      <trkpt lat="48.53621" lon="-3.45072">
        <ele>174.62</ele>
        <time>2013-06-14T08:19:24Z</time>
      </trkpt>
      <trkpt lat="48.53628" lon="-3.4508">
        <ele>173.66</ele>
        <time>2013-06-14T08:19:25Z</time>
      </trkpt>
      <trkpt lat="48.53678" lon="-3.45144">
        <ele>170.77</ele>
        <time>2013-06-14T08:19:32Z</time>
      </trkpt>
      <trkpt lat="48.53684" lon="-3.45156">
        <ele>170.29</ele>
        <time>2013-06-14T08:19:33Z</time>
      </trkpt>
      <trkpt lat="48.53688" lon="-3.45169">
        <ele>170.29</ele>
        <time>2013-06-14T08:19:34Z</time>
      </trkpt>
      <trkpt lat="48.53692" lon="-3.45182">
        <ele>169.81</ele>
        <time>2013-06-14T08:19:35Z</time>
      </trkpt>
      <trkpt lat="48.53695" lon="-3.45196">
        <ele>169.33</ele>
        <time>2013-06-14T08:19:36Z</time>
      </trkpt>
      <trkpt lat="48.53698" lon="-3.4521">
        <ele>169.33</ele>
        <time>2013-06-14T08:19:37Z</time>
      </trkpt>
      <trkpt lat="48.537" lon="-3.45224">
        <ele>168.85</ele>
        <time>2013-06-14T08:19:38Z</time>
      </trkpt>
      <trkpt lat="48.53701" lon="-3.45238">
        <ele>168.37</ele>
        <time>2013-06-14T08:19:39Z</time>
      </trkpt>
      <trkpt lat="48.53712" lon="-3.45327">
        <ele>165</ele>
        <time>2013-06-14T08:19:45Z</time>
      </trkpt>
      <trkpt lat="48.53725" lon="-3.45385">
        <ele>162.6</ele>
        <time>2013-06-14T08:19:49Z</time>
      </trkpt>
      <trkpt lat="48.53731" lon="-3.45398">
        <ele>161.64</ele>
        <time>2013-06-14T08:19:50Z</time>
      </trkpt>
      <trkpt lat="48.53736" lon="-3.4541">
        <ele>161.16</ele>
        <time>2013-06-14T08:19:51Z</time>
      </trkpt>
      <trkpt lat="48.53743" lon="-3.45422">
        <ele>161.16</ele>
        <time>2013-06-14T08:19:52Z</time>
      </trkpt>
      <trkpt lat="48.5375" lon="-3.45434">
        <ele>160.2</ele>
        <time>2013-06-14T08:19:53Z</time>
      </trkpt>
      <trkpt lat="48.53772" lon="-3.45469">
        <ele>158.75</ele>
        <time>2013-06-14T08:19:56Z</time>
      </trkpt>
      <trkpt lat="48.53796" lon="-3.45522">
        <ele>156.83</ele>
        <time>2013-06-14T08:20:00Z</time>
      </trkpt>
      <trkpt lat="48.53812" lon="-3.45581">
        <ele>153.47</ele>
        <time>2013-06-14T08:20:04Z</time>
      </trkpt>
      <trkpt lat="48.53815" lon="-3.45612">
        <ele>151.54</ele>
        <time>2013-06-14T08:20:06Z</time>
      </trkpt>
      <trkpt lat="48.53815" lon="-3.45628">
        <ele>151.06</ele>
        <time>2013-06-14T08:20:07Z</time>
      </trkpt>
      <trkpt lat="48.53814" lon="-3.45644">
        <ele>151.06</ele>
        <time>2013-06-14T08:20:08Z</time>
      </trkpt>
      <trkpt lat="48.53812" lon="-3.45659">
        <ele>151.06</ele>
        <time>2013-06-14T08:20:09Z</time>
      </trkpt>
      <trkpt lat="48.53809" lon="-3.45675">
        <ele>150.58</ele>
        <time>2013-06-14T08:20:10Z</time>
      </trkpt>
      <trkpt lat="48.53767" lon="-3.45792">
        <ele>148.66</ele>
        <time>2013-06-14T08:20:20Z</time>
      </trkpt>
      <trkpt lat="48.53699" lon="-3.459">
        <ele>147.7</ele>
        <time>2013-06-14T08:20:34Z</time>
      </trkpt>
      <trkpt lat="48.5361" lon="-3.46034">
        <ele>147.22</ele>
        <time>2013-06-14T08:20:52Z</time>
      </trkpt>
      <trkpt lat="48.53549" lon="-3.46175">
        <ele>144.82</ele>
        <time>2013-06-14T08:21:07Z</time>
      </trkpt>
      <trkpt lat="48.53483" lon="-3.463">
        <ele>143.37</ele>
        <time>2013-06-14T08:21:21Z</time>
      </trkpt>
      <trkpt lat="48.53478" lon="-3.4631">
        <ele>142.89</ele>
        <time>2013-06-14T08:21:22Z</time>
      </trkpt>
      <trkpt lat="48.53474" lon="-3.4632">
        <ele>142.89</ele>
        <time>2013-06-14T08:21:23Z</time>
      </trkpt>
      <trkpt lat="48.53471" lon="-3.46331">
        <ele>142.41</ele>
        <time>2013-06-14T08:21:24Z</time>
      </trkpt>
      <trkpt lat="48.53467" lon="-3.46342">
        <ele>142.41</ele>
        <time>2013-06-14T08:21:25Z</time>
      </trkpt>
      <trkpt lat="48.53426" lon="-3.4648">
        <ele>140.97</ele>
        <time>2013-06-14T08:21:39Z</time>
      </trkpt>
      <trkpt lat="48.53383" lon="-3.46624">
        <ele>140.01</ele>
        <time>2013-06-14T08:21:54Z</time>
      </trkpt>
      <trkpt lat="48.53329" lon="-3.46798">
        <ele>140.97</ele>
        <time>2013-06-14T08:22:13Z</time>
      </trkpt>
      <trkpt lat="48.53297" lon="-3.4693">
        <ele>140.49</ele>
        <time>2013-06-14T08:22:28Z</time>
      </trkpt>
      <trkpt lat="48.5329" lon="-3.46985">
        <ele>140.97</ele>
        <time>2013-06-14T08:22:34Z</time>
      </trkpt>
      <trkpt lat="48.53277" lon="-3.47108">
        <ele>141.45</ele>
        <time>2013-06-14T08:22:48Z</time>
      </trkpt>
      <trkpt lat="48.53261" lon="-3.47228">
        <ele>141.93</ele>
        <time>2013-06-14T08:23:02Z</time>
      </trkpt>
      <trkpt lat="48.53245" lon="-3.47342">
        <ele>142.41</ele>
        <time>2013-06-14T08:23:15Z</time>
      </trkpt>
      <trkpt lat="48.53224" lon="-3.4748">
        <ele>145.3</ele>
        <time>2013-06-14T08:23:32Z</time>
      </trkpt>
      <trkpt lat="48.53198" lon="-3.47606">
        <ele>148.18</ele>
        <time>2013-06-14T08:23:49Z</time>
      </trkpt>
      <trkpt lat="48.53187" lon="-3.47653">
        <ele>149.62</ele>
        <time>2013-06-14T08:23:56Z</time>
      </trkpt>
      <trkpt lat="48.53147" lon="-3.47737">
        <ele>151.06</ele>
        <time>2013-06-14T08:24:10Z</time>
      </trkpt>
      <trkpt lat="48.53142" lon="-3.4775">
        <ele>151.06</ele>
        <time>2013-06-14T08:24:12Z</time>
      </trkpt>
      <trkpt lat="48.53139" lon="-3.47756">
        <ele>151.06</ele>
        <time>2013-06-14T08:24:13Z</time>
      </trkpt>
      <trkpt lat="48.53136" lon="-3.47761">
        <ele>151.54</ele>
        <time>2013-06-14T08:24:14Z</time>
      </trkpt>
      <trkpt lat="48.53085" lon="-3.47812">
        <ele>154.43</ele>
        <time>2013-06-14T08:24:28Z</time>
      </trkpt>
      <trkpt lat="48.53058" lon="-3.47827">
        <ele>154.91</ele>
        <time>2013-06-14T08:24:34Z</time>
      </trkpt>
      <trkpt lat="48.53016" lon="-3.47835">
        <ele>155.87</ele>
        <time>2013-06-14T08:24:43Z</time>
      </trkpt>
      <trkpt lat="48.52931" lon="-3.47845">
        <ele>155.39</ele>
        <time>2013-06-14T08:24:59Z</time>
      </trkpt>
      <trkpt lat="48.52844" lon="-3.47862">
        <ele>155.87</ele>
        <time>2013-06-14T08:25:14Z</time>
      </trkpt>
      <trkpt lat="48.5276" lon="-3.47897">
        <ele>156.83</ele>
        <time>2013-06-14T08:25:29Z</time>
      </trkpt>
      <trkpt lat="48.52701" lon="-3.47954">
        <ele>156.83</ele>
        <time>2013-06-14T08:25:41Z</time>
      </trkpt>
      <trkpt lat="48.52693" lon="-3.47968">
        <ele>157.31</ele>
        <time>2013-06-14T08:25:43Z</time>
      </trkpt>
      <trkpt lat="48.52689" lon="-3.47975">
        <ele>156.83</ele>
        <time>2013-06-14T08:25:44Z</time>
      </trkpt>
      <trkpt lat="48.52684" lon="-3.47982">
        <ele>156.83</ele>
        <time>2013-06-14T08:25:45Z</time>
      </trkpt>
      <trkpt lat="48.52663" lon="-3.48011">
        <ele>156.83</ele>
        <time>2013-06-14T08:25:50Z</time>
      </trkpt>
      <trkpt lat="48.52632" lon="-3.48103">
        <ele>156.35</ele>
        <time>2013-06-14T08:26:02Z</time>
      </trkpt>
      <trkpt lat="48.52625" lon="-3.48129">
        <ele>156.35</ele>
        <time>2013-06-14T08:26:05Z</time>
      </trkpt>
      <trkpt lat="48.52621" lon="-3.48137">
        <ele>156.35</ele>
        <time>2013-06-14T08:26:06Z</time>
      </trkpt>
      <trkpt lat="48.52617" lon="-3.48144">
        <ele>156.35</ele>
        <time>2013-06-14T08:26:07Z</time>
      </trkpt>
      <trkpt lat="48.52612" lon="-3.4815">
        <ele>156.35</ele>
        <time>2013-06-14T08:26:08Z</time>
      </trkpt>
      <trkpt lat="48.52607" lon="-3.48157">
        <ele>155.87</ele>
        <time>2013-06-14T08:26:09Z</time>
      </trkpt>
      <trkpt lat="48.52602" lon="-3.48162">
        <ele>155.87</ele>
        <time>2013-06-14T08:26:10Z</time>
      </trkpt>
      <trkpt lat="48.52512" lon="-3.48242">
        <ele>155.87</ele>
        <time>2013-06-14T08:26:26Z</time>
      </trkpt>
      <trkpt lat="48.52444" lon="-3.48329">
        <ele>156.35</ele>
        <time>2013-06-14T08:26:40Z</time>
      </trkpt>
      <trkpt lat="48.52431" lon="-3.48351">
        <ele>156.35</ele>
        <time>2013-06-14T08:26:43Z</time>
      </trkpt>
      <trkpt lat="48.52358" lon="-3.48442">
        <ele>157.31</ele>
        <time>2013-06-14T08:26:58Z</time>
      </trkpt>
      <trkpt lat="48.52345" lon="-3.48458">
        <ele>157.31</ele>
        <time>2013-06-14T08:27:01Z</time>
      </trkpt>
      <trkpt lat="48.52337" lon="-3.48471">
        <ele>157.31</ele>
        <time>2013-06-14T08:27:03Z</time>
      </trkpt>
      <trkpt lat="48.52329" lon="-3.48486">
        <ele>157.31</ele>
        <time>2013-06-14T08:27:05Z</time>
      </trkpt>
      <trkpt lat="48.52291" lon="-3.48583">
        <ele>157.31</ele>
        <time>2013-06-14T08:27:18Z</time>
      </trkpt>
      <trkpt lat="48.52257" lon="-3.48639">
        <ele>157.79</ele>
        <time>2013-06-14T08:27:29Z</time>
      </trkpt>
      <trkpt lat="48.52239" lon="-3.48661">
        <ele>156.83</ele>
        <time>2013-06-14T08:27:37Z</time>
      </trkpt>
      <trkpt lat="48.52237" lon="-3.4866">
        <ele>156.83</ele>
        <time>2013-06-14T08:27:38Z</time>
      </trkpt>
      <trkpt lat="48.52236" lon="-3.48659">
        <ele>156.83</ele>
        <time>2013-06-14T08:27:39Z</time>
      </trkpt>
      <trkpt lat="48.52235" lon="-3.48659">
        <ele>156.83</ele>
        <time>2013-06-14T08:27:50Z</time>
      </trkpt>
      <trkpt lat="48.52234" lon="-3.48657">
        <ele>156.83</ele>
        <time>2013-06-14T08:28:15Z</time>
      </trkpt>
      <trkpt lat="48.52234" lon="-3.48658">
        <ele>157.31</ele>
        <time>2013-06-14T08:28:47Z</time>
      </trkpt>
      <trkpt lat="48.52236" lon="-3.4866">
        <ele>156.83</ele>
        <time>2013-06-14T08:29:12Z</time>
      </trkpt>
      <trkpt lat="48.52229" lon="-3.48658">
        <ele>156.83</ele>
        <time>2013-06-14T08:29:22Z</time>
      </trkpt>
      <trkpt lat="48.52227" lon="-3.48658">
        <ele>156.83</ele>
        <time>2013-06-14T08:29:30Z</time>
      </trkpt>
      <trkpt lat="48.52227" lon="-3.4866">
        <ele>157.31</ele>
        <time>2013-06-14T08:29:31Z</time>
      </trkpt>
      <trkpt lat="48.52228" lon="-3.48662">
        <ele>157.31</ele>
        <time>2013-06-14T08:29:32Z</time>
      </trkpt>
      <trkpt lat="48.52229" lon="-3.48664">
        <ele>157.31</ele>
        <time>2013-06-14T08:29:33Z</time>
      </trkpt>
      <trkpt lat="48.5223" lon="-3.48667">
        <ele>157.79</ele>
        <time>2013-06-14T08:29:34Z</time>
      </trkpt>
      <trkpt lat="48.52231" lon="-3.48671">
        <ele>157.79</ele>
        <time>2013-06-14T08:29:35Z</time>
      </trkpt>
      <trkpt lat="48.52236" lon="-3.48685">
        <ele>158.27</ele>
        <time>2013-06-14T08:29:38Z</time>
      </trkpt>
      <trkpt lat="48.5224" lon="-3.48688">
        <ele>158.27</ele>
        <time>2013-06-14T08:29:39Z</time>
      </trkpt>
      <trkpt lat="48.52245" lon="-3.48689">
        <ele>158.27</ele>
        <time>2013-06-14T08:29:40Z</time>
      </trkpt>
      <trkpt lat="48.5225" lon="-3.48688">
        <ele>158.27</ele>
        <time>2013-06-14T08:29:41Z</time>
      </trkpt>
      <trkpt lat="48.52255" lon="-3.48688">
        <ele>158.27</ele>
        <time>2013-06-14T08:29:42Z</time>
      </trkpt>
      <trkpt lat="48.52259" lon="-3.48689">
        <ele>158.27</ele>
        <time>2013-06-14T08:29:43Z</time>
      </trkpt>
      <trkpt lat="48.52264" lon="-3.48691">
        <ele>158.27</ele>
        <time>2013-06-14T08:29:44Z</time>
      </trkpt>
      <trkpt lat="48.52268" lon="-3.48694">
        <ele>158.27</ele>
        <time>2013-06-14T08:29:45Z</time>
      </trkpt>
      <trkpt lat="48.5229" lon="-3.48706">
        <ele>158.75</ele>
        <time>2013-06-14T08:29:50Z</time>
      </trkpt>
      <trkpt lat="48.52299" lon="-3.4871">
        <ele>158.27</ele>
        <time>2013-06-14T08:29:52Z</time>
      </trkpt>
      <trkpt lat="48.52321" lon="-3.48725">
        <ele>160.2</ele>
        <time>2013-06-14T08:29:57Z</time>
      </trkpt>
      <trkpt lat="48.52325" lon="-3.48728">
        <ele>159.72</ele>
        <time>2013-06-14T08:29:58Z</time>
      </trkpt>
      <trkpt lat="48.52378" lon="-3.48767">
        <ele>161.16</ele>
        <time>2013-06-14T08:30:10Z</time>
      </trkpt>
      <trkpt lat="48.52421" lon="-3.48816">
        <ele>163.56</ele>
        <time>2013-06-14T08:30:21Z</time>
      </trkpt>
      <trkpt lat="48.52436" lon="-3.48835">
        <ele>164.52</ele>
        <time>2013-06-14T08:30:25Z</time>
      </trkpt>
      <trkpt lat="48.52439" lon="-3.48839">
        <ele>164.52</ele>
        <time>2013-06-14T08:30:26Z</time>
      </trkpt>
      <trkpt lat="48.52477" lon="-3.48884">
        <ele>166.45</ele>
        <time>2013-06-14T08:30:36Z</time>
      </trkpt>
      <trkpt lat="48.52506" lon="-3.48931">
        <ele>166.93</ele>
        <time>2013-06-14T08:30:45Z</time>
      </trkpt>
      <trkpt lat="48.52529" lon="-3.48972">
        <ele>167.41</ele>
        <time>2013-06-14T08:30:52Z</time>
      </trkpt>
      <trkpt lat="48.52534" lon="-3.48978">
        <ele>167.41</ele>
        <time>2013-06-14T08:30:53Z</time>
      </trkpt>
      <trkpt lat="48.52541" lon="-3.4899">
        <ele>167.41</ele>
        <time>2013-06-14T08:30:55Z</time>
      </trkpt>
      <trkpt lat="48.52561" lon="-3.49021">
        <ele>167.89</ele>
        <time>2013-06-14T08:31:00Z</time>
      </trkpt>
      <trkpt lat="48.52565" lon="-3.49027">
        <ele>167.89</ele>
        <time>2013-06-14T08:31:01Z</time>
      </trkpt>
      <trkpt lat="48.52577" lon="-3.49056">
        <ele>168.37</ele>
        <time>2013-06-14T08:31:05Z</time>
      </trkpt>
      <trkpt lat="48.52597" lon="-3.4918">
        <ele>167.41</ele>
        <time>2013-06-14T08:31:19Z</time>
      </trkpt>
      <trkpt lat="48.52607" lon="-3.49312">
        <ele>167.41</ele>
        <time>2013-06-14T08:31:34Z</time>
      </trkpt>
      <trkpt lat="48.52617" lon="-3.4944">
        <ele>169.33</ele>
        <time>2013-06-14T08:31:50Z</time>
      </trkpt>
      <trkpt lat="48.52631" lon="-3.49569">
        <ele>171.73</ele>
        <time>2013-06-14T08:32:06Z</time>
      </trkpt>
      <trkpt lat="48.52633" lon="-3.49577">
        <ele>171.73</ele>
        <time>2013-06-14T08:32:07Z</time>
      </trkpt>
      <trkpt lat="48.52676" lon="-3.4967">
        <ele>172.21</ele>
        <time>2013-06-14T08:32:21Z</time>
      </trkpt>
      <trkpt lat="48.52748" lon="-3.49722">
        <ele>173.66</ele>
        <time>2013-06-14T08:32:35Z</time>
      </trkpt>
      <trkpt lat="48.52833" lon="-3.49729">
        <ele>174.62</ele>
        <time>2013-06-14T08:32:49Z</time>
      </trkpt>
      <trkpt lat="48.52904" lon="-3.4977">
        <ele>174.62</ele>
        <time>2013-06-14T08:33:01Z</time>
      </trkpt>
      <trkpt lat="48.52994" lon="-3.49866">
        <ele>175.58</ele>
        <time>2013-06-14T08:33:19Z</time>
      </trkpt>
      <trkpt lat="48.53057" lon="-3.49954">
        <ele>177.02</ele>
        <time>2013-06-14T08:33:33Z</time>
      </trkpt>
      <trkpt lat="48.53061" lon="-3.49961">
        <ele>177.02</ele>
        <time>2013-06-14T08:33:34Z</time>
      </trkpt>
      <trkpt lat="48.53065" lon="-3.49967">
        <ele>177.5</ele>
        <time>2013-06-14T08:33:35Z</time>
      </trkpt>
      <trkpt lat="48.53113" lon="-3.50039">
        <ele>180.38</ele>
        <time>2013-06-14T08:33:48Z</time>
      </trkpt>
      <trkpt lat="48.53125" lon="-3.50055">
        <ele>180.87</ele>
        <time>2013-06-14T08:33:51Z</time>
      </trkpt>
      <trkpt lat="48.53214" lon="-3.50111">
        <ele>181.83</ele>
        <time>2013-06-14T08:34:07Z</time>
      </trkpt>
      <trkpt lat="48.53357" lon="-3.50149">
        <ele>183.27</ele>
        <time>2013-06-14T08:34:29Z</time>
      </trkpt>
      <trkpt lat="48.53445" lon="-3.50162">
        <ele>187.11</ele>
        <time>2013-06-14T08:34:43Z</time>
      </trkpt>
      <trkpt lat="48.53555" lon="-3.50176">
        <ele>188.56</ele>
        <time>2013-06-14T08:35:00Z</time>
      </trkpt>
      <trkpt lat="48.53666" lon="-3.50173">
        <ele>190.96</ele>
        <time>2013-06-14T08:35:17Z</time>
      </trkpt>
      <trkpt lat="48.53771" lon="-3.5014">
        <ele>191.92</ele>
        <time>2013-06-14T08:35:32Z</time>
      </trkpt>
      <trkpt lat="48.53826" lon="-3.5011">
        <ele>191.92</ele>
        <time>2013-06-14T08:35:40Z</time>
      </trkpt>
      <trkpt lat="48.53832" lon="-3.50104">
        <ele>191.92</ele>
        <time>2013-06-14T08:35:41Z</time>
      </trkpt>
      <trkpt lat="48.53839" lon="-3.50097">
        <ele>192.4</ele>
        <time>2013-06-14T08:35:42Z</time>
      </trkpt>
      <trkpt lat="48.53928" lon="-3.50028">
        <ele>189.04</ele>
        <time>2013-06-14T08:35:54Z</time>
      </trkpt>
      <trkpt lat="48.53946" lon="-3.50024">
        <ele>188.56</ele>
        <time>2013-06-14T08:35:56Z</time>
      </trkpt>
      <trkpt lat="48.54056" lon="-3.50042">
        <ele>187.11</ele>
        <time>2013-06-14T08:36:08Z</time>
      </trkpt>
      <trkpt lat="48.54141" lon="-3.50068">
        <ele>183.75</ele>
        <time>2013-06-14T08:36:17Z</time>
      </trkpt>
      <trkpt lat="48.54229" lon="-3.50096">
        <ele>181.35</ele>
        <time>2013-06-14T08:36:25Z</time>
      </trkpt>
      <trkpt lat="48.54285" lon="-3.50126">
        <ele>178.94</ele>
        <time>2013-06-14T08:36:30Z</time>
      </trkpt>
      <trkpt lat="48.5434" lon="-3.5016">
        <ele>177.02</ele>
        <time>2013-06-14T08:36:35Z</time>
      </trkpt>
      <trkpt lat="48.54474" lon="-3.50218">
        <ele>173.66</ele>
        <time>2013-06-14T08:36:48Z</time>
      </trkpt>
      <trkpt lat="48.54659" lon="-3.50274">
        <ele>172.69</ele>
        <time>2013-06-14T08:37:08Z</time>
      </trkpt>
      <trkpt lat="48.54765" lon="-3.50321">
        <ele>175.58</ele>
        <time>2013-06-14T08:37:23Z</time>
      </trkpt>
      <trkpt lat="48.54898" lon="-3.50362">
        <ele>174.14</ele>
        <time>2013-06-14T08:37:40Z</time>
      </trkpt>
      <trkpt lat="48.5503" lon="-3.50419">
        <ele>172.21</ele>
        <time>2013-06-14T08:37:56Z</time>
      </trkpt>
      <trkpt lat="48.55102" lon="-3.5045">
        <ele>175.58</ele>
        <time>2013-06-14T08:38:08Z</time>
      </trkpt>
      <trkpt lat="48.55172" lon="-3.5051">
        <ele>178.46</ele>
        <time>2013-06-14T08:38:23Z</time>
      </trkpt>
      <trkpt lat="48.55237" lon="-3.50588">
        <ele>180.87</ele>
        <time>2013-06-14T08:38:38Z</time>
      </trkpt>
      <trkpt lat="48.55315" lon="-3.50646">
        <ele>183.75</ele>
        <time>2013-06-14T08:38:54Z</time>
      </trkpt>
      <trkpt lat="48.55408" lon="-3.50663">
        <ele>185.67</ele>
        <time>2013-06-14T08:39:11Z</time>
      </trkpt>
      <trkpt lat="48.55501" lon="-3.50642">
        <ele>188.56</ele>
        <time>2013-06-14T08:39:28Z</time>
      </trkpt>
      <trkpt lat="48.55597" lon="-3.50575">
        <ele>191.44</ele>
        <time>2013-06-14T08:39:47Z</time>
      </trkpt>
      <trkpt lat="48.55692" lon="-3.50496">
        <ele>193.36</ele>
        <time>2013-06-14T08:40:06Z</time>
      </trkpt>
      <trkpt lat="48.55782" lon="-3.50407">
        <ele>194.8</ele>
        <time>2013-06-14T08:40:24Z</time>
      </trkpt>
      <trkpt lat="48.55858" lon="-3.50331">
        <ele>197.69</ele>
        <time>2013-06-14T08:40:40Z</time>
      </trkpt>
      <trkpt lat="48.55935" lon="-3.50246">
        <ele>200.57</ele>
        <time>2013-06-14T08:40:57Z</time>
      </trkpt>
      <trkpt lat="48.56022" lon="-3.50145">
        <ele>202.01</ele>
        <time>2013-06-14T08:41:15Z</time>
      </trkpt>
      <trkpt lat="48.56094" lon="-3.50035">
        <ele>204.42</ele>
        <time>2013-06-14T08:41:32Z</time>
      </trkpt>
      <trkpt lat="48.56149" lon="-3.49956">
        <ele>206.34</ele>
        <time>2013-06-14T08:41:45Z</time>
      </trkpt>
      <trkpt lat="48.56222" lon="-3.4989">
        <ele>205.38</ele>
        <time>2013-06-14T08:41:59Z</time>
      </trkpt>
      <trkpt lat="48.56302" lon="-3.49833">
        <ele>203.94</ele>
        <time>2013-06-14T08:42:12Z</time>
      </trkpt>
      <trkpt lat="48.56363" lon="-3.49789">
        <ele>201.53</ele>
        <time>2013-06-14T08:42:20Z</time>
      </trkpt>
      <trkpt lat="48.5638" lon="-3.49777">
        <ele>200.09</ele>
        <time>2013-06-14T08:42:22Z</time>
      </trkpt>
      <trkpt lat="48.56406" lon="-3.49759">
        <ele>198.65</ele>
        <time>2013-06-14T08:42:25Z</time>
      </trkpt>
      <trkpt lat="48.56465" lon="-3.49717">
        <ele>194.8</ele>
        <time>2013-06-14T08:42:31Z</time>
      </trkpt>
      <trkpt lat="48.56538" lon="-3.49667">
        <ele>190.96</ele>
        <time>2013-06-14T08:42:38Z</time>
      </trkpt>
      <trkpt lat="48.56549" lon="-3.4966">
        <ele>190.96</ele>
        <time>2013-06-14T08:42:39Z</time>
      </trkpt>
      <trkpt lat="48.56568" lon="-3.49647">
        <ele>189.52</ele>
        <time>2013-06-14T08:42:41Z</time>
      </trkpt>
      <trkpt lat="48.56611" lon="-3.49618">
        <ele>185.67</ele>
        <time>2013-06-14T08:42:46Z</time>
      </trkpt>
      <trkpt lat="48.56616" lon="-3.49611">
        <ele>184.71</ele>
        <time>2013-06-14T08:42:47Z</time>
      </trkpt>
      <trkpt lat="48.5662" lon="-3.49603">
        <ele>184.23</ele>
        <time>2013-06-14T08:42:48Z</time>
      </trkpt>
      <trkpt lat="48.56633" lon="-3.49574">
        <ele>181.83</ele>
        <time>2013-06-14T08:42:55Z</time>
      </trkpt>
      <trkpt lat="48.56636" lon="-3.4957">
        <ele>181.83</ele>
        <time>2013-06-14T08:42:56Z</time>
      </trkpt>
      <trkpt lat="48.56641" lon="-3.49567">
        <ele>181.35</ele>
        <time>2013-06-14T08:42:57Z</time>
      </trkpt>
      <trkpt lat="48.56708" lon="-3.49517">
        <ele>178.46</ele>
        <time>2013-06-14T08:43:07Z</time>
      </trkpt>
      <trkpt lat="48.56806" lon="-3.49428">
        <ele>177.02</ele>
        <time>2013-06-14T08:43:21Z</time>
      </trkpt>
      <trkpt lat="48.56825" lon="-3.49408">
        <ele>175.58</ele>
        <time>2013-06-14T08:43:24Z</time>
      </trkpt>
      <trkpt lat="48.56915" lon="-3.49322">
        <ele>173.17</ele>
        <time>2013-06-14T08:43:38Z</time>
      </trkpt>
      <trkpt lat="48.57032" lon="-3.49202">
        <ele>171.25</ele>
        <time>2013-06-14T08:43:56Z</time>
      </trkpt>
      <trkpt lat="48.57133" lon="-3.49093">
        <ele>171.73</ele>
        <time>2013-06-14T08:44:13Z</time>
      </trkpt>
      <trkpt lat="48.57223" lon="-3.48997">
        <ele>172.69</ele>
        <time>2013-06-14T08:44:29Z</time>
      </trkpt>
      <trkpt lat="48.57248" lon="-3.48976">
        <ele>173.17</ele>
        <time>2013-06-14T08:44:33Z</time>
      </trkpt>
      <trkpt lat="48.573" lon="-3.48933">
        <ele>169.33</ele>
        <time>2013-06-14T08:44:41Z</time>
      </trkpt>
      <trkpt lat="48.57313" lon="-3.48919">
        <ele>168.85</ele>
        <time>2013-06-14T08:44:43Z</time>
      </trkpt>
      <trkpt lat="48.5738" lon="-3.48857">
        <ele>165.48</ele>
        <time>2013-06-14T08:44:52Z</time>
      </trkpt>
      <trkpt lat="48.57457" lon="-3.4878">
        <ele>162.6</ele>
        <time>2013-06-14T08:45:02Z</time>
      </trkpt>
      <trkpt lat="48.57465" lon="-3.48773">
        <ele>162.12</ele>
        <time>2013-06-14T08:45:03Z</time>
      </trkpt>
      <trkpt lat="48.57503" lon="-3.48735">
        <ele>158.75</ele>
        <time>2013-06-14T08:45:09Z</time>
      </trkpt>
      <trkpt lat="48.57516" lon="-3.48722">
        <ele>157.79</ele>
        <time>2013-06-14T08:45:13Z</time>
      </trkpt>
      <trkpt lat="48.57519" lon="-3.48719">
        <ele>157.79</ele>
        <time>2013-06-14T08:45:14Z</time>
      </trkpt>
      <trkpt lat="48.57524" lon="-3.48715">
        <ele>157.79</ele>
        <time>2013-06-14T08:45:15Z</time>
      </trkpt>
      <trkpt lat="48.57528" lon="-3.48712">
        <ele>157.79</ele>
        <time>2013-06-14T08:45:16Z</time>
      </trkpt>
      <trkpt lat="48.57533" lon="-3.48707">
        <ele>157.79</ele>
        <time>2013-06-14T08:45:17Z</time>
      </trkpt>
      <trkpt lat="48.57604" lon="-3.48638">
        <ele>156.35</ele>
        <time>2013-06-14T08:45:29Z</time>
      </trkpt>
      <trkpt lat="48.57692" lon="-3.48566">
        <ele>154.91</ele>
        <time>2013-06-14T08:45:41Z</time>
      </trkpt>
      <trkpt lat="48.57763" lon="-3.48519">
        <ele>155.39</ele>
        <time>2013-06-14T08:45:52Z</time>
      </trkpt>
      <trkpt lat="48.57809" lon="-3.48481">
        <ele>158.75</ele>
        <time>2013-06-14T08:46:04Z</time>
      </trkpt>
      <trkpt lat="48.57836" lon="-3.48469">
        <ele>162.12</ele>
        <time>2013-06-14T08:46:12Z</time>
      </trkpt>
      <trkpt lat="48.5786" lon="-3.48468">
        <ele>165.48</ele>
        <time>2013-06-14T08:46:20Z</time>
      </trkpt>
      <trkpt lat="48.57881" lon="-3.48481">
        <ele>168.85</ele>
        <time>2013-06-14T08:46:27Z</time>
      </trkpt>
      <trkpt lat="48.57912" lon="-3.48502">
        <ele>171.73</ele>
        <time>2013-06-14T08:46:37Z</time>
      </trkpt>
      <trkpt lat="48.57968" lon="-3.48538">
        <ele>174.62</ele>
        <time>2013-06-14T08:46:53Z</time>
      </trkpt>
      <trkpt lat="48.57987" lon="-3.48549">
        <ele>175.58</ele>
        <time>2013-06-14T08:46:58Z</time>
      </trkpt>
      <trkpt lat="48.58011" lon="-3.48565">
        <ele>177.02</ele>
        <time>2013-06-14T08:47:04Z</time>
      </trkpt>
      <trkpt lat="48.5802" lon="-3.48569">
        <ele>177.02</ele>
        <time>2013-06-14T08:47:06Z</time>
      </trkpt>
      <trkpt lat="48.58074" lon="-3.48581">
        <ele>178.46</ele>
        <time>2013-06-14T08:47:18Z</time>
      </trkpt>
      <trkpt lat="48.58123" lon="-3.48589">
        <ele>177.5</ele>
        <time>2013-06-14T08:47:27Z</time>
      </trkpt>
      <trkpt lat="48.58128" lon="-3.48588">
        <ele>177.5</ele>
        <time>2013-06-14T08:47:28Z</time>
      </trkpt>
      <trkpt lat="48.58134" lon="-3.48586">
        <ele>177.02</ele>
        <time>2013-06-14T08:47:29Z</time>
      </trkpt>
      <trkpt lat="48.58139" lon="-3.48582">
        <ele>177.02</ele>
        <time>2013-06-14T08:47:30Z</time>
      </trkpt>
      <trkpt lat="48.58144" lon="-3.48577">
        <ele>177.02</ele>
        <time>2013-06-14T08:47:31Z</time>
      </trkpt>
      <trkpt lat="48.58148" lon="-3.4857">
        <ele>177.02</ele>
        <time>2013-06-14T08:47:32Z</time>
      </trkpt>
      <trkpt lat="48.58153" lon="-3.48564">
        <ele>177.5</ele>
        <time>2013-06-14T08:47:33Z</time>
      </trkpt>
      <trkpt lat="48.58187" lon="-3.48511">
        <ele>176.54</ele>
        <time>2013-06-14T08:47:40Z</time>
      </trkpt>
      <trkpt lat="48.58192" lon="-3.48504">
        <ele>176.54</ele>
        <time>2013-06-14T08:47:41Z</time>
      </trkpt>
      <trkpt lat="48.58199" lon="-3.48498">
        <ele>176.06</ele>
        <time>2013-06-14T08:47:42Z</time>
      </trkpt>
      <trkpt lat="48.58206" lon="-3.48492">
        <ele>175.58</ele>
        <time>2013-06-14T08:47:43Z</time>
      </trkpt>
      <trkpt lat="48.58213" lon="-3.48487">
        <ele>175.58</ele>
        <time>2013-06-14T08:47:44Z</time>
      </trkpt>
      <trkpt lat="48.58287" lon="-3.48414">
        <ele>176.54</ele>
        <time>2013-06-14T08:47:57Z</time>
      </trkpt>
      <trkpt lat="48.58323" lon="-3.48351">
        <ele>177.5</ele>
        <time>2013-06-14T08:48:06Z</time>
      </trkpt>
      <trkpt lat="48.58366" lon="-3.48237">
        <ele>177.5</ele>
        <time>2013-06-14T08:48:20Z</time>
      </trkpt>
      <trkpt lat="48.58428" lon="-3.48177">
        <ele>177.5</ele>
        <time>2013-06-14T08:48:31Z</time>
      </trkpt>
      <trkpt lat="48.58531" lon="-3.48137">
        <ele>179.42</ele>
        <time>2013-06-14T08:48:48Z</time>
      </trkpt>
      <trkpt lat="48.58592" lon="-3.48098">
        <ele>181.83</ele>
        <time>2013-06-14T08:48:59Z</time>
      </trkpt>
      <trkpt lat="48.58598" lon="-3.48096">
        <ele>181.35</ele>
        <time>2013-06-14T08:49:00Z</time>
      </trkpt>
      <trkpt lat="48.58604" lon="-3.48095">
        <ele>181.35</ele>
        <time>2013-06-14T08:49:01Z</time>
      </trkpt>
      <trkpt lat="48.5861" lon="-3.48094">
        <ele>181.83</ele>
        <time>2013-06-14T08:49:02Z</time>
      </trkpt>
      <trkpt lat="48.58616" lon="-3.48093">
        <ele>181.83</ele>
        <time>2013-06-14T08:49:03Z</time>
      </trkpt>
      <trkpt lat="48.58702" lon="-3.48091">
        <ele>184.23</ele>
        <time>2013-06-14T08:49:18Z</time>
      </trkpt>
      <trkpt lat="48.58795" lon="-3.48082">
        <ele>181.35</ele>
        <time>2013-06-14T08:49:31Z</time>
      </trkpt>
      <trkpt lat="48.58869" lon="-3.48079">
        <ele>178.46</ele>
        <time>2013-06-14T08:49:39Z</time>
      </trkpt>
      <trkpt lat="48.58982" lon="-3.48043">
        <ele>177.98</ele>
        <time>2013-06-14T08:49:52Z</time>
      </trkpt>
      <trkpt lat="48.58997" lon="-3.48033">
        <ele>177.98</ele>
        <time>2013-06-14T08:49:54Z</time>
      </trkpt>
      <trkpt lat="48.59004" lon="-3.48027">
        <ele>177.98</ele>
        <time>2013-06-14T08:49:55Z</time>
      </trkpt>
      <trkpt lat="48.59011" lon="-3.4802">
        <ele>177.98</ele>
        <time>2013-06-14T08:49:56Z</time>
      </trkpt>
      <trkpt lat="48.59037" lon="-3.47989">
        <ele>177.98</ele>
        <time>2013-06-14T08:50:00Z</time>
      </trkpt>
      <trkpt lat="48.59066" lon="-3.47967">
        <ele>177.98</ele>
        <time>2013-06-14T08:50:04Z</time>
      </trkpt>
      <trkpt lat="48.59074" lon="-3.47964">
        <ele>177.98</ele>
        <time>2013-06-14T08:50:05Z</time>
      </trkpt>
      <trkpt lat="48.59082" lon="-3.47962">
        <ele>177.98</ele>
        <time>2013-06-14T08:50:06Z</time>
      </trkpt>
      <trkpt lat="48.5909" lon="-3.47961">
        <ele>177.98</ele>
        <time>2013-06-14T08:50:07Z</time>
      </trkpt>
      <trkpt lat="48.59097" lon="-3.47961">
        <ele>177.98</ele>
        <time>2013-06-14T08:50:08Z</time>
      </trkpt>
      <trkpt lat="48.59144" lon="-3.47962">
        <ele>179.9</ele>
        <time>2013-06-14T08:50:15Z</time>
      </trkpt>
      <trkpt lat="48.59151" lon="-3.4796">
        <ele>179.9</ele>
        <time>2013-06-14T08:50:16Z</time>
      </trkpt>
      <trkpt lat="48.59157" lon="-3.47957">
        <ele>180.38</ele>
        <time>2013-06-14T08:50:17Z</time>
      </trkpt>
      <trkpt lat="48.59163" lon="-3.47954">
        <ele>180.38</ele>
        <time>2013-06-14T08:50:18Z</time>
      </trkpt>
      <trkpt lat="48.5917" lon="-3.4795">
        <ele>179.9</ele>
        <time>2013-06-14T08:50:19Z</time>
      </trkpt>
      <trkpt lat="48.59176" lon="-3.47945">
        <ele>179.9</ele>
        <time>2013-06-14T08:50:20Z</time>
      </trkpt>
      <trkpt lat="48.59182" lon="-3.4794">
        <ele>179.42</ele>
        <time>2013-06-14T08:50:21Z</time>
      </trkpt>
      <trkpt lat="48.59267" lon="-3.47861">
        <ele>176.54</ele>
        <time>2013-06-14T08:50:33Z</time>
      </trkpt>
      <trkpt lat="48.59358" lon="-3.47775">
        <ele>173.17</ele>
        <time>2013-06-14T08:50:44Z</time>
      </trkpt>
      <trkpt lat="48.59478" lon="-3.47674">
        <ele>170.29</ele>
        <time>2013-06-14T08:50:58Z</time>
      </trkpt>
      <trkpt lat="48.59556" lon="-3.4762">
        <ele>168.37</ele>
        <time>2013-06-14T08:51:07Z</time>
      </trkpt>
      <trkpt lat="48.59589" lon="-3.47583">
        <ele>166.93</ele>
        <time>2013-06-14T08:51:11Z</time>
      </trkpt>
      <trkpt lat="48.59596" lon="-3.47572">
        <ele>166.45</ele>
        <time>2013-06-14T08:51:12Z</time>
      </trkpt>
      <trkpt lat="48.59603" lon="-3.47561">
        <ele>166.93</ele>
        <time>2013-06-14T08:51:13Z</time>
      </trkpt>
      <trkpt lat="48.59609" lon="-3.47548">
        <ele>166.93</ele>
        <time>2013-06-14T08:51:14Z</time>
      </trkpt>
      <trkpt lat="48.59632" lon="-3.47496">
        <ele>165.96</ele>
        <time>2013-06-14T08:51:18Z</time>
      </trkpt>
      <trkpt lat="48.59639" lon="-3.47485">
        <ele>165.96</ele>
        <time>2013-06-14T08:51:19Z</time>
      </trkpt>
      <trkpt lat="48.59647" lon="-3.47476">
        <ele>165.48</ele>
        <time>2013-06-14T08:51:20Z</time>
      </trkpt>
      <trkpt lat="48.59656" lon="-3.4747">
        <ele>165.48</ele>
        <time>2013-06-14T08:51:21Z</time>
      </trkpt>
      <trkpt lat="48.59665" lon="-3.47464">
        <ele>165.48</ele>
        <time>2013-06-14T08:51:22Z</time>
      </trkpt>
      <trkpt lat="48.59674" lon="-3.4746">
        <ele>164.52</ele>
        <time>2013-06-14T08:51:23Z</time>
      </trkpt>
      <trkpt lat="48.59683" lon="-3.47456">
        <ele>164.04</ele>
        <time>2013-06-14T08:51:24Z</time>
      </trkpt>
      <trkpt lat="48.59692" lon="-3.47453">
        <ele>163.56</ele>
        <time>2013-06-14T08:51:25Z</time>
      </trkpt>
      <trkpt lat="48.59825" lon="-3.47421">
        <ele>160.68</ele>
        <time>2013-06-14T08:51:39Z</time>
      </trkpt>
      <trkpt lat="48.5992" lon="-3.47371">
        <ele>158.75</ele>
        <time>2013-06-14T08:51:50Z</time>
      </trkpt>
      <trkpt lat="48.60037" lon="-3.47332">
        <ele>157.31</ele>
        <time>2013-06-14T08:52:04Z</time>
      </trkpt>
      <trkpt lat="48.60141" lon="-3.47301">
        <ele>158.75</ele>
        <time>2013-06-14T08:52:19Z</time>
      </trkpt>
      <trkpt lat="48.60197" lon="-3.47272">
        <ele>158.75</ele>
        <time>2013-06-14T08:52:28Z</time>
      </trkpt>
      <trkpt lat="48.60203" lon="-3.47266">
        <ele>158.27</ele>
        <time>2013-06-14T08:52:29Z</time>
      </trkpt>
      <trkpt lat="48.60208" lon="-3.47257">
        <ele>158.75</ele>
        <time>2013-06-14T08:52:30Z</time>
      </trkpt>
      <trkpt lat="48.60213" lon="-3.47248">
        <ele>158.27</ele>
        <time>2013-06-14T08:52:31Z</time>
      </trkpt>
      <trkpt lat="48.60217" lon="-3.47238">
        <ele>158.75</ele>
        <time>2013-06-14T08:52:32Z</time>
      </trkpt>
      <trkpt lat="48.60289" lon="-3.47135">
        <ele>157.79</ele>
        <time>2013-06-14T08:52:45Z</time>
      </trkpt>
      <trkpt lat="48.60296" lon="-3.47131">
        <ele>157.31</ele>
        <time>2013-06-14T08:52:46Z</time>
      </trkpt>
      <trkpt lat="48.60304" lon="-3.47128">
        <ele>156.83</ele>
        <time>2013-06-14T08:52:47Z</time>
      </trkpt>
      <trkpt lat="48.60391" lon="-3.47104">
        <ele>158.75</ele>
        <time>2013-06-14T08:53:00Z</time>
      </trkpt>
      <trkpt lat="48.60402" lon="-3.47101">
        <ele>158.75</ele>
        <time>2013-06-14T08:53:02Z</time>
      </trkpt>
      <trkpt lat="48.60471" lon="-3.47065">
        <ele>158.75</ele>
        <time>2013-06-14T08:53:14Z</time>
      </trkpt>
      <trkpt lat="48.60477" lon="-3.47057">
        <ele>158.75</ele>
        <time>2013-06-14T08:53:15Z</time>
      </trkpt>
      <trkpt lat="48.60483" lon="-3.47048">
        <ele>158.27</ele>
        <time>2013-06-14T08:53:16Z</time>
      </trkpt>
      <trkpt lat="48.60488" lon="-3.47038">
        <ele>157.79</ele>
        <time>2013-06-14T08:53:17Z</time>
      </trkpt>
      <trkpt lat="48.60504" lon="-3.47001">
        <ele>154.43</ele>
        <time>2013-06-14T08:53:20Z</time>
      </trkpt>
      <trkpt lat="48.60515" lon="-3.46978">
        <ele>152.51</ele>
        <time>2013-06-14T08:53:22Z</time>
      </trkpt>
      <trkpt lat="48.60521" lon="-3.46969">
        <ele>151.54</ele>
        <time>2013-06-14T08:53:23Z</time>
      </trkpt>
      <trkpt lat="48.60528" lon="-3.46963">
        <ele>150.58</ele>
        <time>2013-06-14T08:53:24Z</time>
      </trkpt>
      <trkpt lat="48.60536" lon="-3.4696">
        <ele>149.14</ele>
        <time>2013-06-14T08:53:25Z</time>
      </trkpt>
      <trkpt lat="48.60544" lon="-3.46958">
        <ele>148.66</ele>
        <time>2013-06-14T08:53:26Z</time>
      </trkpt>
      <trkpt lat="48.60553" lon="-3.46958">
        <ele>148.18</ele>
        <time>2013-06-14T08:53:27Z</time>
      </trkpt>
      <trkpt lat="48.60563" lon="-3.46959">
        <ele>147.22</ele>
        <time>2013-06-14T08:53:28Z</time>
      </trkpt>
      <trkpt lat="48.60573" lon="-3.46961">
        <ele>147.22</ele>
        <time>2013-06-14T08:53:29Z</time>
      </trkpt>
      <trkpt lat="48.60602" lon="-3.46966">
        <ele>143.85</ele>
        <time>2013-06-14T08:53:32Z</time>
      </trkpt>
      <trkpt lat="48.60617" lon="-3.46968">
        <ele>140.97</ele>
        <time>2013-06-14T08:53:34Z</time>
      </trkpt>
      <trkpt lat="48.60637" lon="-3.46968">
        <ele>137.61</ele>
        <time>2013-06-14T08:53:38Z</time>
      </trkpt>
      <trkpt lat="48.60666" lon="-3.46969">
        <ele>137.13</ele>
        <time>2013-06-14T08:53:48Z</time>
      </trkpt>
      <trkpt lat="48.60712" lon="-3.46966">
        <ele>133.76</ele>
        <time>2013-06-14T08:53:56Z</time>
      </trkpt>
      <trkpt lat="48.60724" lon="-3.46964">
        <ele>133.28</ele>
        <time>2013-06-14T08:53:58Z</time>
      </trkpt>
      <trkpt lat="48.60729" lon="-3.46962">
        <ele>132.32</ele>
        <time>2013-06-14T08:53:59Z</time>
      </trkpt>
      <trkpt lat="48.60733" lon="-3.46959">
        <ele>131.84</ele>
        <time>2013-06-14T08:54:00Z</time>
      </trkpt>
      <trkpt lat="48.60736" lon="-3.46956">
        <ele>131.36</ele>
        <time>2013-06-14T08:54:01Z</time>
      </trkpt>
      <trkpt lat="48.60753" lon="-3.4695">
        <ele>130.4</ele>
        <time>2013-06-14T08:54:07Z</time>
      </trkpt>
      <trkpt lat="48.60757" lon="-3.46953">
        <ele>130.4</ele>
        <time>2013-06-14T08:54:08Z</time>
      </trkpt>
      <trkpt lat="48.60762" lon="-3.46956">
        <ele>129.92</ele>
        <time>2013-06-14T08:54:09Z</time>
      </trkpt>
      <trkpt lat="48.6084" lon="-3.47014">
        <ele>127.51</ele>
        <time>2013-06-14T08:54:21Z</time>
      </trkpt>
      <trkpt lat="48.60907" lon="-3.47064">
        <ele>124.15</ele>
        <time>2013-06-14T08:54:30Z</time>
      </trkpt>
      <trkpt lat="48.60923" lon="-3.47075">
        <ele>123.19</ele>
        <time>2013-06-14T08:54:32Z</time>
      </trkpt>
      <trkpt lat="48.60995" lon="-3.47127">
        <ele>125.11</ele>
        <time>2013-06-14T08:54:44Z</time>
      </trkpt>
      <trkpt lat="48.61058" lon="-3.47175">
        <ele>127.99</ele>
        <time>2013-06-14T08:54:58Z</time>
      </trkpt>
      <trkpt lat="48.61111" lon="-3.47215">
        <ele>131.36</ele>
        <time>2013-06-14T08:55:11Z</time>
      </trkpt>
      <trkpt lat="48.61167" lon="-3.4726">
        <ele>134.72</ele>
        <time>2013-06-14T08:55:27Z</time>
      </trkpt>
      <trkpt lat="48.6117" lon="-3.47263">
        <ele>135.2</ele>
        <time>2013-06-14T08:55:28Z</time>
      </trkpt>
      <trkpt lat="48.61171" lon="-3.47267">
        <ele>135.68</ele>
        <time>2013-06-14T08:55:29Z</time>
      </trkpt>
      <trkpt lat="48.61172" lon="-3.47272">
        <ele>135.68</ele>
        <time>2013-06-14T08:55:30Z</time>
      </trkpt>
      <trkpt lat="48.61172" lon="-3.47278">
        <ele>135.68</ele>
        <time>2013-06-14T08:55:31Z</time>
      </trkpt>
      <trkpt lat="48.61172" lon="-3.47284">
        <ele>135.68</ele>
        <time>2013-06-14T08:55:32Z</time>
      </trkpt>
      <trkpt lat="48.61171" lon="-3.47297">
        <ele>135.68</ele>
        <time>2013-06-14T08:55:34Z</time>
      </trkpt>
      <trkpt lat="48.61172" lon="-3.47303">
        <ele>135.68</ele>
        <time>2013-06-14T08:55:35Z</time>
      </trkpt>
      <trkpt lat="48.61173" lon="-3.4731">
        <ele>135.68</ele>
        <time>2013-06-14T08:55:36Z</time>
      </trkpt>
      <trkpt lat="48.61175" lon="-3.47317">
        <ele>135.2</ele>
        <time>2013-06-14T08:55:37Z</time>
      </trkpt>
      <trkpt lat="48.61177" lon="-3.47324">
        <ele>135.2</ele>
        <time>2013-06-14T08:55:38Z</time>
      </trkpt>
      <trkpt lat="48.61179" lon="-3.47331">
        <ele>135.2</ele>
        <time>2013-06-14T08:55:39Z</time>
      </trkpt>
      <trkpt lat="48.61182" lon="-3.47338">
        <ele>135.2</ele>
        <time>2013-06-14T08:55:40Z</time>
      </trkpt>
      <trkpt lat="48.61186" lon="-3.47344">
        <ele>134.72</ele>
        <time>2013-06-14T08:55:41Z</time>
      </trkpt>
      <trkpt lat="48.6119" lon="-3.47349">
        <ele>134.72</ele>
        <time>2013-06-14T08:55:42Z</time>
      </trkpt>
      <trkpt lat="48.61194" lon="-3.47354">
        <ele>134.72</ele>
        <time>2013-06-14T08:55:43Z</time>
      </trkpt>
      <trkpt lat="48.61201" lon="-3.47363">
        <ele>134.72</ele>
        <time>2013-06-14T08:55:45Z</time>
      </trkpt>
      <trkpt lat="48.61203" lon="-3.4737">
        <ele>134.72</ele>
        <time>2013-06-14T08:55:46Z</time>
      </trkpt>
      <trkpt lat="48.61205" lon="-3.47377">
        <ele>134.72</ele>
        <time>2013-06-14T08:55:47Z</time>
      </trkpt>
      <trkpt lat="48.61217" lon="-3.47454">
        <ele>135.2</ele>
        <time>2013-06-14T08:55:57Z</time>
      </trkpt>
      <trkpt lat="48.61218" lon="-3.47467">
        <ele>135.68</ele>
        <time>2013-06-14T08:55:59Z</time>
      </trkpt>
      <trkpt lat="48.61218" lon="-3.47474">
        <ele>135.68</ele>
        <time>2013-06-14T08:56:00Z</time>
      </trkpt>
      <trkpt lat="48.61217" lon="-3.4748">
        <ele>135.68</ele>
        <time>2013-06-14T08:56:01Z</time>
      </trkpt>
      <trkpt lat="48.61216" lon="-3.47488">
        <ele>135.68</ele>
        <time>2013-06-14T08:56:02Z</time>
      </trkpt>
      <trkpt lat="48.61216" lon="-3.47495">
        <ele>136.16</ele>
        <time>2013-06-14T08:56:03Z</time>
      </trkpt>
      <trkpt lat="48.61216" lon="-3.47502">
        <ele>136.64</ele>
        <time>2013-06-14T08:56:04Z</time>
      </trkpt>
      <trkpt lat="48.61189" lon="-3.47598">
        <ele>137.61</ele>
        <time>2013-06-14T08:56:18Z</time>
      </trkpt>
      <trkpt lat="48.61161" lon="-3.47684">
        <ele>140.97</ele>
        <time>2013-06-14T08:56:33Z</time>
      </trkpt>
      <trkpt lat="48.61142" lon="-3.47708">
        <ele>144.34</ele>
        <time>2013-06-14T08:56:40Z</time>
      </trkpt>
      <trkpt lat="48.61118" lon="-3.47733">
        <ele>144.82</ele>
        <time>2013-06-14T08:56:48Z</time>
      </trkpt>
      <trkpt lat="48.61116" lon="-3.47737">
        <ele>144.82</ele>
        <time>2013-06-14T08:56:49Z</time>
      </trkpt>
      <trkpt lat="48.61114" lon="-3.47743">
        <ele>144.82</ele>
        <time>2013-06-14T08:56:50Z</time>
      </trkpt>
      <trkpt lat="48.61111" lon="-3.47753">
        <ele>144.82</ele>
        <time>2013-06-14T08:56:52Z</time>
      </trkpt>
      <trkpt lat="48.61111" lon="-3.47759">
        <ele>144.82</ele>
        <time>2013-06-14T08:56:53Z</time>
      </trkpt>
      <trkpt lat="48.61114" lon="-3.47785">
        <ele>145.3</ele>
        <time>2013-06-14T08:56:57Z</time>
      </trkpt>
      <trkpt lat="48.61115" lon="-3.47793">
        <ele>144.82</ele>
        <time>2013-06-14T08:56:58Z</time>
      </trkpt>
      <trkpt lat="48.61125" lon="-3.47837">
        <ele>144.34</ele>
        <time>2013-06-14T08:57:03Z</time>
      </trkpt>
      <trkpt lat="48.61126" lon="-3.47847">
        <ele>144.34</ele>
        <time>2013-06-14T08:57:04Z</time>
      </trkpt>
      <trkpt lat="48.61115" lon="-3.48003">
        <ele>142.89</ele>
        <time>2013-06-14T08:57:20Z</time>
      </trkpt>
      <trkpt lat="48.61112" lon="-3.48059">
        <ele>142.89</ele>
        <time>2013-06-14T08:57:26Z</time>
      </trkpt>
      <trkpt lat="48.61129" lon="-3.48158">
        <ele>146.26</ele>
        <time>2013-06-14T08:57:38Z</time>
      </trkpt>
      <trkpt lat="48.61134" lon="-3.48177">
        <ele>146.74</ele>
        <time>2013-06-14T08:57:41Z</time>
      </trkpt>
      <trkpt lat="48.61135" lon="-3.48185">
        <ele>147.22</ele>
        <time>2013-06-14T08:57:42Z</time>
      </trkpt>
      <trkpt lat="48.61135" lon="-3.48192">
        <ele>147.22</ele>
        <time>2013-06-14T08:57:43Z</time>
      </trkpt>
      <trkpt lat="48.61135" lon="-3.48199">
        <ele>147.7</ele>
        <time>2013-06-14T08:57:44Z</time>
      </trkpt>
      <trkpt lat="48.61134" lon="-3.48207">
        <ele>148.18</ele>
        <time>2013-06-14T08:57:45Z</time>
      </trkpt>
      <trkpt lat="48.61132" lon="-3.48223">
        <ele>148.66</ele>
        <time>2013-06-14T08:57:47Z</time>
      </trkpt>
      <trkpt lat="48.61114" lon="-3.48324">
        <ele>150.1</ele>
        <time>2013-06-14T08:58:01Z</time>
      </trkpt>
      <trkpt lat="48.61086" lon="-3.4844">
        <ele>152.99</ele>
        <time>2013-06-14T08:58:18Z</time>
      </trkpt>
      <trkpt lat="48.61053" lon="-3.48558">
        <ele>155.87</ele>
        <time>2013-06-14T08:58:36Z</time>
      </trkpt>
      <trkpt lat="48.61045" lon="-3.48628">
        <ele>159.24</ele>
        <time>2013-06-14T08:58:46Z</time>
      </trkpt>
      <trkpt lat="48.61036" lon="-3.48735">
        <ele>161.64</ele>
        <time>2013-06-14T08:59:02Z</time>
      </trkpt>
      <trkpt lat="48.6104" lon="-3.48843">
        <ele>165</ele>
        <time>2013-06-14T08:59:17Z</time>
      </trkpt>
      <trkpt lat="48.61018" lon="-3.48953">
        <ele>167.89</ele>
        <time>2013-06-14T08:59:33Z</time>
      </trkpt>
      <trkpt lat="48.61003" lon="-3.49004">
        <ele>169.33</ele>
        <time>2013-06-14T08:59:41Z</time>
      </trkpt>
      <trkpt lat="48.61002" lon="-3.49011">
        <ele>169.33</ele>
        <time>2013-06-14T08:59:42Z</time>
      </trkpt>
      <trkpt lat="48.60999" lon="-3.4904">
        <ele>170.29</ele>
        <time>2013-06-14T08:59:46Z</time>
      </trkpt>
      <trkpt lat="48.60997" lon="-3.49047">
        <ele>170.29</ele>
        <time>2013-06-14T08:59:47Z</time>
      </trkpt>
      <trkpt lat="48.60964" lon="-3.49141">
        <ele>172.69</ele>
        <time>2013-06-14T09:00:02Z</time>
      </trkpt>
      <trkpt lat="48.60939" lon="-3.49274">
        <ele>173.66</ele>
        <time>2013-06-14T09:00:20Z</time>
      </trkpt>
      <trkpt lat="48.60899" lon="-3.49385">
        <ele>174.14</ele>
        <time>2013-06-14T09:00:34Z</time>
      </trkpt>
      <trkpt lat="48.60881" lon="-3.49428">
        <ele>172.21</ele>
        <time>2013-06-14T09:00:39Z</time>
      </trkpt>
      <trkpt lat="48.60868" lon="-3.49454">
        <ele>170.77</ele>
        <time>2013-06-14T09:00:42Z</time>
      </trkpt>
      <trkpt lat="48.60794" lon="-3.49581">
        <ele>169.33</ele>
        <time>2013-06-14T09:00:57Z</time>
      </trkpt>
      <trkpt lat="48.60762" lon="-3.49646">
        <ele>166.93</ele>
        <time>2013-06-14T09:01:04Z</time>
      </trkpt>
      <trkpt lat="48.60756" lon="-3.49654">
        <ele>166.45</ele>
        <time>2013-06-14T09:01:05Z</time>
      </trkpt>
      <trkpt lat="48.6075" lon="-3.49661">
        <ele>166.45</ele>
        <time>2013-06-14T09:01:06Z</time>
      </trkpt>
      <trkpt lat="48.6066" lon="-3.49752">
        <ele>163.08</ele>
        <time>2013-06-14T09:01:20Z</time>
      </trkpt>
      <trkpt lat="48.60632" lon="-3.49799">
        <ele>160.2</ele>
        <time>2013-06-14T09:01:25Z</time>
      </trkpt>
      <trkpt lat="48.60569" lon="-3.49892">
        <ele>156.83</ele>
        <time>2013-06-14T09:01:35Z</time>
      </trkpt>
      <trkpt lat="48.60545" lon="-3.49943">
        <ele>155.87</ele>
        <time>2013-06-14T09:01:40Z</time>
      </trkpt>
      <trkpt lat="48.60543" lon="-3.49954">
        <ele>155.87</ele>
        <time>2013-06-14T09:01:41Z</time>
      </trkpt>
      <trkpt lat="48.60531" lon="-3.50007">
        <ele>154.91</ele>
        <time>2013-06-14T09:01:46Z</time>
      </trkpt>
      <trkpt lat="48.60474" lon="-3.50126">
        <ele>155.39</ele>
        <time>2013-06-14T09:02:01Z</time>
      </trkpt>
      <trkpt lat="48.60451" lon="-3.50232">
        <ele>157.31</ele>
        <time>2013-06-14T09:02:13Z</time>
      </trkpt>
      <trkpt lat="48.60449" lon="-3.50394">
        <ele>155.39</ele>
        <time>2013-06-14T09:02:28Z</time>
      </trkpt>
      <trkpt lat="48.6046" lon="-3.505">
        <ele>153.95</ele>
        <time>2013-06-14T09:02:37Z</time>
      </trkpt>
      <trkpt lat="48.60463" lon="-3.50511">
        <ele>153.95</ele>
        <time>2013-06-14T09:02:38Z</time>
      </trkpt>
      <trkpt lat="48.60467" lon="-3.50521">
        <ele>153.95</ele>
        <time>2013-06-14T09:02:39Z</time>
      </trkpt>
      <trkpt lat="48.60472" lon="-3.50529">
        <ele>153.47</ele>
        <time>2013-06-14T09:02:40Z</time>
      </trkpt>
      <trkpt lat="48.60477" lon="-3.50537">
        <ele>152.99</ele>
        <time>2013-06-14T09:02:41Z</time>
      </trkpt>
      <trkpt lat="48.60482" lon="-3.50544">
        <ele>152.99</ele>
        <time>2013-06-14T09:02:42Z</time>
      </trkpt>
      <trkpt lat="48.60564" lon="-3.50631">
        <ele>151.54</ele>
        <time>2013-06-14T09:02:56Z</time>
      </trkpt>
      <trkpt lat="48.60646" lon="-3.50708">
        <ele>148.18</ele>
        <time>2013-06-14T09:03:08Z</time>
      </trkpt>
      <trkpt lat="48.60667" lon="-3.50733">
        <ele>147.7</ele>
        <time>2013-06-14T09:03:11Z</time>
      </trkpt>
      <trkpt lat="48.60673" lon="-3.50744">
        <ele>147.7</ele>
        <time>2013-06-14T09:03:12Z</time>
      </trkpt>
      <trkpt lat="48.60694" lon="-3.50788">
        <ele>144.82</ele>
        <time>2013-06-14T09:03:16Z</time>
      </trkpt>
      <trkpt lat="48.60729" lon="-3.50857">
        <ele>142.41</ele>
        <time>2013-06-14T09:03:22Z</time>
      </trkpt>
      <trkpt lat="48.60737" lon="-3.50868">
        <ele>141.93</ele>
        <time>2013-06-14T09:03:23Z</time>
      </trkpt>
      <trkpt lat="48.60745" lon="-3.50877">
        <ele>141.45</ele>
        <time>2013-06-14T09:03:24Z</time>
      </trkpt>
      <trkpt lat="48.60754" lon="-3.50885">
        <ele>140.97</ele>
        <time>2013-06-14T09:03:25Z</time>
      </trkpt>
      <trkpt lat="48.60764" lon="-3.50891">
        <ele>140.01</ele>
        <time>2013-06-14T09:03:26Z</time>
      </trkpt>
      <trkpt lat="48.60774" lon="-3.50895">
        <ele>139.53</ele>
        <time>2013-06-14T09:03:27Z</time>
      </trkpt>
      <trkpt lat="48.60803" lon="-3.5091">
        <ele>136.64</ele>
        <time>2013-06-14T09:03:30Z</time>
      </trkpt>
      <trkpt lat="48.60812" lon="-3.50918">
        <ele>136.16</ele>
        <time>2013-06-14T09:03:31Z</time>
      </trkpt>
      <trkpt lat="48.60821" lon="-3.50928">
        <ele>136.16</ele>
        <time>2013-06-14T09:03:32Z</time>
      </trkpt>
      <trkpt lat="48.60829" lon="-3.50938">
        <ele>135.68</ele>
        <time>2013-06-14T09:03:33Z</time>
      </trkpt>
      <trkpt lat="48.60837" lon="-3.50949">
        <ele>135.68</ele>
        <time>2013-06-14T09:03:34Z</time>
      </trkpt>
      <trkpt lat="48.60886" lon="-3.51016">
        <ele>132.8</ele>
        <time>2013-06-14T09:03:40Z</time>
      </trkpt>
      <trkpt lat="48.60925" lon="-3.51048">
        <ele>129.92</ele>
        <time>2013-06-14T09:03:44Z</time>
      </trkpt>
      <trkpt lat="48.60964" lon="-3.5108">
        <ele>127.99</ele>
        <time>2013-06-14T09:03:48Z</time>
      </trkpt>
      <trkpt lat="48.60973" lon="-3.5109">
        <ele>127.51</ele>
        <time>2013-06-14T09:03:49Z</time>
      </trkpt>
      <trkpt lat="48.6098" lon="-3.51103">
        <ele>126.55</ele>
        <time>2013-06-14T09:03:50Z</time>
      </trkpt>
      <trkpt lat="48.60987" lon="-3.51116">
        <ele>125.59</ele>
        <time>2013-06-14T09:03:51Z</time>
      </trkpt>
      <trkpt lat="48.60993" lon="-3.51131">
        <ele>125.11</ele>
        <time>2013-06-14T09:03:52Z</time>
      </trkpt>
      <trkpt lat="48.60999" lon="-3.51146">
        <ele>124.63</ele>
        <time>2013-06-14T09:03:53Z</time>
      </trkpt>
      <trkpt lat="48.61004" lon="-3.51161">
        <ele>123.19</ele>
        <time>2013-06-14T09:03:54Z</time>
      </trkpt>
      <trkpt lat="48.61038" lon="-3.5125">
        <ele>119.34</ele>
        <time>2013-06-14T09:04:00Z</time>
      </trkpt>
      <trkpt lat="48.6106" lon="-3.51287">
        <ele>117.9</ele>
        <time>2013-06-14T09:04:03Z</time>
      </trkpt>
      <trkpt lat="48.61069" lon="-3.51298">
        <ele>117.9</ele>
        <time>2013-06-14T09:04:04Z</time>
      </trkpt>
      <trkpt lat="48.61095" lon="-3.51331">
        <ele>115.98</ele>
        <time>2013-06-14T09:04:07Z</time>
      </trkpt>
      <trkpt lat="48.6112" lon="-3.51359">
        <ele>114.53</ele>
        <time>2013-06-14T09:04:10Z</time>
      </trkpt>
      <trkpt lat="48.61181" lon="-3.51417">
        <ele>115.98</ele>
        <time>2013-06-14T09:04:19Z</time>
      </trkpt>
      <trkpt lat="48.61216" lon="-3.51488">
        <ele>116.94</ele>
        <time>2013-06-14T09:04:28Z</time>
      </trkpt>
      <trkpt lat="48.61218" lon="-3.51498">
        <ele>117.42</ele>
        <time>2013-06-14T09:04:29Z</time>
      </trkpt>
      <trkpt lat="48.61219" lon="-3.51507">
        <ele>117.42</ele>
        <time>2013-06-14T09:04:30Z</time>
      </trkpt>
      <trkpt lat="48.6122" lon="-3.51517">
        <ele>117.42</ele>
        <time>2013-06-14T09:04:31Z</time>
      </trkpt>
      <trkpt lat="48.6122" lon="-3.51526">
        <ele>117.42</ele>
        <time>2013-06-14T09:04:32Z</time>
      </trkpt>
      <trkpt lat="48.61219" lon="-3.51535">
        <ele>117.42</ele>
        <time>2013-06-14T09:04:33Z</time>
      </trkpt>
      <trkpt lat="48.61216" lon="-3.51544">
        <ele>117.42</ele>
        <time>2013-06-14T09:04:34Z</time>
      </trkpt>
      <trkpt lat="48.61213" lon="-3.51553">
        <ele>117.42</ele>
        <time>2013-06-14T09:04:35Z</time>
      </trkpt>
      <trkpt lat="48.6121" lon="-3.51562">
        <ele>116.94</ele>
        <time>2013-06-14T09:04:36Z</time>
      </trkpt>
      <trkpt lat="48.6118" lon="-3.51626">
        <ele>115.01</ele>
        <time>2013-06-14T09:04:43Z</time>
      </trkpt>
      <trkpt lat="48.61179" lon="-3.51638">
        <ele>114.53</ele>
        <time>2013-06-14T09:04:44Z</time>
      </trkpt>
      <trkpt lat="48.6118" lon="-3.5165">
        <ele>114.53</ele>
        <time>2013-06-14T09:04:45Z</time>
      </trkpt>
      <trkpt lat="48.61184" lon="-3.5166">
        <ele>114.53</ele>
        <time>2013-06-14T09:04:46Z</time>
      </trkpt>
      <trkpt lat="48.61188" lon="-3.51668">
        <ele>114.05</ele>
        <time>2013-06-14T09:04:47Z</time>
      </trkpt>
      <trkpt lat="48.61194" lon="-3.51672">
        <ele>114.05</ele>
        <time>2013-06-14T09:04:48Z</time>
      </trkpt>
      <trkpt lat="48.612" lon="-3.51675">
        <ele>113.57</ele>
        <time>2013-06-14T09:04:49Z</time>
      </trkpt>
      <trkpt lat="48.61207" lon="-3.51676">
        <ele>114.05</ele>
        <time>2013-06-14T09:04:50Z</time>
      </trkpt>
      <trkpt lat="48.61212" lon="-3.51675">
        <ele>114.53</ele>
        <time>2013-06-14T09:04:51Z</time>
      </trkpt>
      <trkpt lat="48.61217" lon="-3.51674">
        <ele>115.01</ele>
        <time>2013-06-14T09:04:52Z</time>
      </trkpt>
      <trkpt lat="48.61221" lon="-3.51671">
        <ele>115.01</ele>
        <time>2013-06-14T09:04:53Z</time>
      </trkpt>
      <trkpt lat="48.61226" lon="-3.51669">
        <ele>115.01</ele>
        <time>2013-06-14T09:04:54Z</time>
      </trkpt>
      <trkpt lat="48.6123" lon="-3.51665">
        <ele>115.5</ele>
        <time>2013-06-14T09:04:55Z</time>
      </trkpt>
      <trkpt lat="48.61234" lon="-3.5166">
        <ele>115.5</ele>
        <time>2013-06-14T09:04:56Z</time>
      </trkpt>
      <trkpt lat="48.61238" lon="-3.51655">
        <ele>115.98</ele>
        <time>2013-06-14T09:04:57Z</time>
      </trkpt>
      <trkpt lat="48.61288" lon="-3.51597">
        <ele>119.34</ele>
        <time>2013-06-14T09:05:11Z</time>
      </trkpt>
      <trkpt lat="48.61313" lon="-3.51576">
        <ele>120.78</ele>
        <time>2013-06-14T09:05:18Z</time>
      </trkpt>
      <trkpt lat="48.61317" lon="-3.51575">
        <ele>120.78</ele>
        <time>2013-06-14T09:05:19Z</time>
      </trkpt>
      <trkpt lat="48.61371" lon="-3.51582">
        <ele>124.15</ele>
        <time>2013-06-14T09:05:33Z</time>
      </trkpt>
      <trkpt lat="48.61418" lon="-3.51602">
        <ele>127.51</ele>
        <time>2013-06-14T09:05:46Z</time>
      </trkpt>
      <trkpt lat="48.61469" lon="-3.51643">
        <ele>130.4</ele>
        <time>2013-06-14T09:06:00Z</time>
      </trkpt>
      <trkpt lat="48.61503" lon="-3.51701">
        <ele>133.76</ele>
        <time>2013-06-14T09:06:13Z</time>
      </trkpt>
      <trkpt lat="48.61504" lon="-3.51706">
        <ele>134.24</ele>
        <time>2013-06-14T09:06:14Z</time>
      </trkpt>
      <trkpt lat="48.61507" lon="-3.51724">
        <ele>134.24</ele>
        <time>2013-06-14T09:06:17Z</time>
      </trkpt>
      <trkpt lat="48.61509" lon="-3.51814">
        <ele>137.61</ele>
        <time>2013-06-14T09:06:32Z</time>
      </trkpt>
      <trkpt lat="48.61503" lon="-3.51867">
        <ele>139.53</ele>
        <time>2013-06-14T09:06:41Z</time>
      </trkpt>
      <trkpt lat="48.61502" lon="-3.51873">
        <ele>139.53</ele>
        <time>2013-06-14T09:06:42Z</time>
      </trkpt>
      <trkpt lat="48.61491" lon="-3.51945">
        <ele>141.93</ele>
        <time>2013-06-14T09:06:54Z</time>
      </trkpt>
      <trkpt lat="48.61484" lon="-3.52032">
        <ele>144.82</ele>
        <time>2013-06-14T09:07:08Z</time>
      </trkpt>
      <trkpt lat="48.61486" lon="-3.52101">
        <ele>148.18</ele>
        <time>2013-06-14T09:07:19Z</time>
      </trkpt>
      <trkpt lat="48.61486" lon="-3.52114">
        <ele>148.66</ele>
        <time>2013-06-14T09:07:21Z</time>
      </trkpt>
      <trkpt lat="48.61489" lon="-3.52191">
        <ele>151.54</ele>
        <time>2013-06-14T09:07:33Z</time>
      </trkpt>
      <trkpt lat="48.61498" lon="-3.5229">
        <ele>153.95</ele>
        <time>2013-06-14T09:07:48Z</time>
      </trkpt>
      <trkpt lat="48.61519" lon="-3.52424">
        <ele>153.95</ele>
        <time>2013-06-14T09:08:06Z</time>
      </trkpt>
      <trkpt lat="48.61546" lon="-3.52586">
        <ele>152.51</ele>
        <time>2013-06-14T09:08:22Z</time>
      </trkpt>
      <trkpt lat="48.61577" lon="-3.52671">
        <ele>151.06</ele>
        <time>2013-06-14T09:08:31Z</time>
      </trkpt>
      <trkpt lat="48.6158" lon="-3.52681">
        <ele>151.06</ele>
        <time>2013-06-14T09:08:32Z</time>
      </trkpt>
      <trkpt lat="48.61583" lon="-3.52692">
        <ele>150.58</ele>
        <time>2013-06-14T09:08:33Z</time>
      </trkpt>
      <trkpt lat="48.61584" lon="-3.52704">
        <ele>150.58</ele>
        <time>2013-06-14T09:08:34Z</time>
      </trkpt>
      <trkpt lat="48.61585" lon="-3.52717">
        <ele>150.1</ele>
        <time>2013-06-14T09:08:35Z</time>
      </trkpt>
      <trkpt lat="48.61587" lon="-3.52756">
        <ele>148.66</ele>
        <time>2013-06-14T09:08:38Z</time>
      </trkpt>
      <trkpt lat="48.61591" lon="-3.52813">
        <ele>146.74</ele>
        <time>2013-06-14T09:08:42Z</time>
      </trkpt>
      <trkpt lat="48.61596" lon="-3.52885">
        <ele>144.34</ele>
        <time>2013-06-14T09:08:47Z</time>
      </trkpt>
      <trkpt lat="48.61601" lon="-3.52946">
        <ele>140.49</ele>
        <time>2013-06-14T09:08:51Z</time>
      </trkpt>
      <trkpt lat="48.61603" lon="-3.52961">
        <ele>140.49</ele>
        <time>2013-06-14T09:08:52Z</time>
      </trkpt>
      <trkpt lat="48.61606" lon="-3.52977">
        <ele>140.01</ele>
        <time>2013-06-14T09:08:53Z</time>
      </trkpt>
      <trkpt lat="48.6161" lon="-3.52992">
        <ele>139.53</ele>
        <time>2013-06-14T09:08:54Z</time>
      </trkpt>
      <trkpt lat="48.6162" lon="-3.5302">
        <ele>138.09</ele>
        <time>2013-06-14T09:08:56Z</time>
      </trkpt>
      <trkpt lat="48.61627" lon="-3.53033">
        <ele>138.09</ele>
        <time>2013-06-14T09:08:57Z</time>
      </trkpt>
      <trkpt lat="48.61635" lon="-3.53043">
        <ele>136.64</ele>
        <time>2013-06-14T09:08:58Z</time>
      </trkpt>
      <trkpt lat="48.61643" lon="-3.53052">
        <ele>136.16</ele>
        <time>2013-06-14T09:08:59Z</time>
      </trkpt>
      <trkpt lat="48.61652" lon="-3.53059">
        <ele>135.68</ele>
        <time>2013-06-14T09:09:00Z</time>
      </trkpt>
      <trkpt lat="48.6166" lon="-3.53064">
        <ele>135.68</ele>
        <time>2013-06-14T09:09:01Z</time>
      </trkpt>
      <trkpt lat="48.61764" lon="-3.53114">
        <ele>136.16</ele>
        <time>2013-06-14T09:09:14Z</time>
      </trkpt>
      <trkpt lat="48.61858" lon="-3.53155">
        <ele>133.76</ele>
        <time>2013-06-14T09:09:26Z</time>
      </trkpt>
      <trkpt lat="48.61973" lon="-3.53215">
        <ele>130.88</ele>
        <time>2013-06-14T09:09:40Z</time>
      </trkpt>
      <trkpt lat="48.6198" lon="-3.53223">
        <ele>130.88</ele>
        <time>2013-06-14T09:09:41Z</time>
      </trkpt>
      <trkpt lat="48.61986" lon="-3.53233">
        <ele>130.88</ele>
        <time>2013-06-14T09:09:42Z</time>
      </trkpt>
      <trkpt lat="48.61992" lon="-3.53243">
        <ele>131.36</ele>
        <time>2013-06-14T09:09:43Z</time>
      </trkpt>
      <trkpt lat="48.61995" lon="-3.53255">
        <ele>131.36</ele>
        <time>2013-06-14T09:09:44Z</time>
      </trkpt>
      <trkpt lat="48.61998" lon="-3.53267">
        <ele>130.88</ele>
        <time>2013-06-14T09:09:45Z</time>
      </trkpt>
      <trkpt lat="48.62003" lon="-3.53291">
        <ele>129.92</ele>
        <time>2013-06-14T09:09:47Z</time>
      </trkpt>
      <trkpt lat="48.62037" lon="-3.53421">
        <ele>128.47</ele>
        <time>2013-06-14T09:09:59Z</time>
      </trkpt>
      <trkpt lat="48.6204" lon="-3.53446">
        <ele>127.51</ele>
        <time>2013-06-14T09:10:01Z</time>
      </trkpt>
      <trkpt lat="48.6204" lon="-3.53472">
        <ele>126.55</ele>
        <time>2013-06-14T09:10:03Z</time>
      </trkpt>
      <trkpt lat="48.62039" lon="-3.53485">
        <ele>126.55</ele>
        <time>2013-06-14T09:10:04Z</time>
      </trkpt>
      <trkpt lat="48.6202" lon="-3.53605">
        <ele>123.19</ele>
        <time>2013-06-14T09:10:14Z</time>
      </trkpt>
      <trkpt lat="48.62017" lon="-3.53622">
        <ele>121.26</ele>
        <time>2013-06-14T09:10:16Z</time>
      </trkpt>
      <trkpt lat="48.62017" lon="-3.53629">
        <ele>120.78</ele>
        <time>2013-06-14T09:10:17Z</time>
      </trkpt>
      <trkpt lat="48.62019" lon="-3.53634">
        <ele>119.82</ele>
        <time>2013-06-14T09:10:18Z</time>
      </trkpt>
      <trkpt lat="48.62022" lon="-3.53637">
        <ele>119.82</ele>
        <time>2013-06-14T09:10:19Z</time>
      </trkpt>
      <trkpt lat="48.62025" lon="-3.53638">
        <ele>120.3</ele>
        <time>2013-06-14T09:10:20Z</time>
      </trkpt>
      <trkpt lat="48.62029" lon="-3.53636">
        <ele>120.3</ele>
        <time>2013-06-14T09:10:21Z</time>
      </trkpt>
      <trkpt lat="48.62033" lon="-3.53632">
        <ele>121.26</ele>
        <time>2013-06-14T09:10:22Z</time>
      </trkpt>
      <trkpt lat="48.62038" lon="-3.53628">
        <ele>121.26</ele>
        <time>2013-06-14T09:10:23Z</time>
      </trkpt>
      <trkpt lat="48.62042" lon="-3.53623">
        <ele>121.26</ele>
        <time>2013-06-14T09:10:24Z</time>
      </trkpt>
      <trkpt lat="48.62055" lon="-3.5361">
        <ele>122.22</ele>
        <time>2013-06-14T09:10:27Z</time>
      </trkpt>
      <trkpt lat="48.62059" lon="-3.53605">
        <ele>122.71</ele>
        <time>2013-06-14T09:10:28Z</time>
      </trkpt>
      <trkpt lat="48.62062" lon="-3.53599">
        <ele>123.19</ele>
        <time>2013-06-14T09:10:29Z</time>
      </trkpt>
      <trkpt lat="48.62117" lon="-3.53498">
        <ele>123.67</ele>
        <time>2013-06-14T09:10:44Z</time>
      </trkpt>
      <trkpt lat="48.62173" lon="-3.53391">
        <ele>122.71</ele>
        <time>2013-06-14T09:10:58Z</time>
      </trkpt>
      <trkpt lat="48.62184" lon="-3.53377">
        <ele>122.22</ele>
        <time>2013-06-14T09:11:00Z</time>
      </trkpt>
      <trkpt lat="48.6219" lon="-3.53371">
        <ele>122.22</ele>
        <time>2013-06-14T09:11:01Z</time>
      </trkpt>
      <trkpt lat="48.62197" lon="-3.53366">
        <ele>121.74</ele>
        <time>2013-06-14T09:11:02Z</time>
      </trkpt>
      <trkpt lat="48.62204" lon="-3.53361">
        <ele>121.74</ele>
        <time>2013-06-14T09:11:03Z</time>
      </trkpt>
      <trkpt lat="48.62212" lon="-3.53357">
        <ele>121.26</ele>
        <time>2013-06-14T09:11:04Z</time>
      </trkpt>
      <trkpt lat="48.62219" lon="-3.53351">
        <ele>120.3</ele>
        <time>2013-06-14T09:11:05Z</time>
      </trkpt>
      <trkpt lat="48.62226" lon="-3.53344">
        <ele>119.82</ele>
        <time>2013-06-14T09:11:06Z</time>
      </trkpt>
      <trkpt lat="48.62233" lon="-3.53335">
        <ele>118.86</ele>
        <time>2013-06-14T09:11:07Z</time>
      </trkpt>
      <trkpt lat="48.62239" lon="-3.53325">
        <ele>118.38</ele>
        <time>2013-06-14T09:11:08Z</time>
      </trkpt>
      <trkpt lat="48.62245" lon="-3.53315">
        <ele>118.38</ele>
        <time>2013-06-14T09:11:09Z</time>
      </trkpt>
      <trkpt lat="48.62266" lon="-3.53287">
        <ele>115.98</ele>
        <time>2013-06-14T09:11:12Z</time>
      </trkpt>
      <trkpt lat="48.62274" lon="-3.5328">
        <ele>115.5</ele>
        <time>2013-06-14T09:11:13Z</time>
      </trkpt>
      <trkpt lat="48.62292" lon="-3.53269">
        <ele>114.05</ele>
        <time>2013-06-14T09:11:15Z</time>
      </trkpt>
      <trkpt lat="48.62346" lon="-3.53233">
        <ele>111.17</ele>
        <time>2013-06-14T09:11:21Z</time>
      </trkpt>
      <trkpt lat="48.62364" lon="-3.53221">
        <ele>110.69</ele>
        <time>2013-06-14T09:11:23Z</time>
      </trkpt>
      <trkpt lat="48.62373" lon="-3.53217">
        <ele>110.69</ele>
        <time>2013-06-14T09:11:24Z</time>
      </trkpt>
      <trkpt lat="48.62381" lon="-3.53214">
        <ele>110.69</ele>
        <time>2013-06-14T09:11:25Z</time>
      </trkpt>
      <trkpt lat="48.62437" lon="-3.5321">
        <ele>109.73</ele>
        <time>2013-06-14T09:11:32Z</time>
      </trkpt>
      <trkpt lat="48.62534" lon="-3.532">
        <ele>109.25</ele>
        <time>2013-06-14T09:11:45Z</time>
      </trkpt>
      <trkpt lat="48.62548" lon="-3.53201">
        <ele>108.77</ele>
        <time>2013-06-14T09:11:47Z</time>
      </trkpt>
      <trkpt lat="48.62555" lon="-3.53203">
        <ele>108.77</ele>
        <time>2013-06-14T09:11:48Z</time>
      </trkpt>
      <trkpt lat="48.62561" lon="-3.53206">
        <ele>108.77</ele>
        <time>2013-06-14T09:11:49Z</time>
      </trkpt>
      <trkpt lat="48.62568" lon="-3.53209">
        <ele>108.77</ele>
        <time>2013-06-14T09:11:50Z</time>
      </trkpt>
      <trkpt lat="48.62574" lon="-3.53214">
        <ele>108.77</ele>
        <time>2013-06-14T09:11:51Z</time>
      </trkpt>
      <trkpt lat="48.62579" lon="-3.5322">
        <ele>108.29</ele>
        <time>2013-06-14T09:11:52Z</time>
      </trkpt>
      <trkpt lat="48.62584" lon="-3.53227">
        <ele>108.29</ele>
        <time>2013-06-14T09:11:53Z</time>
      </trkpt>
      <trkpt lat="48.62589" lon="-3.53235">
        <ele>108.29</ele>
        <time>2013-06-14T09:11:54Z</time>
      </trkpt>
      <trkpt lat="48.62629" lon="-3.5329">
        <ele>108.77</ele>
        <time>2013-06-14T09:12:02Z</time>
      </trkpt>
      <trkpt lat="48.62634" lon="-3.53294">
        <ele>109.25</ele>
        <time>2013-06-14T09:12:03Z</time>
      </trkpt>
      <trkpt lat="48.6264" lon="-3.53297">
        <ele>109.25</ele>
        <time>2013-06-14T09:12:04Z</time>
      </trkpt>
      <trkpt lat="48.62646" lon="-3.533">
        <ele>109.25</ele>
        <time>2013-06-14T09:12:05Z</time>
      </trkpt>
      <trkpt lat="48.62652" lon="-3.53302">
        <ele>109.73</ele>
        <time>2013-06-14T09:12:06Z</time>
      </trkpt>
      <trkpt lat="48.62658" lon="-3.53303">
        <ele>109.73</ele>
        <time>2013-06-14T09:12:07Z</time>
      </trkpt>
      <trkpt lat="48.62665" lon="-3.53303">
        <ele>108.77</ele>
        <time>2013-06-14T09:12:08Z</time>
      </trkpt>
      <trkpt lat="48.62671" lon="-3.53302">
        <ele>108.77</ele>
        <time>2013-06-14T09:12:09Z</time>
      </trkpt>
      <trkpt lat="48.62678" lon="-3.53299">
        <ele>108.77</ele>
        <time>2013-06-14T09:12:10Z</time>
      </trkpt>
      <trkpt lat="48.62685" lon="-3.53296">
        <ele>108.29</ele>
        <time>2013-06-14T09:12:11Z</time>
      </trkpt>
      <trkpt lat="48.62692" lon="-3.53292">
        <ele>107.81</ele>
        <time>2013-06-14T09:12:12Z</time>
      </trkpt>
      <trkpt lat="48.62699" lon="-3.53286">
        <ele>107.32</ele>
        <time>2013-06-14T09:12:13Z</time>
      </trkpt>
      <trkpt lat="48.62706" lon="-3.5328">
        <ele>106.84</ele>
        <time>2013-06-14T09:12:14Z</time>
      </trkpt>
      <trkpt lat="48.62714" lon="-3.53272">
        <ele>106.84</ele>
        <time>2013-06-14T09:12:15Z</time>
      </trkpt>
      <trkpt lat="48.62721" lon="-3.53264">
        <ele>105.88</ele>
        <time>2013-06-14T09:12:16Z</time>
      </trkpt>
      <trkpt lat="48.62728" lon="-3.53255">
        <ele>105.88</ele>
        <time>2013-06-14T09:12:17Z</time>
      </trkpt>
      <trkpt lat="48.62774" lon="-3.5318">
        <ele>102.52</ele>
        <time>2013-06-14T09:12:24Z</time>
      </trkpt>
      <trkpt lat="48.62809" lon="-3.53093">
        <ele>99.63</ele>
        <time>2013-06-14T09:12:31Z</time>
      </trkpt>
      <trkpt lat="48.62832" lon="-3.53013">
        <ele>95.79</ele>
        <time>2013-06-14T09:12:37Z</time>
      </trkpt>
      <trkpt lat="48.62844" lon="-3.52974">
        <ele>94.35</ele>
        <time>2013-06-14T09:12:40Z</time>
      </trkpt>
      <trkpt lat="48.62866" lon="-3.52923">
        <ele>94.35</ele>
        <time>2013-06-14T09:12:45Z</time>
      </trkpt>
      <trkpt lat="48.62871" lon="-3.52916">
        <ele>93.87</ele>
        <time>2013-06-14T09:12:46Z</time>
      </trkpt>
      <trkpt lat="48.62878" lon="-3.52911">
        <ele>94.83</ele>
        <time>2013-06-14T09:12:47Z</time>
      </trkpt>
      <trkpt lat="48.62898" lon="-3.52901">
        <ele>94.35</ele>
        <time>2013-06-14T09:12:50Z</time>
      </trkpt>
      <trkpt lat="48.62904" lon="-3.52899">
        <ele>94.35</ele>
        <time>2013-06-14T09:12:51Z</time>
      </trkpt>
      <trkpt lat="48.62911" lon="-3.52899">
        <ele>94.83</ele>
        <time>2013-06-14T09:12:52Z</time>
      </trkpt>
      <trkpt lat="48.62917" lon="-3.529">
        <ele>94.83</ele>
        <time>2013-06-14T09:12:53Z</time>
      </trkpt>
      <trkpt lat="48.62923" lon="-3.52901">
        <ele>94.83</ele>
        <time>2013-06-14T09:12:54Z</time>
      </trkpt>
      <trkpt lat="48.62928" lon="-3.52903">
        <ele>95.31</ele>
        <time>2013-06-14T09:12:55Z</time>
      </trkpt>
      <trkpt lat="48.62934" lon="-3.52905">
        <ele>95.31</ele>
        <time>2013-06-14T09:12:56Z</time>
      </trkpt>
      <trkpt lat="48.62939" lon="-3.52908">
        <ele>95.31</ele>
        <time>2013-06-14T09:12:57Z</time>
      </trkpt>
      <trkpt lat="48.62968" lon="-3.52923">
        <ele>96.75</ele>
        <time>2013-06-14T09:13:03Z</time>
      </trkpt>
      <trkpt lat="48.62972" lon="-3.52925">
        <ele>97.23</ele>
        <time>2013-06-14T09:13:04Z</time>
      </trkpt>
      <trkpt lat="48.63015" lon="-3.52945">
        <ele>100.11</ele>
        <time>2013-06-14T09:13:14Z</time>
      </trkpt>
      <trkpt lat="48.6305" lon="-3.52952">
        <ele>101.56</ele>
        <time>2013-06-14T09:13:22Z</time>
      </trkpt>
      <trkpt lat="48.63105" lon="-3.52953">
        <ele>104.92</ele>
        <time>2013-06-14T09:13:35Z</time>
      </trkpt>
      <trkpt lat="48.63113" lon="-3.52953">
        <ele>105.4</ele>
        <time>2013-06-14T09:13:37Z</time>
      </trkpt>
      <trkpt lat="48.6315" lon="-3.52956">
        <ele>107.32</ele>
        <time>2013-06-14T09:13:46Z</time>
      </trkpt>
      <trkpt lat="48.63222" lon="-3.5298">
        <ele>110.21</ele>
        <time>2013-06-14T09:14:03Z</time>
      </trkpt>
      <trkpt lat="48.63227" lon="-3.52978">
        <ele>110.21</ele>
        <time>2013-06-14T09:14:04Z</time>
      </trkpt>
      <trkpt lat="48.63232" lon="-3.52976">
        <ele>110.21</ele>
        <time>2013-06-14T09:14:05Z</time>
      </trkpt>
      <trkpt lat="48.63236" lon="-3.52973">
        <ele>110.69</ele>
        <time>2013-06-14T09:14:06Z</time>
      </trkpt>
      <trkpt lat="48.6324" lon="-3.5297">
        <ele>110.69</ele>
        <time>2013-06-14T09:14:07Z</time>
      </trkpt>
      <trkpt lat="48.63245" lon="-3.52966">
        <ele>111.17</ele>
        <time>2013-06-14T09:14:08Z</time>
      </trkpt>
      <trkpt lat="48.63294" lon="-3.52881">
        <ele>113.09</ele>
        <time>2013-06-14T09:14:23Z</time>
      </trkpt>
      <trkpt lat="48.63335" lon="-3.5277">
        <ele>116.46</ele>
        <time>2013-06-14T09:14:41Z</time>
      </trkpt>
      <trkpt lat="48.63349" lon="-3.52709">
        <ele>118.86</ele>
        <time>2013-06-14T09:14:51Z</time>
      </trkpt>
      <trkpt lat="48.63359" lon="-3.52631">
        <ele>122.22</ele>
        <time>2013-06-14T09:15:03Z</time>
      </trkpt>
      <trkpt lat="48.63361" lon="-3.52608">
        <ele>122.71</ele>
        <time>2013-06-14T09:15:07Z</time>
      </trkpt>
      <trkpt lat="48.63362" lon="-3.52601">
        <ele>123.19</ele>
        <time>2013-06-14T09:15:08Z</time>
      </trkpt>
      <trkpt lat="48.63362" lon="-3.52595">
        <ele>123.19</ele>
        <time>2013-06-14T09:15:09Z</time>
      </trkpt>
      <trkpt lat="48.63363" lon="-3.52588">
        <ele>123.67</ele>
        <time>2013-06-14T09:15:10Z</time>
      </trkpt>
      <trkpt lat="48.63364" lon="-3.52582">
        <ele>123.67</ele>
        <time>2013-06-14T09:15:11Z</time>
      </trkpt>
      <trkpt lat="48.63379" lon="-3.52476">
        <ele>125.59</ele>
        <time>2013-06-14T09:15:26Z</time>
      </trkpt>
      <trkpt lat="48.63406" lon="-3.52336">
        <ele>126.07</ele>
        <time>2013-06-14T09:15:44Z</time>
      </trkpt>
      <trkpt lat="48.63429" lon="-3.52261">
        <ele>125.59</ele>
        <time>2013-06-14T09:15:54Z</time>
      </trkpt>
      <trkpt lat="48.63447" lon="-3.52238">
        <ele>125.59</ele>
        <time>2013-06-14T09:15:58Z</time>
      </trkpt>
      <trkpt lat="48.63453" lon="-3.52234">
        <ele>125.59</ele>
        <time>2013-06-14T09:15:59Z</time>
      </trkpt>
      <trkpt lat="48.63561" lon="-3.52176">
        <ele>123.67</ele>
        <time>2013-06-14T09:16:17Z</time>
      </trkpt>
      <trkpt lat="48.63613" lon="-3.5213">
        <ele>122.22</ele>
        <time>2013-06-14T09:16:25Z</time>
      </trkpt>
      <trkpt lat="48.63676" lon="-3.52079">
        <ele>119.34</ele>
        <time>2013-06-14T09:16:34Z</time>
      </trkpt>
      <trkpt lat="48.63754" lon="-3.52031">
        <ele>119.82</ele>
        <time>2013-06-14T09:16:45Z</time>
      </trkpt>
      <trkpt lat="48.6376" lon="-3.5203">
        <ele>120.3</ele>
        <time>2013-06-14T09:16:46Z</time>
      </trkpt>
      <trkpt lat="48.63765" lon="-3.52029">
        <ele>120.78</ele>
        <time>2013-06-14T09:16:47Z</time>
      </trkpt>
      <trkpt lat="48.6377" lon="-3.52028">
        <ele>122.22</ele>
        <time>2013-06-14T09:16:48Z</time>
      </trkpt>
      <trkpt lat="48.63774" lon="-3.52028">
        <ele>121.74</ele>
        <time>2013-06-14T09:16:49Z</time>
      </trkpt>
      <trkpt lat="48.63824" lon="-3.52034">
        <ele>125.11</ele>
        <time>2013-06-14T09:16:59Z</time>
      </trkpt>
      <trkpt lat="48.63916" lon="-3.52054">
        <ele>125.59</ele>
        <time>2013-06-14T09:17:15Z</time>
      </trkpt>
      <trkpt lat="48.64008" lon="-3.52072">
        <ele>127.03</ele>
        <time>2013-06-14T09:17:30Z</time>
      </trkpt>
      <trkpt lat="48.64079" lon="-3.52073">
        <ele>130.4</ele>
        <time>2013-06-14T09:17:43Z</time>
      </trkpt>
      <trkpt lat="48.64123" lon="-3.52077">
        <ele>133.28</ele>
        <time>2013-06-14T09:17:52Z</time>
      </trkpt>
      <trkpt lat="48.64129" lon="-3.52077">
        <ele>133.28</ele>
        <time>2013-06-14T09:17:53Z</time>
      </trkpt>
      <trkpt lat="48.64174" lon="-3.52079">
        <ele>134.72</ele>
        <time>2013-06-14T09:18:01Z</time>
      </trkpt>
      <trkpt lat="48.64218" lon="-3.52089">
        <ele>137.13</ele>
        <time>2013-06-14T09:18:10Z</time>
      </trkpt>
      <trkpt lat="48.64222" lon="-3.52091">
        <ele>138.09</ele>
        <time>2013-06-14T09:18:11Z</time>
      </trkpt>
      <trkpt lat="48.64232" lon="-3.52097">
        <ele>138.09</ele>
        <time>2013-06-14T09:18:13Z</time>
      </trkpt>
      <trkpt lat="48.64248" lon="-3.52104">
        <ele>138.09</ele>
        <time>2013-06-14T09:18:16Z</time>
      </trkpt>
      <trkpt lat="48.64334" lon="-3.52165">
        <ele>135.2</ele>
        <time>2013-06-14T09:18:29Z</time>
      </trkpt>
      <trkpt lat="48.64357" lon="-3.52183">
        <ele>133.76</ele>
        <time>2013-06-14T09:18:32Z</time>
      </trkpt>
      <trkpt lat="48.64404" lon="-3.52218">
        <ele>131.36</ele>
        <time>2013-06-14T09:18:38Z</time>
      </trkpt>
      <trkpt lat="48.64527" lon="-3.52306">
        <ele>127.99</ele>
        <time>2013-06-14T09:18:53Z</time>
      </trkpt>
      <trkpt lat="48.64614" lon="-3.52358">
        <ele>125.11</ele>
        <time>2013-06-14T09:19:03Z</time>
      </trkpt>
      <trkpt lat="48.64726" lon="-3.52388">
        <ele>125.59</ele>
        <time>2013-06-14T09:19:16Z</time>
      </trkpt>
      <trkpt lat="48.64823" lon="-3.52408">
        <ele>126.07</ele>
        <time>2013-06-14T09:19:30Z</time>
      </trkpt>
      <trkpt lat="48.64924" lon="-3.52448">
        <ele>125.11</ele>
        <time>2013-06-14T09:19:44Z</time>
      </trkpt>
      <trkpt lat="48.65008" lon="-3.52418">
        <ele>125.59</ele>
        <time>2013-06-14T09:19:56Z</time>
      </trkpt>
      <trkpt lat="48.65021" lon="-3.52407">
        <ele>125.59</ele>
        <time>2013-06-14T09:19:58Z</time>
      </trkpt>
      <trkpt lat="48.65119" lon="-3.523">
        <ele>125.11</ele>
        <time>2013-06-14T09:20:15Z</time>
      </trkpt>
      <trkpt lat="48.65209" lon="-3.52224">
        <ele>125.11</ele>
        <time>2013-06-14T09:20:30Z</time>
      </trkpt>
      <trkpt lat="48.65313" lon="-3.52191">
        <ele>125.59</ele>
        <time>2013-06-14T09:20:46Z</time>
      </trkpt>
      <trkpt lat="48.65412" lon="-3.52153">
        <ele>126.07</ele>
        <time>2013-06-14T09:21:02Z</time>
      </trkpt>
      <trkpt lat="48.65507" lon="-3.52103">
        <ele>127.51</ele>
        <time>2013-06-14T09:21:17Z</time>
      </trkpt>
      <trkpt lat="48.65618" lon="-3.52041">
        <ele>126.07</ele>
        <time>2013-06-14T09:21:34Z</time>
      </trkpt>
      <trkpt lat="48.65737" lon="-3.51957">
        <ele>124.63</ele>
        <time>2013-06-14T09:21:52Z</time>
      </trkpt>
      <trkpt lat="48.65825" lon="-3.51935">
        <ele>123.67</ele>
        <time>2013-06-14T09:22:04Z</time>
      </trkpt>
      <trkpt lat="48.65969" lon="-3.51923">
        <ele>121.74</ele>
        <time>2013-06-14T09:22:22Z</time>
      </trkpt>
      <trkpt lat="48.66099" lon="-3.51874">
        <ele>119.82</ele>
        <time>2013-06-14T09:22:38Z</time>
      </trkpt>
      <trkpt lat="48.66254" lon="-3.51791">
        <ele>116.94</ele>
        <time>2013-06-14T09:22:58Z</time>
      </trkpt>
      <trkpt lat="48.66311" lon="-3.51758">
        <ele>114.53</ele>
        <time>2013-06-14T09:23:05Z</time>
      </trkpt>
      <trkpt lat="48.66404" lon="-3.51677">
        <ele>113.57</ele>
        <time>2013-06-14T09:23:18Z</time>
      </trkpt>
      <trkpt lat="48.66463" lon="-3.51578">
        <ele>115.98</ele>
        <time>2013-06-14T09:23:32Z</time>
      </trkpt>
      <trkpt lat="48.66525" lon="-3.51411">
        <ele>116.46</ele>
        <time>2013-06-14T09:23:51Z</time>
      </trkpt>
      <trkpt lat="48.66578" lon="-3.51256">
        <ele>117.9</ele>
        <time>2013-06-14T09:24:09Z</time>
      </trkpt>
      <trkpt lat="48.66601" lon="-3.51187">
        <ele>116.46</ele>
        <time>2013-06-14T09:24:19Z</time>
      </trkpt>
      <trkpt lat="48.66602" lon="-3.51181">
        <ele>116.46</ele>
        <time>2013-06-14T09:24:20Z</time>
      </trkpt>
      <trkpt lat="48.66603" lon="-3.51166">
        <ele>115.5</ele>
        <time>2013-06-14T09:24:29Z</time>
      </trkpt>
      <trkpt lat="48.66606" lon="-3.51159">
        <ele>115.5</ele>
        <time>2013-06-14T09:24:32Z</time>
      </trkpt>
      <trkpt lat="48.66608" lon="-3.51158">
        <ele>115.5</ele>
        <time>2013-06-14T09:24:33Z</time>
      </trkpt>
      <trkpt lat="48.66611" lon="-3.51158">
        <ele>115.5</ele>
        <time>2013-06-14T09:24:34Z</time>
      </trkpt>
      <trkpt lat="48.66614" lon="-3.51158">
        <ele>115.5</ele>
        <time>2013-06-14T09:24:35Z</time>
      </trkpt>
      <trkpt lat="48.66617" lon="-3.51158">
        <ele>115.5</ele>
        <time>2013-06-14T09:24:36Z</time>
      </trkpt>
      <trkpt lat="48.66621" lon="-3.51156">
        <ele>115.5</ele>
        <time>2013-06-14T09:24:37Z</time>
      </trkpt>
      <trkpt lat="48.66625" lon="-3.51153">
        <ele>115.5</ele>
        <time>2013-06-14T09:24:38Z</time>
      </trkpt>
      <trkpt lat="48.66691" lon="-3.51109">
        <ele>117.9</ele>
        <time>2013-06-14T09:24:50Z</time>
      </trkpt>
      <trkpt lat="48.66748" lon="-3.51027">
        <ele>121.26</ele>
        <time>2013-06-14T09:25:03Z</time>
      </trkpt>
      <trkpt lat="48.66813" lon="-3.50931">
        <ele>120.78</ele>
        <time>2013-06-14T09:25:18Z</time>
      </trkpt>
      <trkpt lat="48.66891" lon="-3.50851">
        <ele>122.71</ele>
        <time>2013-06-14T09:25:34Z</time>
      </trkpt>
      <trkpt lat="48.66983" lon="-3.50786">
        <ele>124.15</ele>
        <time>2013-06-14T09:25:50Z</time>
      </trkpt>
      <trkpt lat="48.67096" lon="-3.50733">
        <ele>125.59</ele>
        <time>2013-06-14T09:26:08Z</time>
      </trkpt>
      <trkpt lat="48.67201" lon="-3.50721">
        <ele>126.07</ele>
        <time>2013-06-14T09:26:24Z</time>
      </trkpt>
      <trkpt lat="48.67303" lon="-3.50718">
        <ele>126.07</ele>
        <time>2013-06-14T09:26:39Z</time>
      </trkpt>
      <trkpt lat="48.67429" lon="-3.50721">
        <ele>125.59</ele>
        <time>2013-06-14T09:26:57Z</time>
      </trkpt>
      <trkpt lat="48.67466" lon="-3.5072">
        <ele>125.11</ele>
        <time>2013-06-14T09:27:03Z</time>
      </trkpt>
      <trkpt lat="48.67471" lon="-3.50717">
        <ele>125.11</ele>
        <time>2013-06-14T09:27:04Z</time>
      </trkpt>
      <trkpt lat="48.67475" lon="-3.50714">
        <ele>125.11</ele>
        <time>2013-06-14T09:27:05Z</time>
      </trkpt>
      <trkpt lat="48.67479" lon="-3.50707">
        <ele>125.11</ele>
        <time>2013-06-14T09:27:06Z</time>
      </trkpt>
      <trkpt lat="48.6748" lon="-3.507">
        <ele>125.11</ele>
        <time>2013-06-14T09:27:07Z</time>
      </trkpt>
      <trkpt lat="48.6748" lon="-3.50692">
        <ele>125.59</ele>
        <time>2013-06-14T09:27:08Z</time>
      </trkpt>
      <trkpt lat="48.67477" lon="-3.50685">
        <ele>125.59</ele>
        <time>2013-06-14T09:27:09Z</time>
      </trkpt>
      <trkpt lat="48.67474" lon="-3.50678">
        <ele>126.07</ele>
        <time>2013-06-14T09:27:10Z</time>
      </trkpt>
      <trkpt lat="48.67469" lon="-3.50672">
        <ele>126.07</ele>
        <time>2013-06-14T09:27:11Z</time>
      </trkpt>
      <trkpt lat="48.67397" lon="-3.50592">
        <ele>126.55</ele>
        <time>2013-06-14T09:27:26Z</time>
      </trkpt>
      <trkpt lat="48.67321" lon="-3.50512">
        <ele>127.99</ele>
        <time>2013-06-14T09:27:42Z</time>
      </trkpt>
      <trkpt lat="48.67257" lon="-3.50435">
        <ele>129.92</ele>
        <time>2013-06-14T09:27:56Z</time>
      </trkpt>
      <trkpt lat="48.6725" lon="-3.50421">
        <ele>129.92</ele>
        <time>2013-06-14T09:27:58Z</time>
      </trkpt>
      <trkpt lat="48.67208" lon="-3.50291">
        <ele>131.36</ele>
        <time>2013-06-14T09:28:15Z</time>
      </trkpt>
      <trkpt lat="48.67166" lon="-3.50126">
        <ele>130.4</ele>
        <time>2013-06-14T09:28:35Z</time>
      </trkpt>
      <trkpt lat="48.67129" lon="-3.49955">
        <ele>129.92</ele>
        <time>2013-06-14T09:28:54Z</time>
      </trkpt>
      <trkpt lat="48.67107" lon="-3.4978">
        <ele>131.84</ele>
        <time>2013-06-14T09:29:13Z</time>
      </trkpt>
      <trkpt lat="48.67081" lon="-3.49649">
        <ele>131.36</ele>
        <time>2013-06-14T09:29:28Z</time>
      </trkpt>
      <trkpt lat="48.67049" lon="-3.49547">
        <ele>133.76</ele>
        <time>2013-06-14T09:29:41Z</time>
      </trkpt>
      <trkpt lat="48.67039" lon="-3.49518">
        <ele>134.72</ele>
        <time>2013-06-14T09:29:45Z</time>
      </trkpt>
      <trkpt lat="48.67003" lon="-3.49406">
        <ele>136.16</ele>
        <time>2013-06-14T09:30:00Z</time>
      </trkpt>
      <trkpt lat="48.66951" lon="-3.49314">
        <ele>136.16</ele>
        <time>2013-06-14T09:30:14Z</time>
      </trkpt>
      <trkpt lat="48.66858" lon="-3.49212">
        <ele>134.72</ele>
        <time>2013-06-14T09:30:32Z</time>
      </trkpt>
      <trkpt lat="48.66775" lon="-3.49089">
        <ele>132.8</ele>
        <time>2013-06-14T09:30:49Z</time>
      </trkpt>
      <trkpt lat="48.66702" lon="-3.48981">
        <ele>130.88</ele>
        <time>2013-06-14T09:31:04Z</time>
      </trkpt>
      <trkpt lat="48.66643" lon="-3.48852">
        <ele>129.92</ele>
        <time>2013-06-14T09:31:19Z</time>
      </trkpt>
      <trkpt lat="48.66577" lon="-3.48706">
        <ele>127.99</ele>
        <time>2013-06-14T09:31:36Z</time>
      </trkpt>
      <trkpt lat="48.66534" lon="-3.48621">
        <ele>126.55</ele>
        <time>2013-06-14T09:31:46Z</time>
      </trkpt>
      <trkpt lat="48.66472" lon="-3.48461">
        <ele>123.67</ele>
        <time>2013-06-14T09:32:03Z</time>
      </trkpt>
      <trkpt lat="48.66466" lon="-3.48407">
        <ele>122.71</ele>
        <time>2013-06-14T09:32:08Z</time>
      </trkpt>
      <trkpt lat="48.66453" lon="-3.48226">
        <ele>122.22</ele>
        <time>2013-06-14T09:32:25Z</time>
      </trkpt>
      <trkpt lat="48.66429" lon="-3.48105">
        <ele>120.78</ele>
        <time>2013-06-14T09:32:38Z</time>
      </trkpt>
      <trkpt lat="48.66407" lon="-3.48049">
        <ele>118.38</ele>
        <time>2013-06-14T09:32:45Z</time>
      </trkpt>
      <trkpt lat="48.66353" lon="-3.47909">
        <ele>116.46</ele>
        <time>2013-06-14T09:33:00Z</time>
      </trkpt>
      <trkpt lat="48.6633" lon="-3.47849">
        <ele>113.09</ele>
        <time>2013-06-14T09:33:07Z</time>
      </trkpt>
      <trkpt lat="48.66312" lon="-3.47803">
        <ele>110.69</ele>
        <time>2013-06-14T09:33:16Z</time>
      </trkpt>
      <trkpt lat="48.66312" lon="-3.47803">
        <ele>110.69</ele>
        <time>2013-06-14T09:33:40Z</time>
      </trkpt>
      <trkpt lat="48.66312" lon="-3.47803">
        <ele>110.21</ele>
        <time>2013-06-14T09:34:09Z</time>
      </trkpt>
      <trkpt lat="48.66312" lon="-3.47803">
        <ele>110.69</ele>
        <time>2013-06-14T09:34:32Z</time>
      </trkpt>
      <trkpt lat="48.66312" lon="-3.47803">
        <ele>110.21</ele>
        <time>2013-06-14T09:35:04Z</time>
      </trkpt>
      <trkpt lat="48.66311" lon="-3.47802">
        <ele>110.21</ele>
        <time>2013-06-14T09:35:38Z</time>
      </trkpt>
      <trkpt lat="48.66311" lon="-3.478">
        <ele>110.21</ele>
        <time>2013-06-14T09:35:39Z</time>
      </trkpt>
      <trkpt lat="48.6631" lon="-3.47797">
        <ele>110.21</ele>
        <time>2013-06-14T09:35:40Z</time>
      </trkpt>
      <trkpt lat="48.66309" lon="-3.47793">
        <ele>110.21</ele>
        <time>2013-06-14T09:35:41Z</time>
      </trkpt>
      <trkpt lat="48.66306" lon="-3.47783">
        <ele>110.69</ele>
        <time>2013-06-14T09:35:43Z</time>
      </trkpt>
      <trkpt lat="48.66302" lon="-3.4777">
        <ele>110.21</ele>
        <time>2013-06-14T09:35:45Z</time>
      </trkpt>
      <trkpt lat="48.663" lon="-3.47762">
        <ele>110.21</ele>
        <time>2013-06-14T09:35:46Z</time>
      </trkpt>
      <trkpt lat="48.66298" lon="-3.47753">
        <ele>109.73</ele>
        <time>2013-06-14T09:35:47Z</time>
      </trkpt>
      <trkpt lat="48.66276" lon="-3.47623">
        <ele>106.36</ele>
        <time>2013-06-14T09:35:59Z</time>
      </trkpt>
      <trkpt lat="48.66274" lon="-3.47611">
        <ele>106.84</ele>
        <time>2013-06-14T09:36:00Z</time>
      </trkpt>
      <trkpt lat="48.66263" lon="-3.47577">
        <ele>105.4</ele>
        <time>2013-06-14T09:36:03Z</time>
      </trkpt>
      <trkpt lat="48.66259" lon="-3.47566">
        <ele>104.92</ele>
        <time>2013-06-14T09:36:04Z</time>
      </trkpt>
      <trkpt lat="48.66197" lon="-3.4745">
        <ele>106.36</ele>
        <time>2013-06-14T09:36:18Z</time>
      </trkpt>
      <trkpt lat="48.66171" lon="-3.47405">
        <ele>109.25</ele>
        <time>2013-06-14T09:36:25Z</time>
      </trkpt>
      <trkpt lat="48.66168" lon="-3.47398">
        <ele>109.25</ele>
        <time>2013-06-14T09:36:26Z</time>
      </trkpt>
      <trkpt lat="48.66156" lon="-3.47343">
        <ele>111.65</ele>
        <time>2013-06-14T09:36:33Z</time>
      </trkpt>
      <trkpt lat="48.66154" lon="-3.47318">
        <ele>112.13</ele>
        <time>2013-06-14T09:36:36Z</time>
      </trkpt>
      <trkpt lat="48.66156" lon="-3.47283">
        <ele>112.61</ele>
        <time>2013-06-14T09:36:40Z</time>
      </trkpt>
      <trkpt lat="48.66156" lon="-3.47274">
        <ele>112.61</ele>
        <time>2013-06-14T09:36:41Z</time>
      </trkpt>
      <trkpt lat="48.66159" lon="-3.4716">
        <ele>115.5</ele>
        <time>2013-06-14T09:36:54Z</time>
      </trkpt>
      <trkpt lat="48.66163" lon="-3.46985">
        <ele>117.42</ele>
        <time>2013-06-14T09:37:14Z</time>
      </trkpt>
      <trkpt lat="48.66161" lon="-3.46811">
        <ele>115.98</ele>
        <time>2013-06-14T09:37:30Z</time>
      </trkpt>
      <trkpt lat="48.66153" lon="-3.46639">
        <ele>115.01</ele>
        <time>2013-06-14T09:37:45Z</time>
      </trkpt>
      <trkpt lat="48.66146" lon="-3.46446">
        <ele>113.57</ele>
        <time>2013-06-14T09:38:03Z</time>
      </trkpt>
      <trkpt lat="48.66107" lon="-3.46314">
        <ele>112.13</ele>
        <time>2013-06-14T09:38:16Z</time>
      </trkpt>
      <trkpt lat="48.66024" lon="-3.46144">
        <ele>108.77</ele>
        <time>2013-06-14T09:38:34Z</time>
      </trkpt>
      <trkpt lat="48.65949" lon="-3.46039">
        <ele>108.77</ele>
        <time>2013-06-14T09:38:47Z</time>
      </trkpt>
      <trkpt lat="48.65913" lon="-3.45933">
        <ele>111.65</ele>
        <time>2013-06-14T09:38:59Z</time>
      </trkpt>
      <trkpt lat="48.65909" lon="-3.45797">
        <ele>111.65</ele>
        <time>2013-06-14T09:39:13Z</time>
      </trkpt>
      <trkpt lat="48.65911" lon="-3.45787">
        <ele>111.65</ele>
        <time>2013-06-14T09:39:14Z</time>
      </trkpt>
      <trkpt lat="48.65916" lon="-3.45767">
        <ele>111.65</ele>
        <time>2013-06-14T09:39:16Z</time>
      </trkpt>
      <trkpt lat="48.65975" lon="-3.45619">
        <ele>111.17</ele>
        <time>2013-06-14T09:39:32Z</time>
      </trkpt>
      <trkpt lat="48.6604" lon="-3.45526">
        <ele>110.21</ele>
        <time>2013-06-14T09:39:44Z</time>
      </trkpt>
      <trkpt lat="48.66072" lon="-3.45494">
        <ele>110.21</ele>
        <time>2013-06-14T09:39:49Z</time>
      </trkpt>
      <trkpt lat="48.66077" lon="-3.45486">
        <ele>110.21</ele>
        <time>2013-06-14T09:39:50Z</time>
      </trkpt>
      <trkpt lat="48.66082" lon="-3.45477">
        <ele>110.69</ele>
        <time>2013-06-14T09:39:51Z</time>
      </trkpt>
      <trkpt lat="48.66086" lon="-3.45467">
        <ele>110.21</ele>
        <time>2013-06-14T09:39:52Z</time>
      </trkpt>
      <trkpt lat="48.6609" lon="-3.45457">
        <ele>110.21</ele>
        <time>2013-06-14T09:39:53Z</time>
      </trkpt>
      <trkpt lat="48.66093" lon="-3.45446">
        <ele>110.69</ele>
        <time>2013-06-14T09:39:54Z</time>
      </trkpt>
      <trkpt lat="48.66138" lon="-3.45313">
        <ele>107.32</ele>
        <time>2013-06-14T09:40:06Z</time>
      </trkpt>
      <trkpt lat="48.66141" lon="-3.45301">
        <ele>106.84</ele>
        <time>2013-06-14T09:40:07Z</time>
      </trkpt>
      <trkpt lat="48.66144" lon="-3.45289">
        <ele>106.84</ele>
        <time>2013-06-14T09:40:08Z</time>
      </trkpt>
      <trkpt lat="48.66145" lon="-3.45277">
        <ele>106.36</ele>
        <time>2013-06-14T09:40:09Z</time>
      </trkpt>
      <trkpt lat="48.66145" lon="-3.45264">
        <ele>106.84</ele>
        <time>2013-06-14T09:40:10Z</time>
      </trkpt>
      <trkpt lat="48.66143" lon="-3.45252">
        <ele>106.36</ele>
        <time>2013-06-14T09:40:11Z</time>
      </trkpt>
      <trkpt lat="48.66139" lon="-3.45241">
        <ele>106.36</ele>
        <time>2013-06-14T09:40:12Z</time>
      </trkpt>
      <trkpt lat="48.66134" lon="-3.45231">
        <ele>106.36</ele>
        <time>2013-06-14T09:40:13Z</time>
      </trkpt>
      <trkpt lat="48.66129" lon="-3.45223">
        <ele>105.88</ele>
        <time>2013-06-14T09:40:14Z</time>
      </trkpt>
      <trkpt lat="48.66123" lon="-3.45215">
        <ele>105.4</ele>
        <time>2013-06-14T09:40:15Z</time>
      </trkpt>
      <trkpt lat="48.66117" lon="-3.45208">
        <ele>105.4</ele>
        <time>2013-06-14T09:40:16Z</time>
      </trkpt>
      <trkpt lat="48.66037" lon="-3.4513">
        <ele>105.4</ele>
        <time>2013-06-14T09:40:29Z</time>
      </trkpt>
      <trkpt lat="48.65959" lon="-3.45092">
        <ele>104.92</ele>
        <time>2013-06-14T09:40:40Z</time>
      </trkpt>
      <trkpt lat="48.65953" lon="-3.45087">
        <ele>104.92</ele>
        <time>2013-06-14T09:40:41Z</time>
      </trkpt>
      <trkpt lat="48.65946" lon="-3.45081">
        <ele>104.92</ele>
        <time>2013-06-14T09:40:42Z</time>
      </trkpt>
      <trkpt lat="48.6594" lon="-3.45073">
        <ele>104.92</ele>
        <time>2013-06-14T09:40:43Z</time>
      </trkpt>
      <trkpt lat="48.65935" lon="-3.45065">
        <ele>104.92</ele>
        <time>2013-06-14T09:40:44Z</time>
      </trkpt>
      <trkpt lat="48.65931" lon="-3.45055">
        <ele>104.92</ele>
        <time>2013-06-14T09:40:45Z</time>
      </trkpt>
      <trkpt lat="48.65929" lon="-3.45045">
        <ele>104.92</ele>
        <time>2013-06-14T09:40:46Z</time>
      </trkpt>
      <trkpt lat="48.65927" lon="-3.45034">
        <ele>104.44</ele>
        <time>2013-06-14T09:40:47Z</time>
      </trkpt>
      <trkpt lat="48.65926" lon="-3.45023">
        <ele>104.44</ele>
        <time>2013-06-14T09:40:48Z</time>
      </trkpt>
      <trkpt lat="48.65925" lon="-3.45011">
        <ele>103.96</ele>
        <time>2013-06-14T09:40:49Z</time>
      </trkpt>
      <trkpt lat="48.65934" lon="-3.44879">
        <ele>105.4</ele>
        <time>2013-06-14T09:41:02Z</time>
      </trkpt>
      <trkpt lat="48.65933" lon="-3.4479">
        <ele>108.29</ele>
        <time>2013-06-14T09:41:12Z</time>
      </trkpt>
      <trkpt lat="48.65926" lon="-3.4466">
        <ele>109.73</ele>
        <time>2013-06-14T09:41:27Z</time>
      </trkpt>
      <trkpt lat="48.65928" lon="-3.44588">
        <ele>109.25</ele>
        <time>2013-06-14T09:41:35Z</time>
      </trkpt>
      <trkpt lat="48.65929" lon="-3.44523">
        <ele>110.21</ele>
        <time>2013-06-14T09:41:43Z</time>
      </trkpt>
      <trkpt lat="48.65927" lon="-3.44516">
        <ele>110.21</ele>
        <time>2013-06-14T09:41:44Z</time>
      </trkpt>
      <trkpt lat="48.65923" lon="-3.44511">
        <ele>109.73</ele>
        <time>2013-06-14T09:41:45Z</time>
      </trkpt>
      <trkpt lat="48.65918" lon="-3.44507">
        <ele>109.73</ele>
        <time>2013-06-14T09:41:46Z</time>
      </trkpt>
      <trkpt lat="48.65913" lon="-3.44506">
        <ele>110.21</ele>
        <time>2013-06-14T09:41:47Z</time>
      </trkpt>
      <trkpt lat="48.65907" lon="-3.44505">
        <ele>110.69</ele>
        <time>2013-06-14T09:41:48Z</time>
      </trkpt>
      <trkpt lat="48.65815" lon="-3.44494">
        <ele>110.21</ele>
        <time>2013-06-14T09:42:04Z</time>
      </trkpt>
      <trkpt lat="48.65717" lon="-3.44497">
        <ele>111.17</ele>
        <time>2013-06-14T09:42:21Z</time>
      </trkpt>
      <trkpt lat="48.65631" lon="-3.44511">
        <ele>112.61</ele>
        <time>2013-06-14T09:42:37Z</time>
      </trkpt>
      <trkpt lat="48.65592" lon="-3.44515">
        <ele>113.09</ele>
        <time>2013-06-14T09:42:45Z</time>
      </trkpt>
      <trkpt lat="48.65588" lon="-3.44513">
        <ele>113.09</ele>
        <time>2013-06-14T09:42:46Z</time>
      </trkpt>
      <trkpt lat="48.65584" lon="-3.44509">
        <ele>113.09</ele>
        <time>2013-06-14T09:42:47Z</time>
      </trkpt>
      <trkpt lat="48.65581" lon="-3.44505">
        <ele>113.09</ele>
        <time>2013-06-14T09:42:48Z</time>
      </trkpt>
      <trkpt lat="48.65579" lon="-3.445">
        <ele>113.57</ele>
        <time>2013-06-14T09:42:49Z</time>
      </trkpt>
      <trkpt lat="48.65577" lon="-3.44495">
        <ele>113.57</ele>
        <time>2013-06-14T09:42:50Z</time>
      </trkpt>
      <trkpt lat="48.65575" lon="-3.4449">
        <ele>114.53</ele>
        <time>2013-06-14T09:42:51Z</time>
      </trkpt>
      <trkpt lat="48.65574" lon="-3.44485">
        <ele>113.09</ele>
        <time>2013-06-14T09:42:52Z</time>
      </trkpt>
      <trkpt lat="48.65573" lon="-3.44481">
        <ele>113.09</ele>
        <time>2013-06-14T09:42:53Z</time>
      </trkpt>
      <trkpt lat="48.65571" lon="-3.4446">
        <ele>113.09</ele>
        <time>2013-06-14T09:43:04Z</time>
      </trkpt>
      <trkpt lat="48.65572" lon="-3.44455">
        <ele>113.09</ele>
        <time>2013-06-14T09:43:06Z</time>
      </trkpt>
      <trkpt lat="48.65574" lon="-3.44451">
        <ele>113.09</ele>
        <time>2013-06-14T09:43:07Z</time>
      </trkpt>
      <trkpt lat="48.65577" lon="-3.44448">
        <ele>113.09</ele>
        <time>2013-06-14T09:43:08Z</time>
      </trkpt>
      <trkpt lat="48.65581" lon="-3.44445">
        <ele>113.09</ele>
        <time>2013-06-14T09:43:09Z</time>
      </trkpt>
      <trkpt lat="48.65585" lon="-3.44443">
        <ele>113.09</ele>
        <time>2013-06-14T09:43:10Z</time>
      </trkpt>
      <trkpt lat="48.6559" lon="-3.44441">
        <ele>112.61</ele>
        <time>2013-06-14T09:43:11Z</time>
      </trkpt>
      <trkpt lat="48.65613" lon="-3.44433">
        <ele>112.61</ele>
        <time>2013-06-14T09:43:15Z</time>
      </trkpt>
      <trkpt lat="48.6572" lon="-3.4439">
        <ele>111.17</ele>
        <time>2013-06-14T09:43:30Z</time>
      </trkpt>
      <trkpt lat="48.65859" lon="-3.44348">
        <ele>108.29</ele>
        <time>2013-06-14T09:43:47Z</time>
      </trkpt>
      <trkpt lat="48.65992" lon="-3.44353">
        <ele>105.4</ele>
        <time>2013-06-14T09:44:02Z</time>
      </trkpt>
      <trkpt lat="48.66138" lon="-3.44387">
        <ele>104.44</ele>
        <time>2013-06-14T09:44:19Z</time>
      </trkpt>
      <trkpt lat="48.66249" lon="-3.44414">
        <ele>105.4</ele>
        <time>2013-06-14T09:44:34Z</time>
      </trkpt>
      <trkpt lat="48.66371" lon="-3.44443">
        <ele>108.77</ele>
        <time>2013-06-14T09:44:51Z</time>
      </trkpt>
      <trkpt lat="48.66514" lon="-3.44439">
        <ele>108.29</ele>
        <time>2013-06-14T09:45:10Z</time>
      </trkpt>
      <trkpt lat="48.66655" lon="-3.44443">
        <ele>108.29</ele>
        <time>2013-06-14T09:45:28Z</time>
      </trkpt>
      <trkpt lat="48.66804" lon="-3.44461">
        <ele>107.32</ele>
        <time>2013-06-14T09:45:45Z</time>
      </trkpt>
      <trkpt lat="48.66979" lon="-3.4447">
        <ele>104.92</ele>
        <time>2013-06-14T09:46:03Z</time>
      </trkpt>
      <trkpt lat="48.67121" lon="-3.44436">
        <ele>103.96</ele>
        <time>2013-06-14T09:46:18Z</time>
      </trkpt>
      <trkpt lat="48.67248" lon="-3.44443">
        <ele>104.44</ele>
        <time>2013-06-14T09:46:32Z</time>
      </trkpt>
      <trkpt lat="48.67385" lon="-3.44484">
        <ele>104.92</ele>
        <time>2013-06-14T09:46:48Z</time>
      </trkpt>
      <trkpt lat="48.67524" lon="-3.44506">
        <ele>104.44</ele>
        <time>2013-06-14T09:47:04Z</time>
      </trkpt>
      <trkpt lat="48.67658" lon="-3.44483">
        <ele>105.4</ele>
        <time>2013-06-14T09:47:19Z</time>
      </trkpt>
      <trkpt lat="48.67779" lon="-3.44415">
        <ele>104.92</ele>
        <time>2013-06-14T09:47:33Z</time>
      </trkpt>
      <trkpt lat="48.67901" lon="-3.44369">
        <ele>105.4</ele>
        <time>2013-06-14T09:47:47Z</time>
      </trkpt>
      <trkpt lat="48.68036" lon="-3.444">
        <ele>102.52</ele>
        <time>2013-06-14T09:48:02Z</time>
      </trkpt>
      <trkpt lat="48.68173" lon="-3.44436">
        <ele>101.56</ele>
        <time>2013-06-14T09:48:17Z</time>
      </trkpt>
      <trkpt lat="48.68348" lon="-3.44488">
        <ele>100.11</ele>
        <time>2013-06-14T09:48:37Z</time>
      </trkpt>
      <trkpt lat="48.68493" lon="-3.4451">
        <ele>100.6</ele>
        <time>2013-06-14T09:48:53Z</time>
      </trkpt>
      <trkpt lat="48.68637" lon="-3.44553">
        <ele>99.63</ele>
        <time>2013-06-14T09:49:09Z</time>
      </trkpt>
      <trkpt lat="48.68783" lon="-3.44581">
        <ele>99.15</ele>
        <time>2013-06-14T09:49:25Z</time>
      </trkpt>
      <trkpt lat="48.68912" lon="-3.44561">
        <ele>99.15</ele>
        <time>2013-06-14T09:49:40Z</time>
      </trkpt>
      <trkpt lat="48.69028" lon="-3.4454">
        <ele>101.56</ele>
        <time>2013-06-14T09:49:55Z</time>
      </trkpt>
      <trkpt lat="48.69077" lon="-3.44528">
        <ele>103.48</ele>
        <time>2013-06-14T09:50:02Z</time>
      </trkpt>
      <trkpt lat="48.69196" lon="-3.44491">
        <ele>104.44</ele>
        <time>2013-06-14T09:50:18Z</time>
      </trkpt>
      <trkpt lat="48.6931" lon="-3.44467">
        <ele>103.96</ele>
        <time>2013-06-14T09:50:33Z</time>
      </trkpt>
      <trkpt lat="48.69317" lon="-3.44469">
        <ele>103.96</ele>
        <time>2013-06-14T09:50:34Z</time>
      </trkpt>
      <trkpt lat="48.69436" lon="-3.44521">
        <ele>105.4</ele>
        <time>2013-06-14T09:50:51Z</time>
      </trkpt>
      <trkpt lat="48.69511" lon="-3.44576">
        <ele>102.52</ele>
        <time>2013-06-14T09:51:01Z</time>
      </trkpt>
      <trkpt lat="48.69535" lon="-3.44597">
        <ele>101.08</ele>
        <time>2013-06-14T09:51:04Z</time>
      </trkpt>
      <trkpt lat="48.69561" lon="-3.44617">
        <ele>100.11</ele>
        <time>2013-06-14T09:51:07Z</time>
      </trkpt>
      <trkpt lat="48.6967" lon="-3.44686">
        <ele>96.75</ele>
        <time>2013-06-14T09:51:19Z</time>
      </trkpt>
      <trkpt lat="48.69679" lon="-3.44692">
        <ele>96.27</ele>
        <time>2013-06-14T09:51:20Z</time>
      </trkpt>
      <trkpt lat="48.69794" lon="-3.44742">
        <ele>95.31</ele>
        <time>2013-06-14T09:51:33Z</time>
      </trkpt>
      <trkpt lat="48.69951" lon="-3.44783">
        <ele>92.42</ele>
        <time>2013-06-14T09:51:50Z</time>
      </trkpt>
      <trkpt lat="48.70124" lon="-3.44808">
        <ele>90.98</ele>
        <time>2013-06-14T09:52:09Z</time>
      </trkpt>
      <trkpt lat="48.70236" lon="-3.44816">
        <ele>90.5</ele>
        <time>2013-06-14T09:52:22Z</time>
      </trkpt>
      <trkpt lat="48.70325" lon="-3.44827">
        <ele>90.02</ele>
        <time>2013-06-14T09:52:33Z</time>
      </trkpt>
      <trkpt lat="48.70384" lon="-3.4485">
        <ele>90.02</ele>
        <time>2013-06-14T09:52:41Z</time>
      </trkpt>
      <trkpt lat="48.70392" lon="-3.4485">
        <ele>90.02</ele>
        <time>2013-06-14T09:52:42Z</time>
      </trkpt>
      <trkpt lat="48.70399" lon="-3.44849">
        <ele>90.5</ele>
        <time>2013-06-14T09:52:43Z</time>
      </trkpt>
      <trkpt lat="48.70459" lon="-3.4483">
        <ele>92.42</ele>
        <time>2013-06-14T09:52:52Z</time>
      </trkpt>
      <trkpt lat="48.70499" lon="-3.44816">
        <ele>91.46</ele>
        <time>2013-06-14T09:52:58Z</time>
      </trkpt>
      <trkpt lat="48.70506" lon="-3.44815">
        <ele>90.98</ele>
        <time>2013-06-14T09:52:59Z</time>
      </trkpt>
      <trkpt lat="48.70513" lon="-3.44815">
        <ele>90.98</ele>
        <time>2013-06-14T09:53:00Z</time>
      </trkpt>
      <trkpt lat="48.70615" lon="-3.44806">
        <ele>90.5</ele>
        <time>2013-06-14T09:53:14Z</time>
      </trkpt>
      <trkpt lat="48.70684" lon="-3.44802">
        <ele>87.14</ele>
        <time>2013-06-14T09:53:22Z</time>
      </trkpt>
      <trkpt lat="48.70736" lon="-3.44816">
        <ele>82.81</ele>
        <time>2013-06-14T09:53:27Z</time>
      </trkpt>
      <trkpt lat="48.70824" lon="-3.44862">
        <ele>79.45</ele>
        <time>2013-06-14T09:53:35Z</time>
      </trkpt>
      <trkpt lat="48.70851" lon="-3.44878">
        <ele>77.52</ele>
        <time>2013-06-14T09:53:38Z</time>
      </trkpt>
      <trkpt lat="48.70899" lon="-3.44912">
        <ele>76.08</ele>
        <time>2013-06-14T09:53:47Z</time>
      </trkpt>
      <trkpt lat="48.70918" lon="-3.44928">
        <ele>75.12</ele>
        <time>2013-06-14T09:53:58Z</time>
      </trkpt>
      <trkpt lat="48.70919" lon="-3.44928">
        <ele>74.64</ele>
        <time>2013-06-14T09:54:09Z</time>
      </trkpt>
      <trkpt lat="48.70923" lon="-3.44931">
        <ele>75.12</ele>
        <time>2013-06-14T09:54:11Z</time>
      </trkpt>
      <trkpt lat="48.70925" lon="-3.44932">
        <ele>75.12</ele>
        <time>2013-06-14T09:54:12Z</time>
      </trkpt>
      <trkpt lat="48.70975" lon="-3.44969">
        <ele>74.64</ele>
        <time>2013-06-14T09:54:22Z</time>
      </trkpt>
      <trkpt lat="48.71063" lon="-3.44992">
        <ele>74.16</ele>
        <time>2013-06-14T09:54:34Z</time>
      </trkpt>
      <trkpt lat="48.71176" lon="-3.45006">
        <ele>73.68</ele>
        <time>2013-06-14T09:54:49Z</time>
      </trkpt>
      <trkpt lat="48.71302" lon="-3.45065">
        <ele>73.2</ele>
        <time>2013-06-14T09:55:06Z</time>
      </trkpt>
      <trkpt lat="48.71435" lon="-3.45148">
        <ele>72.24</ele>
        <time>2013-06-14T09:55:25Z</time>
      </trkpt>
      <trkpt lat="48.71555" lon="-3.45239">
        <ele>72.72</ele>
        <time>2013-06-14T09:55:42Z</time>
      </trkpt>
      <trkpt lat="48.71561" lon="-3.45246">
        <ele>71.76</ele>
        <time>2013-06-14T09:55:43Z</time>
      </trkpt>
      <trkpt lat="48.71567" lon="-3.45254">
        <ele>71.76</ele>
        <time>2013-06-14T09:55:44Z</time>
      </trkpt>
      <trkpt lat="48.71573" lon="-3.45263">
        <ele>71.76</ele>
        <time>2013-06-14T09:55:45Z</time>
      </trkpt>
      <trkpt lat="48.71578" lon="-3.45273">
        <ele>72.24</ele>
        <time>2013-06-14T09:55:46Z</time>
      </trkpt>
      <trkpt lat="48.71583" lon="-3.45284">
        <ele>71.76</ele>
        <time>2013-06-14T09:55:47Z</time>
      </trkpt>
      <trkpt lat="48.71645" lon="-3.45442">
        <ele>68.39</ele>
        <time>2013-06-14T09:56:01Z</time>
      </trkpt>
      <trkpt lat="48.71671" lon="-3.45511">
        <ele>66.95</ele>
        <time>2013-06-14T09:56:07Z</time>
      </trkpt>
      <trkpt lat="48.71705" lon="-3.45593">
        <ele>63.58</ele>
        <time>2013-06-14T09:56:14Z</time>
      </trkpt>
      <trkpt lat="48.71711" lon="-3.45603">
        <ele>63.1</ele>
        <time>2013-06-14T09:56:15Z</time>
      </trkpt>
      <trkpt lat="48.71718" lon="-3.45613">
        <ele>62.62</ele>
        <time>2013-06-14T09:56:16Z</time>
      </trkpt>
      <trkpt lat="48.71725" lon="-3.45623">
        <ele>62.62</ele>
        <time>2013-06-14T09:56:17Z</time>
      </trkpt>
      <trkpt lat="48.71733" lon="-3.45631">
        <ele>61.66</ele>
        <time>2013-06-14T09:56:18Z</time>
      </trkpt>
      <trkpt lat="48.71741" lon="-3.45639">
        <ele>61.66</ele>
        <time>2013-06-14T09:56:19Z</time>
      </trkpt>
      <trkpt lat="48.7179" lon="-3.45688">
        <ele>59.74</ele>
        <time>2013-06-14T09:56:25Z</time>
      </trkpt>
      <trkpt lat="48.71857" lon="-3.45754">
        <ele>56.86</ele>
        <time>2013-06-14T09:56:33Z</time>
      </trkpt>
      <trkpt lat="48.71865" lon="-3.45761">
        <ele>56.37</ele>
        <time>2013-06-14T09:56:34Z</time>
      </trkpt>
      <trkpt lat="48.71918" lon="-3.45818">
        <ele>54.93</ele>
        <time>2013-06-14T09:56:41Z</time>
      </trkpt>
      <trkpt lat="48.71924" lon="-3.45828">
        <ele>54.45</ele>
        <time>2013-06-14T09:56:42Z</time>
      </trkpt>
      <trkpt lat="48.71929" lon="-3.45839">
        <ele>54.45</ele>
        <time>2013-06-14T09:56:43Z</time>
      </trkpt>
      <trkpt lat="48.71933" lon="-3.45851">
        <ele>54.45</ele>
        <time>2013-06-14T09:56:44Z</time>
      </trkpt>
      <trkpt lat="48.71935" lon="-3.45864">
        <ele>53.97</ele>
        <time>2013-06-14T09:56:45Z</time>
      </trkpt>
      <trkpt lat="48.71938" lon="-3.45877">
        <ele>53.49</ele>
        <time>2013-06-14T09:56:46Z</time>
      </trkpt>
      <trkpt lat="48.71951" lon="-3.45945">
        <ele>51.57</ele>
        <time>2013-06-14T09:56:51Z</time>
      </trkpt>
      <trkpt lat="48.71955" lon="-3.45959">
        <ele>51.09</ele>
        <time>2013-06-14T09:56:52Z</time>
      </trkpt>
      <trkpt lat="48.71961" lon="-3.45971">
        <ele>51.57</ele>
        <time>2013-06-14T09:56:53Z</time>
      </trkpt>
      <trkpt lat="48.71966" lon="-3.45983">
        <ele>50.61</ele>
        <time>2013-06-14T09:56:54Z</time>
      </trkpt>
      <trkpt lat="48.71973" lon="-3.45993">
        <ele>50.61</ele>
        <time>2013-06-14T09:56:55Z</time>
      </trkpt>
      <trkpt lat="48.71982" lon="-3.46001">
        <ele>50.13</ele>
        <time>2013-06-14T09:56:56Z</time>
      </trkpt>
      <trkpt lat="48.7199" lon="-3.46009">
        <ele>49.65</ele>
        <time>2013-06-14T09:56:57Z</time>
      </trkpt>
      <trkpt lat="48.71999" lon="-3.46014">
        <ele>49.65</ele>
        <time>2013-06-14T09:56:58Z</time>
      </trkpt>
      <trkpt lat="48.72009" lon="-3.46018">
        <ele>49.16</ele>
        <time>2013-06-14T09:56:59Z</time>
      </trkpt>
      <trkpt lat="48.72018" lon="-3.4602">
        <ele>48.68</ele>
        <time>2013-06-14T09:57:00Z</time>
      </trkpt>
      <trkpt lat="48.72028" lon="-3.46021">
        <ele>48.2</ele>
        <time>2013-06-14T09:57:01Z</time>
      </trkpt>
      <trkpt lat="48.72038" lon="-3.46019">
        <ele>48.2</ele>
        <time>2013-06-14T09:57:02Z</time>
      </trkpt>
      <trkpt lat="48.72048" lon="-3.46016">
        <ele>47.72</ele>
        <time>2013-06-14T09:57:03Z</time>
      </trkpt>
      <trkpt lat="48.72058" lon="-3.46012">
        <ele>47.24</ele>
        <time>2013-06-14T09:57:04Z</time>
      </trkpt>
      <trkpt lat="48.72067" lon="-3.46006">
        <ele>46.76</ele>
        <time>2013-06-14T09:57:05Z</time>
      </trkpt>
      <trkpt lat="48.72076" lon="-3.46">
        <ele>47.24</ele>
        <time>2013-06-14T09:57:06Z</time>
      </trkpt>
      <trkpt lat="48.72139" lon="-3.45956">
        <ele>44.36</ele>
        <time>2013-06-14T09:57:13Z</time>
      </trkpt>
      <trkpt lat="48.72149" lon="-3.45953">
        <ele>44.36</ele>
        <time>2013-06-14T09:57:14Z</time>
      </trkpt>
      <trkpt lat="48.72158" lon="-3.45952">
        <ele>42.92</ele>
        <time>2013-06-14T09:57:15Z</time>
      </trkpt>
      <trkpt lat="48.72168" lon="-3.45953">
        <ele>42.44</ele>
        <time>2013-06-14T09:57:16Z</time>
      </trkpt>
      <trkpt lat="48.72177" lon="-3.45957">
        <ele>42.44</ele>
        <time>2013-06-14T09:57:17Z</time>
      </trkpt>
      <trkpt lat="48.72186" lon="-3.45961">
        <ele>41.95</ele>
        <time>2013-06-14T09:57:18Z</time>
      </trkpt>
      <trkpt lat="48.72221" lon="-3.45978">
        <ele>40.51</ele>
        <time>2013-06-14T09:57:22Z</time>
      </trkpt>
      <trkpt lat="48.72265" lon="-3.45999">
        <ele>38.59</ele>
        <time>2013-06-14T09:57:27Z</time>
      </trkpt>
      <trkpt lat="48.72358" lon="-3.45999">
        <ele>34.74</ele>
        <time>2013-06-14T09:57:37Z</time>
      </trkpt>
      <trkpt lat="48.72405" lon="-3.4599">
        <ele>33.3</ele>
        <time>2013-06-14T09:57:42Z</time>
      </trkpt>
      <trkpt lat="48.72414" lon="-3.45993">
        <ele>32.82</ele>
        <time>2013-06-14T09:57:43Z</time>
      </trkpt>
      <trkpt lat="48.72423" lon="-3.45996">
        <ele>32.34</ele>
        <time>2013-06-14T09:57:44Z</time>
      </trkpt>
      <trkpt lat="48.7249" lon="-3.46027">
        <ele>28.98</ele>
        <time>2013-06-14T09:57:52Z</time>
      </trkpt>
      <trkpt lat="48.72526" lon="-3.46035">
        <ele>28.02</ele>
        <time>2013-06-14T09:57:56Z</time>
      </trkpt>
      <trkpt lat="48.72535" lon="-3.46036">
        <ele>27.53</ele>
        <time>2013-06-14T09:57:57Z</time>
      </trkpt>
      <trkpt lat="48.72544" lon="-3.46035">
        <ele>27.05</ele>
        <time>2013-06-14T09:57:58Z</time>
      </trkpt>
      <trkpt lat="48.72553" lon="-3.46034">
        <ele>27.05</ele>
        <time>2013-06-14T09:57:59Z</time>
      </trkpt>
      <trkpt lat="48.72563" lon="-3.46032">
        <ele>26.09</ele>
        <time>2013-06-14T09:58:00Z</time>
      </trkpt>
      <trkpt lat="48.72637" lon="-3.46013">
        <ele>23.21</ele>
        <time>2013-06-14T09:58:08Z</time>
      </trkpt>
      <trkpt lat="48.72695" lon="-3.46001">
        <ele>19.84</ele>
        <time>2013-06-14T09:58:14Z</time>
      </trkpt>
      <trkpt lat="48.7275" lon="-3.45987">
        <ele>16.96</ele>
        <time>2013-06-14T09:58:21Z</time>
      </trkpt>
      <trkpt lat="48.7276" lon="-3.45983">
        <ele>16.96</ele>
        <time>2013-06-14T09:58:23Z</time>
      </trkpt>
      <trkpt lat="48.72763" lon="-3.45981">
        <ele>16.48</ele>
        <time>2013-06-14T09:58:24Z</time>
      </trkpt>
      <trkpt lat="48.72767" lon="-3.45977">
        <ele>16.48</ele>
        <time>2013-06-14T09:58:25Z</time>
      </trkpt>
      <trkpt lat="48.7277" lon="-3.45974">
        <ele>16.48</ele>
        <time>2013-06-14T09:58:26Z</time>
      </trkpt>
      <trkpt lat="48.72775" lon="-3.45973">
        <ele>16.48</ele>
        <time>2013-06-14T09:58:27Z</time>
      </trkpt>
      <trkpt lat="48.72779" lon="-3.45973">
        <ele>16.48</ele>
        <time>2013-06-14T09:58:28Z</time>
      </trkpt>
      <trkpt lat="48.72784" lon="-3.45975">
        <ele>16.48</ele>
        <time>2013-06-14T09:58:29Z</time>
      </trkpt>
      <trkpt lat="48.72789" lon="-3.45976">
        <ele>16.96</ele>
        <time>2013-06-14T09:58:30Z</time>
      </trkpt>
      <trkpt lat="48.72794" lon="-3.45976">
        <ele>16.96</ele>
        <time>2013-06-14T09:58:31Z</time>
      </trkpt>
      <trkpt lat="48.72814" lon="-3.45972">
        <ele>16.96</ele>
        <time>2013-06-14T09:58:35Z</time>
      </trkpt>
      <trkpt lat="48.7282" lon="-3.45971">
        <ele>16.48</ele>
        <time>2013-06-14T09:58:36Z</time>
      </trkpt>
      <trkpt lat="48.72863" lon="-3.45961">
        <ele>17.44</ele>
        <time>2013-06-14T09:58:44Z</time>
      </trkpt>
      <trkpt lat="48.72869" lon="-3.45962">
        <ele>17.44</ele>
        <time>2013-06-14T09:58:45Z</time>
      </trkpt>
      <trkpt lat="48.72874" lon="-3.45966">
        <ele>17.44</ele>
        <time>2013-06-14T09:58:46Z</time>
      </trkpt>
      <trkpt lat="48.72879" lon="-3.45971">
        <ele>17.44</ele>
        <time>2013-06-14T09:58:47Z</time>
      </trkpt>
      <trkpt lat="48.72883" lon="-3.45977">
        <ele>17.92</ele>
        <time>2013-06-14T09:58:48Z</time>
      </trkpt>
      <trkpt lat="48.72887" lon="-3.45983">
        <ele>17.92</ele>
        <time>2013-06-14T09:58:49Z</time>
      </trkpt>
      <trkpt lat="48.72898" lon="-3.45999">
        <ele>17.44</ele>
        <time>2013-06-14T09:58:52Z</time>
      </trkpt>
      <trkpt lat="48.72902" lon="-3.46003">
        <ele>17.92</ele>
        <time>2013-06-14T09:58:53Z</time>
      </trkpt>
      <trkpt lat="48.72923" lon="-3.4602">
        <ele>17.44</ele>
        <time>2013-06-14T09:58:57Z</time>
      </trkpt>
      <trkpt lat="48.72991" lon="-3.46052">
        <ele>17.44</ele>
        <time>2013-06-14T09:59:09Z</time>
      </trkpt>
      <trkpt lat="48.72996" lon="-3.46051">
        <ele>17.44</ele>
        <time>2013-06-14T09:59:10Z</time>
      </trkpt>
      <trkpt lat="48.73015" lon="-3.46044">
        <ele>17.44</ele>
        <time>2013-06-14T09:59:14Z</time>
      </trkpt>
      <trkpt lat="48.73034" lon="-3.46033">
        <ele>17.44</ele>
        <time>2013-06-14T09:59:19Z</time>
      </trkpt>
      <trkpt lat="48.73038" lon="-3.46029">
        <ele>17.44</ele>
        <time>2013-06-14T09:59:20Z</time>
      </trkpt>
      <trkpt lat="48.73041" lon="-3.46023">
        <ele>17.44</ele>
        <time>2013-06-14T09:59:21Z</time>
      </trkpt>
      <trkpt lat="48.73069" lon="-3.45989">
        <ele>17.44</ele>
        <time>2013-06-14T09:59:32Z</time>
      </trkpt>
      <trkpt lat="48.73086" lon="-3.4599">
        <ele>16.48</ele>
        <time>2013-06-14T09:59:40Z</time>
      </trkpt>
      <trkpt lat="48.73119" lon="-3.46034">
        <ele>16</ele>
        <time>2013-06-14T09:59:51Z</time>
      </trkpt>
      <trkpt lat="48.73164" lon="-3.461">
        <ele>16.96</ele>
        <time>2013-06-14T10:00:05Z</time>
      </trkpt>
      <trkpt lat="48.73197" lon="-3.46146">
        <ele>16.96</ele>
        <time>2013-06-14T10:00:15Z</time>
      </trkpt>
      <trkpt lat="48.732" lon="-3.46151">
        <ele>17.44</ele>
        <time>2013-06-14T10:00:16Z</time>
      </trkpt>
      <trkpt lat="48.73221" lon="-3.46178">
        <ele>17.92</ele>
        <time>2013-06-14T10:00:24Z</time>
      </trkpt>
      <trkpt lat="48.73224" lon="-3.46176">
        <ele>17.92</ele>
        <time>2013-06-14T10:00:25Z</time>
      </trkpt>
      <trkpt lat="48.73226" lon="-3.46172">
        <ele>18.4</ele>
        <time>2013-06-14T10:00:26Z</time>
      </trkpt>
      <trkpt lat="48.73252" lon="-3.46093">
        <ele>21.77</ele>
        <time>2013-06-14T10:00:40Z</time>
      </trkpt>
      <trkpt lat="48.73261" lon="-3.46065">
        <ele>22.73</ele>
        <time>2013-06-14T10:00:45Z</time>
      </trkpt>
      <trkpt lat="48.73263" lon="-3.4606">
        <ele>23.21</ele>
        <time>2013-06-14T10:00:46Z</time>
      </trkpt>
      <trkpt lat="48.73266" lon="-3.46054">
        <ele>23.21</ele>
        <time>2013-06-14T10:00:47Z</time>
      </trkpt>
      <trkpt lat="48.73267" lon="-3.46049">
        <ele>23.69</ele>
        <time>2013-06-14T10:00:48Z</time>
      </trkpt>
      <trkpt lat="48.7327" lon="-3.46044">
        <ele>23.69</ele>
        <time>2013-06-14T10:00:49Z</time>
      </trkpt>
      <trkpt lat="48.73272" lon="-3.46039">
        <ele>24.17</ele>
        <time>2013-06-14T10:00:50Z</time>
      </trkpt>
      <trkpt lat="48.73275" lon="-3.46033">
        <ele>24.65</ele>
        <time>2013-06-14T10:00:51Z</time>
      </trkpt>
      <trkpt lat="48.73277" lon="-3.46029">
        <ele>24.65</ele>
        <time>2013-06-14T10:00:52Z</time>
      </trkpt>
      <trkpt lat="48.73302" lon="-3.45976">
        <ele>25.61</ele>
        <time>2013-06-14T10:01:05Z</time>
      </trkpt>
      <trkpt lat="48.73309" lon="-3.45966">
        <ele>24.65</ele>
        <time>2013-06-14T10:01:07Z</time>
      </trkpt>
      <trkpt lat="48.73313" lon="-3.45962">
        <ele>24.65</ele>
        <time>2013-06-14T10:01:08Z</time>
      </trkpt>
      <trkpt lat="48.73319" lon="-3.45958">
        <ele>24.65</ele>
        <time>2013-06-14T10:01:09Z</time>
      </trkpt>
      <trkpt lat="48.73326" lon="-3.45956">
        <ele>24.17</ele>
        <time>2013-06-14T10:01:10Z</time>
      </trkpt>
      <trkpt lat="48.73332" lon="-3.45955">
        <ele>23.21</ele>
        <time>2013-06-14T10:01:11Z</time>
      </trkpt>
      <trkpt lat="48.73352" lon="-3.45948">
        <ele>21.29</ele>
        <time>2013-06-14T10:01:14Z</time>
      </trkpt>
      <trkpt lat="48.73411" lon="-3.45924">
        <ele>20.81</ele>
        <time>2013-06-14T10:01:24Z</time>
      </trkpt>
      <trkpt lat="48.7343" lon="-3.45911">
        <ele>20.81</ele>
        <time>2013-06-14T10:01:28Z</time>
      </trkpt>
      <trkpt lat="48.73434" lon="-3.45906">
        <ele>20.81</ele>
        <time>2013-06-14T10:01:29Z</time>
      </trkpt>
      <trkpt lat="48.73439" lon="-3.45901">
        <ele>20.81</ele>
        <time>2013-06-14T10:01:30Z</time>
      </trkpt>
      <trkpt lat="48.73446" lon="-3.4589">
        <ele>21.29</ele>
        <time>2013-06-14T10:01:32Z</time>
      </trkpt>
      <trkpt lat="48.7345" lon="-3.45883">
        <ele>21.29</ele>
        <time>2013-06-14T10:01:33Z</time>
      </trkpt>
      <trkpt lat="48.73452" lon="-3.45876">
        <ele>21.29</ele>
        <time>2013-06-14T10:01:34Z</time>
      </trkpt>
      <trkpt lat="48.73454" lon="-3.45868">
        <ele>21.77</ele>
        <time>2013-06-14T10:01:35Z</time>
      </trkpt>
      <trkpt lat="48.73456" lon="-3.45861">
        <ele>21.77</ele>
        <time>2013-06-14T10:01:36Z</time>
      </trkpt>
      <trkpt lat="48.73459" lon="-3.45834">
        <ele>21.77</ele>
        <time>2013-06-14T10:01:44Z</time>
      </trkpt>
      <trkpt lat="48.73458" lon="-3.45832">
        <ele>22.25</ele>
        <time>2013-06-14T10:01:52Z</time>
      </trkpt>
      <trkpt lat="48.73458" lon="-3.45834">
        <ele>22.25</ele>
        <time>2013-06-14T10:01:53Z</time>
      </trkpt>
      <trkpt lat="48.73457" lon="-3.45837">
        <ele>22.73</ele>
        <time>2013-06-14T10:01:54Z</time>
      </trkpt>
      <trkpt lat="48.73457" lon="-3.4584">
        <ele>22.73</ele>
        <time>2013-06-14T10:01:55Z</time>
      </trkpt>
      <trkpt lat="48.73457" lon="-3.45844">
        <ele>22.73</ele>
        <time>2013-06-14T10:01:56Z</time>
      </trkpt>
      <trkpt lat="48.73457" lon="-3.45847">
        <ele>22.73</ele>
        <time>2013-06-14T10:01:57Z</time>
      </trkpt>
      <trkpt lat="48.73456" lon="-3.45851">
        <ele>22.73</ele>
        <time>2013-06-14T10:01:58Z</time>
      </trkpt>
      <trkpt lat="48.73454" lon="-3.45864">
        <ele>21.77</ele>
        <time>2013-06-14T10:02:03Z</time>
      </trkpt>
      <trkpt lat="48.73452" lon="-3.45865">
        <ele>21.77</ele>
        <time>2013-06-14T10:02:04Z</time>
      </trkpt>
      <trkpt lat="48.73451" lon="-3.45864">
        <ele>21.77</ele>
        <time>2013-06-14T10:02:05Z</time>
      </trkpt>
      <trkpt lat="48.73452" lon="-3.45865">
        <ele>20.81</ele>
        <time>2013-06-14T10:02:16Z</time>
      </trkpt>
      <trkpt lat="48.73452" lon="-3.45866">
        <ele>21.29</ele>
        <time>2013-06-14T10:02:36Z</time>
      </trkpt>
      <trkpt lat="48.73452" lon="-3.45868">
        <ele>21.29</ele>
        <time>2013-06-14T10:02:58Z</time>
      </trkpt>
      <trkpt lat="48.73452" lon="-3.45869">
        <ele>21.29</ele>
        <time>2013-06-14T10:03:10Z</time>
      </trkpt>
      <trkpt lat="48.73454" lon="-3.45866">
        <ele>21.77</ele>
        <time>2013-06-14T10:03:12Z</time>
      </trkpt>
      <trkpt lat="48.73455" lon="-3.45863">
        <ele>21.77</ele>
        <time>2013-06-14T10:03:13Z</time>
      </trkpt>
      <trkpt lat="48.73455" lon="-3.4586">
        <ele>21.77</ele>
        <time>2013-06-14T10:03:14Z</time>
      </trkpt>
      <trkpt lat="48.73456" lon="-3.45857">
        <ele>21.77</ele>
        <time>2013-06-14T10:03:15Z</time>
      </trkpt>
      <trkpt lat="48.73456" lon="-3.45853">
        <ele>21.77</ele>
        <time>2013-06-14T10:03:16Z</time>
      </trkpt>
      <trkpt lat="48.73456" lon="-3.4585">
        <ele>21.77</ele>
        <time>2013-06-14T10:03:17Z</time>
      </trkpt>
      <trkpt lat="48.73456" lon="-3.4582">
        <ele>22.73</ele>
        <time>2013-06-14T10:03:22Z</time>
      </trkpt>
      <trkpt lat="48.73455" lon="-3.45812">
        <ele>22.73</ele>
        <time>2013-06-14T10:03:23Z</time>
      </trkpt>
      <trkpt lat="48.73454" lon="-3.45805">
        <ele>23.21</ele>
        <time>2013-06-14T10:03:24Z</time>
      </trkpt>
      <trkpt lat="48.7345" lon="-3.4579">
        <ele>23.21</ele>
        <time>2013-06-14T10:03:26Z</time>
      </trkpt>
      <trkpt lat="48.73431" lon="-3.45738">
        <ele>23.69</ele>
        <time>2013-06-14T10:03:33Z</time>
      </trkpt>
      <trkpt lat="48.7343" lon="-3.4573">
        <ele>24.17</ele>
        <time>2013-06-14T10:03:34Z</time>
      </trkpt>
      <trkpt lat="48.73431" lon="-3.45721">
        <ele>24.17</ele>
        <time>2013-06-14T10:03:35Z</time>
      </trkpt>
      <trkpt lat="48.73432" lon="-3.45713">
        <ele>24.17</ele>
        <time>2013-06-14T10:03:36Z</time>
      </trkpt>
      <trkpt lat="48.73435" lon="-3.45706">
        <ele>24.17</ele>
        <time>2013-06-14T10:03:37Z</time>
      </trkpt>
      <trkpt lat="48.73438" lon="-3.45699">
        <ele>24.17</ele>
        <time>2013-06-14T10:03:38Z</time>
      </trkpt>
      <trkpt lat="48.73442" lon="-3.45693">
        <ele>24.17</ele>
        <time>2013-06-14T10:03:39Z</time>
      </trkpt>
      <trkpt lat="48.73446" lon="-3.45687">
        <ele>24.17</ele>
        <time>2013-06-14T10:03:40Z</time>
      </trkpt>
      <trkpt lat="48.73454" lon="-3.45674">
        <ele>24.17</ele>
        <time>2013-06-14T10:03:42Z</time>
      </trkpt>
      <trkpt lat="48.73458" lon="-3.45667">
        <ele>23.69</ele>
        <time>2013-06-14T10:03:43Z</time>
      </trkpt>
      <trkpt lat="48.73468" lon="-3.45643">
        <ele>23.69</ele>
        <time>2013-06-14T10:03:46Z</time>
      </trkpt>
      <trkpt lat="48.73495" lon="-3.45547">
        <ele>23.21</ele>
        <time>2013-06-14T10:04:00Z</time>
      </trkpt>
      <trkpt lat="48.73496" lon="-3.45545">
        <ele>23.69</ele>
        <time>2013-06-14T10:04:09Z</time>
      </trkpt>
      <trkpt lat="48.73497" lon="-3.45544">
        <ele>23.69</ele>
        <time>2013-06-14T10:04:10Z</time>
      </trkpt>
      <trkpt lat="48.73498" lon="-3.45542">
        <ele>23.69</ele>
        <time>2013-06-14T10:04:11Z</time>
      </trkpt>
      <trkpt lat="48.73499" lon="-3.45539">
        <ele>24.17</ele>
        <time>2013-06-14T10:04:12Z</time>
      </trkpt>
      <trkpt lat="48.73501" lon="-3.45535">
        <ele>24.17</ele>
        <time>2013-06-14T10:04:13Z</time>
      </trkpt>
      <trkpt lat="48.73504" lon="-3.45533">
        <ele>24.17</ele>
        <time>2013-06-14T10:04:14Z</time>
      </trkpt>
      <trkpt lat="48.73508" lon="-3.45532">
        <ele>24.17</ele>
        <time>2013-06-14T10:04:15Z</time>
      </trkpt>
      <trkpt lat="48.73513" lon="-3.45532">
        <ele>24.17</ele>
        <time>2013-06-14T10:04:16Z</time>
      </trkpt>
      <trkpt lat="48.73528" lon="-3.45531">
        <ele>24.17</ele>
        <time>2013-06-14T10:04:19Z</time>
      </trkpt>
      <trkpt lat="48.73532" lon="-3.4553">
        <ele>24.65</ele>
        <time>2013-06-14T10:04:20Z</time>
      </trkpt>
      <trkpt lat="48.73537" lon="-3.45528">
        <ele>24.65</ele>
        <time>2013-06-14T10:04:21Z</time>
      </trkpt>
      <trkpt lat="48.73542" lon="-3.45527">
        <ele>25.13</ele>
        <time>2013-06-14T10:04:22Z</time>
      </trkpt>
      <trkpt lat="48.73546" lon="-3.45525">
        <ele>25.13</ele>
        <time>2013-06-14T10:04:23Z</time>
      </trkpt>
      <trkpt lat="48.73585" lon="-3.45507">
        <ele>27.05</ele>
        <time>2013-06-14T10:04:33Z</time>
      </trkpt>
      <trkpt lat="48.7361" lon="-3.45503">
        <ele>28.02</ele>
        <time>2013-06-14T10:04:39Z</time>
      </trkpt>
      <trkpt lat="48.73614" lon="-3.45504">
        <ele>28.02</ele>
        <time>2013-06-14T10:04:40Z</time>
      </trkpt>
      <trkpt lat="48.73618" lon="-3.45506">
        <ele>28.5</ele>
        <time>2013-06-14T10:04:41Z</time>
      </trkpt>
      <trkpt lat="48.73665" lon="-3.45523">
        <ele>32.82</ele>
        <time>2013-06-14T10:04:54Z</time>
      </trkpt>
      <trkpt lat="48.73718" lon="-3.45515">
        <ele>35.71</ele>
        <time>2013-06-14T10:05:10Z</time>
      </trkpt>
      <trkpt lat="48.73766" lon="-3.45504">
        <ele>38.59</ele>
        <time>2013-06-14T10:05:25Z</time>
      </trkpt>
      <trkpt lat="48.73803" lon="-3.45482">
        <ele>41.95</ele>
        <time>2013-06-14T10:05:38Z</time>
      </trkpt>
      <trkpt lat="48.73837" lon="-3.4546">
        <ele>45.32</ele>
        <time>2013-06-14T10:05:50Z</time>
      </trkpt>
      <trkpt lat="48.73876" lon="-3.4542">
        <ele>48.2</ele>
        <time>2013-06-14T10:06:05Z</time>
      </trkpt>
      <trkpt lat="48.73905" lon="-3.45388">
        <ele>51.57</ele>
        <time>2013-06-14T10:06:17Z</time>
      </trkpt>
      <trkpt lat="48.73935" lon="-3.45358">
        <ele>54.93</ele>
        <time>2013-06-14T10:06:29Z</time>
      </trkpt>
      <trkpt lat="48.73958" lon="-3.45338">
        <ele>57.82</ele>
        <time>2013-06-14T10:06:38Z</time>
      </trkpt>
      <trkpt lat="48.73985" lon="-3.45309">
        <ele>61.18</ele>
        <time>2013-06-14T10:06:49Z</time>
      </trkpt>
      <trkpt lat="48.74013" lon="-3.45293">
        <ele>64.07</ele>
        <time>2013-06-14T10:06:59Z</time>
      </trkpt>
      <trkpt lat="48.74065" lon="-3.45308">
        <ele>65.99</ele>
        <time>2013-06-14T10:07:14Z</time>
      </trkpt>
      <trkpt lat="48.74129" lon="-3.45307">
        <ele>67.91</ele>
        <time>2013-06-14T10:07:30Z</time>
      </trkpt>
      <trkpt lat="48.74165" lon="-3.45308">
        <ele>71.27</ele>
        <time>2013-06-14T10:07:40Z</time>
      </trkpt>
      <trkpt lat="48.74199" lon="-3.45308">
        <ele>74.16</ele>
        <time>2013-06-14T10:07:49Z</time>
      </trkpt>
      <trkpt lat="48.74242" lon="-3.45292">
        <ele>77.04</ele>
        <time>2013-06-14T10:08:00Z</time>
      </trkpt>
      <trkpt lat="48.74306" lon="-3.45273">
        <ele>78</ele>
        <time>2013-06-14T10:08:15Z</time>
      </trkpt>
      <trkpt lat="48.74335" lon="-3.45254">
        <ele>78</ele>
        <time>2013-06-14T10:08:23Z</time>
      </trkpt>
      <trkpt lat="48.74337" lon="-3.45248">
        <ele>78</ele>
        <time>2013-06-14T10:08:24Z</time>
      </trkpt>
      <trkpt lat="48.74338" lon="-3.45242">
        <ele>78</ele>
        <time>2013-06-14T10:08:25Z</time>
      </trkpt>
      <trkpt lat="48.74344" lon="-3.45224">
        <ele>77.04</ele>
        <time>2013-06-14T10:08:33Z</time>
      </trkpt>
      <trkpt lat="48.74344" lon="-3.45224">
        <ele>77.04</ele>
        <time>2013-06-14T10:08:34Z</time>
      </trkpt>
      <trkpt lat="48.74349" lon="-3.45218">
        <ele>77.04</ele>
        <time>2013-06-14T10:08:37Z</time>
      </trkpt>
      <trkpt lat="48.74352" lon="-3.45217">
        <ele>77.52</ele>
        <time>2013-06-14T10:08:38Z</time>
      </trkpt>
      <trkpt lat="48.74356" lon="-3.45217">
        <ele>77.52</ele>
        <time>2013-06-14T10:08:39Z</time>
      </trkpt>
      <trkpt lat="48.74396" lon="-3.45232">
        <ele>78</ele>
        <time>2013-06-14T10:08:52Z</time>
      </trkpt>
      <trkpt lat="48.74423" lon="-3.45265">
        <ele>77.52</ele>
        <time>2013-06-14T10:09:02Z</time>
      </trkpt>
      <trkpt lat="48.74476" lon="-3.45332">
        <ele>74.16</ele>
        <time>2013-06-14T10:09:11Z</time>
      </trkpt>
      <trkpt lat="48.74508" lon="-3.45373">
        <ele>70.31</ele>
        <time>2013-06-14T10:09:15Z</time>
      </trkpt>
      <trkpt lat="48.74517" lon="-3.45385">
        <ele>70.31</ele>
        <time>2013-06-14T10:09:16Z</time>
      </trkpt>
      <trkpt lat="48.74526" lon="-3.45398">
        <ele>68.87</ele>
        <time>2013-06-14T10:09:17Z</time>
      </trkpt>
      <trkpt lat="48.7454" lon="-3.45425">
        <ele>68.39</ele>
        <time>2013-06-14T10:09:19Z</time>
      </trkpt>
      <trkpt lat="48.74577" lon="-3.45493">
        <ele>72.24</ele>
        <time>2013-06-14T10:09:26Z</time>
      </trkpt>
      <trkpt lat="48.74581" lon="-3.45499">
        <ele>71.76</ele>
        <time>2013-06-14T10:09:27Z</time>
      </trkpt>
      <trkpt lat="48.74585" lon="-3.45504">
        <ele>72.24</ele>
        <time>2013-06-14T10:09:28Z</time>
      </trkpt>
      <trkpt lat="48.74596" lon="-3.45511">
        <ele>72.72</ele>
        <time>2013-06-14T10:09:31Z</time>
      </trkpt>
      <trkpt lat="48.74599" lon="-3.45509">
        <ele>73.2</ele>
        <time>2013-06-14T10:09:32Z</time>
      </trkpt>
      <trkpt lat="48.74601" lon="-3.45504">
        <ele>73.68</ele>
        <time>2013-06-14T10:09:33Z</time>
      </trkpt>
      <trkpt lat="48.74603" lon="-3.45499">
        <ele>73.68</ele>
        <time>2013-06-14T10:09:34Z</time>
      </trkpt>
      <trkpt lat="48.74605" lon="-3.45495">
        <ele>74.16</ele>
        <time>2013-06-14T10:09:35Z</time>
      </trkpt>
      <trkpt lat="48.74618" lon="-3.45469">
        <ele>76.08</ele>
        <time>2013-06-14T10:09:41Z</time>
      </trkpt>
      <trkpt lat="48.74621" lon="-3.45467">
        <ele>76.56</ele>
        <time>2013-06-14T10:09:42Z</time>
      </trkpt>
      <trkpt lat="48.74625" lon="-3.45467">
        <ele>77.04</ele>
        <time>2013-06-14T10:09:43Z</time>
      </trkpt>
      <trkpt lat="48.74628" lon="-3.45469">
        <ele>77.04</ele>
        <time>2013-06-14T10:09:44Z</time>
      </trkpt>
      <trkpt lat="48.74631" lon="-3.45472">
        <ele>77.04</ele>
        <time>2013-06-14T10:09:45Z</time>
      </trkpt>
      <trkpt lat="48.74634" lon="-3.45476">
        <ele>77.52</ele>
        <time>2013-06-14T10:09:46Z</time>
      </trkpt>
      <trkpt lat="48.74636" lon="-3.45479">
        <ele>77.52</ele>
        <time>2013-06-14T10:09:47Z</time>
      </trkpt>
      <trkpt lat="48.74657" lon="-3.45501">
        <ele>79.45</ele>
        <time>2013-06-14T10:09:57Z</time>
      </trkpt>
      <trkpt lat="48.74679" lon="-3.45523">
        <ele>80.89</ele>
        <time>2013-06-14T10:10:07Z</time>
      </trkpt>
      <trkpt lat="48.74682" lon="-3.45523">
        <ele>80.89</ele>
        <time>2013-06-14T10:10:08Z</time>
      </trkpt>
      <trkpt lat="48.74695" lon="-3.45512">
        <ele>80.89</ele>
        <time>2013-06-14T10:10:18Z</time>
      </trkpt>
      <trkpt lat="48.74696" lon="-3.45512">
        <ele>81.37</ele>
        <time>2013-06-14T10:10:46Z</time>
      </trkpt>
    </trkseg>
  </trk>
</gpx>